Wetterdaten: Montag, 09.11.2015
Datum Zeit Temp. A. Feuchte A. Luftdruck Regen Wind Richtung Richtung Sonnenschein ET UV Solar Taupunkt Windchill Windben Empfang
09.11.2015 00:00 10,9 C 99 % 1025,0 hPa 0,0 l/m 1,0 km/h (0 Bft) SW 227 0 min 0,000 mm 0,0 UV-I 0 W/m 10,7 C 10,9 C 1,6 km/h (1 Bft) 100,00 %
09.11.2015 00:01 10,9 C 99 % 1025,0 hPa 0,0 l/m 1,0 km/h (0 Bft) SW 227 0 min 0,000 mm 0,0 UV-I 0 W/m 10,7 C 10,9 C 1,6 km/h (1 Bft) 100,00 %
09.11.2015 00:02 10,8 C 99 % 1025,0 hPa 0,0 l/m 0,7 km/h (0 Bft) SW 227 0 min 0,000 mm 0,0 UV-I 0 W/m 10,6 C 10,8 C 1,6 km/h (1 Bft) 100,00 %
09.11.2015 00:03 10,8 C 99 % 1025,0 hPa 0,0 l/m 1,7 km/h (1 Bft) SW 227 0 min 0,000 mm 0,0 UV-I 0 W/m 10,6 C 10,8 C 3,2 km/h (1 Bft) 100,00 %
09.11.2015 00:04 10,8 C 99 % 1025,0 hPa 0,0 l/m 1,4 km/h (1 Bft) SW 227 0 min 0,000 mm 0,0 UV-I 0 W/m 10,6 C 10,8 C 3,2 km/h (1 Bft) 100,00 %
09.11.2015 00:05 10,8 C 99 % 1025,0 hPa 0,0 l/m 0,7 km/h (0 Bft) SW 227 0 min 0,000 mm 0,0 UV-I 0 W/m 10,6 C 10,8 C 1,6 km/h (1 Bft) 100,00 %
09.11.2015 00:06 10,9 C 99 % 1025,0 hPa 0,0 l/m 0,6 km/h (0 Bft) SW 227 0 min 0,000 mm 0,0 UV-I 0 W/m 10,7 C 10,9 C 1,6 km/h (1 Bft) 100,00 %
09.11.2015 00:07 10,9 C 99 % 1025,0 hPa 0,0 l/m 0,6 km/h (0 Bft) SW 227 0 min 0,000 mm 0,0 UV-I 0 W/m 10,7 C 10,9 C 1,6 km/h (1 Bft) 100,00 %
09.11.2015 00:08 10,9 C 99 % 1025,0 hPa 0,0 l/m 0,1 km/h (0 Bft) SW 227 0 min 0,000 mm 0,0 UV-I 0 W/m 10,7 C 10,9 C 1,6 km/h (1 Bft) 100,00 %
09.11.2015 00:09 10,9 C 99 % 1025,0 hPa 0,0 l/m 0,0 km/h (0 Bft) SW 227 0 min 0,000 mm 0,0 UV-I 0 W/m 10,7 C 10,9 C 0,0 km/h (0 Bft) 100,00 %
09.11.2015 00:10 10,9 C 99 % 1024,9 hPa 0,0 l/m 0,3 km/h (0 Bft) SW 227 0 min 0,000 mm 0,0 UV-I 0 W/m 10,7 C 10,9 C 1,6 km/h (1 Bft) 100,00 %
09.11.2015 00:11 10,9 C 99 % 1024,9 hPa 0,0 l/m 0,8 km/h (0 Bft) SW 227 0 min 0,000 mm 0,0 UV-I 0 W/m 10,7 C 10,9 C 1,6 km/h (1 Bft) 100,00 %
09.11.2015 00:12 10,9 C 99 % 1024,9 hPa 0,0 l/m 1,7 km/h (1 Bft) SW 227 0 min 0,000 mm 0,0 UV-I 0 W/m 10,7 C 10,9 C 3,2 km/h (1 Bft) 100,00 %
09.11.2015 00:13 10,9 C 99 % 1024,9 hPa 0,0 l/m 1,2 km/h (1 Bft) SW 227 0 min 0,000 mm 0,0 UV-I 0 W/m 10,7 C 10,9 C 1,6 km/h (1 Bft) 100,00 %
09.11.2015 00:14 11,0 C 99 % 1024,9 hPa 0,0 l/m 0,5 km/h (0 Bft) SW 227 0 min 0,000 mm 0,0 UV-I 0 W/m 10,8 C 11,0 C 1,6 km/h (1 Bft) 100,00 %
09.11.2015 00:15 11,0 C 99 % 1024,9 hPa 0,0 l/m 0,8 km/h (0 Bft) SW 227 0 min 0,000 mm 0,0 UV-I 0 W/m 10,8 C 11,0 C 1,6 km/h (1 Bft) 100,00 %
09.11.2015 00:16 10,9 C 99 % 1024,9 hPa 0,0 l/m 0,9 km/h (0 Bft) SW 227 0 min 0,000 mm 0,0 UV-I 0 W/m 10,7 C 10,9 C 1,6 km/h (1 Bft) 100,00 %
09.11.2015 00:17 10,9 C 99 % 1024,9 hPa 0,0 l/m 0,5 km/h (0 Bft) SW 227 0 min 0,000 mm 0,0 UV-I 0 W/m 10,7 C 10,9 C 1,6 km/h (1 Bft) 100,00 %
09.11.2015 00:18 10,9 C 99 % 1024,9 hPa 0,0 l/m 0,3 km/h (0 Bft) SW 227 0 min 0,000 mm 0,0 UV-I 0 W/m 10,7 C 10,9 C 1,6 km/h (1 Bft) 100,00 %
09.11.2015 00:19 10,9 C 99 % 1024,8 hPa 0,0 l/m 0,0 km/h (0 Bft) SW 227 0 min 0,000 mm 0,0 UV-I 0 W/m 10,7 C 10,9 C 0,0 km/h (0 Bft) 96,15 %
09.11.2015 00:20 10,9 C 99 % 1024,8 hPa 0,0 l/m 1,0 km/h (0 Bft) SW 227 0 min 0,000 mm 0,0 UV-I 0 W/m 10,7 C 10,9 C 1,6 km/h (1 Bft) 96,30 %
09.11.2015 00:21 11,0 C 99 % 1024,8 hPa 0,0 l/m 0,1 km/h (0 Bft) SW 227 0 min 0,000 mm 0,0 UV-I 0 W/m 10,8 C 11,0 C 1,6 km/h (1 Bft) 100,00 %
09.11.2015 00:22 11,0 C 99 % 1024,7 hPa 0,0 l/m 0,0 km/h (0 Bft) SW 227 0 min 0,000 mm 0,0 UV-I 0 W/m 10,8 C 11,0 C 0,0 km/h (0 Bft) 100,00 %
09.11.2015 00:23 11,0 C 99 % 1024,7 hPa 0,0 l/m 0,0 km/h (0 Bft) SW 227 0 min 0,000 mm 0,0 UV-I 0 W/m 10,8 C 11,0 C 0,0 km/h (0 Bft) 100,00 %
09.11.2015 00:24 11,0 C 99 % 1024,8 hPa 0,0 l/m 0,1 km/h (0 Bft) SW 227 0 min 0,000 mm 0,0 UV-I 0 W/m 10,8 C 11,0 C 1,6 km/h (1 Bft) 100,00 %
09.11.2015 00:25 11,0 C 99 % 1024,8 hPa 0,0 l/m 0,9 km/h (0 Bft) SW 227 0 min 0,000 mm 0,0 UV-I 0 W/m 10,8 C 11,0 C 1,6 km/h (1 Bft) 100,00 %
09.11.2015 00:26 11,1 C 99 % 1024,8 hPa 0,0 l/m 1,7 km/h (1 Bft) SW 227 0 min 0,000 mm 0,0 UV-I 0 W/m 10,9 C 11,1 C 3,2 km/h (1 Bft) 100,00 %
09.11.2015 00:27 11,1 C 99 % 1024,7 hPa 0,0 l/m 0,2 km/h (0 Bft) SW 227 0 min 0,000 mm 0,0 UV-I 0 W/m 10,9 C 11,1 C 1,6 km/h (1 Bft) 100,00 %
09.11.2015 00:28 11,1 C 99 % 1024,7 hPa 0,0 l/m 0,2 km/h (0 Bft) SW 227 0 min 0,000 mm 0,0 UV-I 0 W/m 10,9 C 11,1 C 1,6 km/h (1 Bft) 95,83 %
09.11.2015 00:29 11,1 C 99 % 1024,7 hPa 0,0 l/m 1,2 km/h (1 Bft) SW 227 0 min 0,000 mm 0,0 UV-I 0 W/m 10,9 C 11,1 C 1,6 km/h (1 Bft) 100,00 %
09.11.2015 00:30 11,1 C 99 % 1024,7 hPa 0,0 l/m 0,3 km/h (0 Bft) SW 227 0 min 0,000 mm 0,0 UV-I 0 W/m 10,9 C 11,1 C 1,6 km/h (1 Bft) 100,00 %
09.11.2015 00:31 11,1 C 99 % 1024,7 hPa 0,0 l/m 1,0 km/h (0 Bft) SW 227 0 min 0,000 mm 0,0 UV-I 0 W/m 10,9 C 11,1 C 3,2 km/h (1 Bft) 100,00 %
09.11.2015 00:32 11,1 C 99 % 1024,7 hPa 0,0 l/m 0,3 km/h (0 Bft) SW 227 0 min 0,000 mm 0,0 UV-I 0 W/m 10,9 C 11,1 C 1,6 km/h (1 Bft) 100,00 %
09.11.2015 00:33 11,1 C 99 % 1024,6 hPa 0,0 l/m 0,0 km/h (0 Bft) SW 227 0 min 0,000 mm 0,0 UV-I 0 W/m 10,9 C 11,1 C 0,0 km/h (0 Bft) 100,00 %
09.11.2015 00:34 11,1 C 99 % 1024,6 hPa 0,0 l/m 0,0 km/h (0 Bft) SW 227 0 min 0,000 mm 0,0 UV-I 0 W/m 10,9 C 11,1 C 0,0 km/h (0 Bft) 100,00 %
09.11.2015 00:35 11,1 C 99 % 1024,6 hPa 0,0 l/m 0,0 km/h (0 Bft) SW 227 0 min 0,000 mm 0,0 UV-I 0 W/m 10,9 C 11,1 C 0,0 km/h (0 Bft) 100,00 %
09.11.2015 00:36 11,1 C 99 % 1024,6 hPa 0,0 l/m 0,0 km/h (0 Bft) SW 227 0 min 0,000 mm 0,0 UV-I 0 W/m 10,9 C 11,1 C 0,0 km/h (0 Bft) 100,00 %
09.11.2015 00:37 11,1 C 99 % 1024,6 hPa 0,0 l/m 0,0 km/h (0 Bft) SW 227 0 min 0,000 mm 0,0 UV-I 0 W/m 10,9 C 11,1 C 0,0 km/h (0 Bft) 100,00 %
09.11.2015 00:38 11,1 C 99 % 1024,6 hPa 0,0 l/m 0,0 km/h (0 Bft) SW 227 0 min 0,000 mm 0,0 UV-I 0 W/m 10,9 C 11,1 C 0,0 km/h (0 Bft) 100,00 %
09.11.2015 00:39 11,1 C 99 % 1024,6 hPa 0,0 l/m 0,0 km/h (0 Bft) SW 227 0 min 0,000 mm 0,0 UV-I 0 W/m 10,9 C 11,1 C 0,0 km/h (0 Bft) 100,00 %
09.11.2015 00:40 11,1 C 99 % 1024,6 hPa 0,0 l/m 0,0 km/h (0 Bft) SW 227 0 min 0,000 mm 0,0 UV-I 0 W/m 10,9 C 11,1 C 0,0 km/h (0 Bft) 100,00 %
09.11.2015 00:41 11,1 C 99 % 1024,6 hPa 0,0 l/m 0,0 km/h (0 Bft) SW 227 0 min 0,000 mm 0,0 UV-I 0 W/m 10,9 C 11,1 C 0,0 km/h (0 Bft) 95,83 %
09.11.2015 00:42 11,1 C 99 % 1024,5 hPa 0,0 l/m 0,0 km/h (0 Bft) SW 227 0 min 0,000 mm 0,0 UV-I 0 W/m 10,9 C 11,1 C 0,0 km/h (0 Bft) 100,00 %
09.11.2015 00:43 11,1 C 99 % 1024,5 hPa 0,0 l/m 0,0 km/h (0 Bft) SW 227 0 min 0,000 mm 0,0 UV-I 0 W/m 10,9 C 11,1 C 0,0 km/h (0 Bft) 100,00 %
09.11.2015 00:44 11,1 C 99 % 1024,5 hPa 0,0 l/m 0,0 km/h (0 Bft) SW 227 0 min 0,000 mm 0,0 UV-I 0 W/m 10,9 C 11,1 C 0,0 km/h (0 Bft) 95,65 %
09.11.2015 00:45 11,1 C 99 % 1024,5 hPa 0,0 l/m 0,0 km/h (0 Bft) SW 227 0 min 0,000 mm 0,0 UV-I 0 W/m 10,9 C 11,1 C 0,0 km/h (0 Bft) 100,00 %
09.11.2015 00:46 11,1 C 99 % 1024,5 hPa 0,0 l/m 0,0 km/h (0 Bft) SW 227 0 min 0,000 mm 0,0 UV-I 0 W/m 10,9 C 11,1 C 0,0 km/h (0 Bft) 100,00 %
09.11.2015 00:47 11,1 C 99 % 1024,5 hPa 0,0 l/m 0,0 km/h (0 Bft) SW 227 0 min 0,000 mm 0,0 UV-I 0 W/m 10,9 C 11,1 C 0,0 km/h (0 Bft) 100,00 %
09.11.2015 00:48 11,1 C 99 % 1024,4 hPa 0,0 l/m 0,0 km/h (0 Bft) SW 227 0 min 0,000 mm 0,0 UV-I 0 W/m 10,9 C 11,1 C 0,0 km/h (0 Bft) 100,00 %
09.11.2015 00:49 11,1 C 99 % 1024,4 hPa 0,0 l/m 0,0 km/h (0 Bft) SW 227 0 min 0,000 mm 0,0 UV-I 0 W/m 10,9 C 11,1 C 0,0 km/h (0 Bft) 100,00 %
09.11.2015 00:50 11,1 C 99 % 1024,6 hPa 0,0 l/m 0,0 km/h (0 Bft) SW 227 0 min 0,000 mm 0,0 UV-I 0 W/m 10,9 C 11,1 C 0,0 km/h (0 Bft) 100,00 %
09.11.2015 00:51 11,1 C 99 % 1024,4 hPa 0,0 l/m 0,0 km/h (0 Bft) SW 227 0 min 0,000 mm 0,0 UV-I 0 W/m 10,9 C 11,1 C 0,0 km/h (0 Bft) 100,00 %
09.11.2015 00:52 11,1 C 99 % 1024,5 hPa 0,0 l/m 0,0 km/h (0 Bft) SW 227 0 min 0,000 mm 0,0 UV-I 0 W/m 10,9 C 11,1 C 0,0 km/h (0 Bft) 100,00 %
09.11.2015 00:53 11,1 C 99 % 1024,5 hPa 0,0 l/m 0,0 km/h (0 Bft) SW 227 0 min 0,000 mm 0,0 UV-I 0 W/m 10,9 C 11,1 C 0,0 km/h (0 Bft) 100,00 %
09.11.2015 00:54 11,1 C 99 % 1024,5 hPa 0,0 l/m 0,0 km/h (0 Bft) SW 227 0 min 0,000 mm 0,0 UV-I 0 W/m 10,9 C 11,1 C 0,0 km/h (0 Bft) 95,83 %
09.11.2015 00:55 11,1 C 99 % 1024,5 hPa 0,0 l/m 0,0 km/h (0 Bft) SW 227 0 min 0,000 mm 0,0 UV-I 0 W/m 10,9 C 11,1 C 0,0 km/h (0 Bft) 100,00 %
09.11.2015 00:56 11,1 C 99 % 1024,5 hPa 0,0 l/m 0,0 km/h (0 Bft) SW 227 0 min 0,000 mm 0,0 UV-I 0 W/m 10,9 C 11,1 C 0,0 km/h (0 Bft) 100,00 %
09.11.2015 00:57 11,1 C 99 % 1024,4 hPa 0,0 l/m 0,0 km/h (0 Bft) SW 227 0 min 0,000 mm 0,0 UV-I 0 W/m 10,9 C 11,1 C 0,0 km/h (0 Bft) 100,00 %
09.11.2015 00:58 11,1 C 99 % 1024,4 hPa 0,0 l/m 0,0 km/h (0 Bft) SW 227 0 min 0,000 mm 0,0 UV-I 0 W/m 10,9 C 11,1 C 0,0 km/h (0 Bft) 100,00 %
09.11.2015 00:59 11,0 C 99 % 1024,4 hPa 0,0 l/m 0,0 km/h (0 Bft) SW 227 0 min 0,000 mm 0,0 UV-I 0 W/m 10,8 C 11,0 C 0,0 km/h (0 Bft) 100,00 %
09.11.2015 01:00 10,9 C 99 % 1024,4 hPa 0,0 l/m 0,0 km/h (0 Bft) SW 227 0 min 0,000 mm 0,0 UV-I 0 W/m 10,7 C 10,9 C 0,0 km/h (0 Bft) 100,00 %
09.11.2015 01:01 10,9 C 99 % 1024,4 hPa 0,0 l/m 0,0 km/h (0 Bft) SW 227 0 min 0,000 mm 0,0 UV-I 0 W/m 10,7 C 10,9 C 0,0 km/h (0 Bft) 100,00 %
09.11.2015 01:02 10,9 C 99 % 1024,4 hPa 0,0 l/m 0,0 km/h (0 Bft) SW 227 0 min 0,000 mm 0,0 UV-I 0 W/m 10,7 C 10,9 C 0,0 km/h (0 Bft) 100,00 %
09.11.2015 01:03 10,9 C 99 % 1024,4 hPa 0,0 l/m 0,0 km/h (0 Bft) SW 227 0 min 0,000 mm 0,0 UV-I 0 W/m 10,7 C 10,9 C 0,0 km/h (0 Bft) 100,00 %
09.11.2015 01:04 10,9 C 99 % 1024,4 hPa 0,0 l/m 0,0 km/h (0 Bft) SW 227 0 min 0,000 mm 0,0 UV-I 0 W/m 10,7 C 10,9 C 0,0 km/h (0 Bft) 95,83 %
09.11.2015 01:05 10,8 C 99 % 1024,4 hPa 0,0 l/m 0,0 km/h (0 Bft) SW 227 0 min 0,000 mm 0,0 UV-I 0 W/m 10,6 C 10,8 C 0,0 km/h (0 Bft) 95,65 %
09.11.2015 01:06 10,8 C 99 % 1024,4 hPa 0,0 l/m 0,0 km/h (0 Bft) SW 227 0 min 0,000 mm 0,0 UV-I 0 W/m 10,6 C 10,8 C 0,0 km/h (0 Bft) 95,83 %
09.11.2015 01:07 10,8 C 99 % 1024,4 hPa 0,0 l/m 0,0 km/h (0 Bft) SW 227 0 min 0,000 mm 0,0 UV-I 0 W/m 10,6 C 10,8 C 0,0 km/h (0 Bft) 100,00 %
09.11.2015 01:08 10,8 C 99 % 1024,5 hPa 0,0 l/m 0,0 km/h (0 Bft) SW 227 0 min 0,000 mm 0,0 UV-I 0 W/m 10,6 C 10,8 C 0,0 km/h (0 Bft) 100,00 %
09.11.2015 01:09 10,8 C 99 % 1024,4 hPa 0,0 l/m 0,0 km/h (0 Bft) SW 227 0 min 0,000 mm 0,0 UV-I 0 W/m 10,6 C 10,8 C 0,0 km/h (0 Bft) 100,00 %
09.11.2015 01:10 10,8 C 99 % 1024,4 hPa 0,0 l/m 0,0 km/h (0 Bft) SW 227 0 min 0,000 mm 0,0 UV-I 0 W/m 10,6 C 10,8 C 0,0 km/h (0 Bft) 100,00 %
09.11.2015 01:11 10,8 C 99 % 1024,4 hPa 0,0 l/m 0,0 km/h (0 Bft) SW 227 0 min 0,000 mm 0,0 UV-I 0 W/m 10,6 C 10,8 C 0,0 km/h (0 Bft) 100,00 %
09.11.2015 01:12 10,8 C 99 % 1024,4 hPa 0,0 l/m 0,0 km/h (0 Bft) SW 227 0 min 0,000 mm 0,0 UV-I 0 W/m 10,6 C 10,8 C 0,0 km/h (0 Bft) 95,65 %
09.11.2015 01:13 10,8 C 99 % 1024,4 hPa 0,0 l/m 0,0 km/h (0 Bft) SW 227 0 min 0,000 mm 0,0 UV-I 0 W/m 10,6 C 10,8 C 0,0 km/h (0 Bft) 100,00 %
09.11.2015 01:14 10,8 C 99 % 1024,4 hPa 0,0 l/m 0,0 km/h (0 Bft) SW 227 0 min 0,000 mm 0,0 UV-I 0 W/m 10,6 C 10,8 C 0,0 km/h (0 Bft) 100,00 %
09.11.2015 01:15 10,9 C 99 % 1024,4 hPa 0,0 l/m 0,0 km/h (0 Bft) SW 227 0 min 0,000 mm 0,0 UV-I 0 W/m 10,7 C 10,9 C 0,0 km/h (0 Bft) 100,00 %
09.11.2015 01:16 10,9 C 99 % 1024,4 hPa 0,0 l/m 0,0 km/h (0 Bft) SW 227 0 min 0,000 mm 0,0 UV-I 0 W/m 10,7 C 10,9 C 0,0 km/h (0 Bft) 100,00 %
09.11.2015 01:17 10,9 C 99 % 1024,4 hPa 0,0 l/m 0,0 km/h (0 Bft) SW 227 0 min 0,000 mm 0,0 UV-I 0 W/m 10,7 C 10,9 C 0,0 km/h (0 Bft) 100,00 %
09.11.2015 01:18 10,9 C 99 % 1024,4 hPa 0,0 l/m 0,2 km/h (0 Bft) SW 227 0 min 0,000 mm 0,0 UV-I 0 W/m 10,7 C 10,9 C 1,6 km/h (1 Bft) 100,00 %
09.11.2015 01:19 10,9 C 99 % 1024,4 hPa 0,0 l/m 0,1 km/h (0 Bft) SW 227 0 min 0,000 mm 0,0 UV-I 0 W/m 10,7 C 10,9 C 1,6 km/h (1 Bft) 95,83 %
09.11.2015 01:20 10,9 C 99 % 1024,4 hPa 0,0 l/m 0,0 km/h (0 Bft) SW 227 0 min 0,000 mm 0,0 UV-I 0 W/m 10,7 C 10,9 C 0,0 km/h (0 Bft) 100,00 %
09.11.2015 01:21 10,9 C 99 % 1024,4 hPa 0,0 l/m 1,0 km/h (0 Bft) SW 227 0 min 0,000 mm 0,0 UV-I 0 W/m 10,7 C 10,9 C 3,2 km/h (1 Bft) 100,00 %
09.11.2015 01:22 10,9 C 99 % 1024,4 hPa 0,0 l/m 1,1 km/h (1 Bft) SW 227 0 min 0,000 mm 0,0 UV-I 0 W/m 10,7 C 10,9 C 3,2 km/h (1 Bft) 100,00 %
09.11.2015 01:23 11,0 C 99 % 1024,3 hPa 0,0 l/m 1,9 km/h (1 Bft) SW 228 0 min 0,000 mm 0,0 UV-I 0 W/m 10,8 C 11,0 C 3,2 km/h (1 Bft) 100,00 %
09.11.2015 01:24 11,0 C 99 % 1024,3 hPa 0,0 l/m 2,0 km/h (1 Bft) SW 228 0 min 0,000 mm 0,0 UV-I 0 W/m 10,8 C 11,0 C 3,2 km/h (1 Bft) 100,00 %
09.11.2015 01:25 11,0 C 99 % 1024,3 hPa 0,0 l/m 0,5 km/h (0 Bft) SW 228 0 min 0,000 mm 0,0 UV-I 0 W/m 10,8 C 11,0 C 1,6 km/h (1 Bft) 100,00 %
09.11.2015 01:26 11,0 C 99 % 1024,3 hPa 0,0 l/m 1,5 km/h (1 Bft) SW 228 0 min 0,000 mm 0,0 UV-I 0 W/m 10,8 C 11,0 C 3,2 km/h (1 Bft) 100,00 %
09.11.2015 01:27 11,0 C 99 % 1024,3 hPa 0,0 l/m 1,3 km/h (1 Bft) SW 228 0 min 0,000 mm 0,0 UV-I 0 W/m 10,8 C 11,0 C 1,6 km/h (1 Bft) 100,00 %
09.11.2015 01:28 11,0 C 99 % 1024,3 hPa 0,0 l/m 1,0 km/h (0 Bft) SW 228 0 min 0,000 mm 0,0 UV-I 0 W/m 10,8 C 11,0 C 1,6 km/h (1 Bft) 100,00 %
09.11.2015 01:29 11,0 C 99 % 1024,3 hPa 0,0 l/m 1,4 km/h (1 Bft) SW 228 0 min 0,000 mm 0,0 UV-I 0 W/m 10,8 C 11,0 C 1,6 km/h (1 Bft) 100,00 %
09.11.2015 01:30 11,0 C 99 % 1024,3 hPa 0,0 l/m 1,4 km/h (1 Bft) SW 228 0 min 0,000 mm 0,0 UV-I 0 W/m 10,8 C 11,0 C 1,6 km/h (1 Bft) 100,00 %
09.11.2015 01:31 11,0 C 99 % 1024,3 hPa 0,0 l/m 0,4 km/h (0 Bft) SW 228 0 min 0,000 mm 0,0 UV-I 0 W/m 10,8 C 11,0 C 1,6 km/h (1 Bft) 96,15 %
09.11.2015 01:32 11,0 C 99 % 1024,3 hPa 0,0 l/m 0,8 km/h (0 Bft) SW 228 0 min 0,000 mm 0,0 UV-I 0 W/m 10,8 C 11,0 C 1,6 km/h (1 Bft) 95,83 %
09.11.2015 01:33 11,0 C 99 % 1024,3 hPa 0,0 l/m 2,1 km/h (1 Bft) SW 228 0 min 0,000 mm 0,0 UV-I 0 W/m 10,8 C 11,0 C 3,2 km/h (1 Bft) 100,00 %
09.11.2015 01:34 11,0 C 99 % 1024,3 hPa 0,0 l/m 1,6 km/h (1 Bft) SW 228 0 min 0,000 mm 0,0 UV-I 0 W/m 10,8 C 11,0 C 3,2 km/h (1 Bft) 100,00 %
09.11.2015 01:35 11,0 C 99 % 1024,3 hPa 0,0 l/m 2,3 km/h (1 Bft) SW 228 0 min 0,000 mm 0,0 UV-I 0 W/m 10,8 C 11,0 C 3,2 km/h (1 Bft) 100,00 %
09.11.2015 01:36 11,0 C 99 % 1024,3 hPa 0,0 l/m 2,3 km/h (1 Bft) SW 232 0 min 0,000 mm 0,0 UV-I 0 W/m 10,8 C 11,0 C 3,2 km/h (1 Bft) 100,00 %
09.11.2015 01:37 11,0 C 99 % 1024,3 hPa 0,0 l/m 1,8 km/h (1 Bft) SW 232 0 min 0,000 mm 0,0 UV-I 0 W/m 10,8 C 11,0 C 3,2 km/h (1 Bft) 100,00 %
09.11.2015 01:38 11,0 C 99 % 1024,3 hPa 0,0 l/m 1,7 km/h (1 Bft) SW 232 0 min 0,000 mm 0,0 UV-I 0 W/m 10,8 C 11,0 C 3,2 km/h (1 Bft) 100,00 %
09.11.2015 01:39 11,0 C 99 % 1024,3 hPa 0,0 l/m 1,4 km/h (1 Bft) SW 232 0 min 0,000 mm 0,0 UV-I 0 W/m 10,8 C 11,0 C 3,2 km/h (1 Bft) 100,00 %
09.11.2015 01:40 10,9 C 99 % 1024,3 hPa 0,0 l/m 1,9 km/h (1 Bft) SW 232 0 min 0,000 mm 0,0 UV-I 0 W/m 10,7 C 10,9 C 3,2 km/h (1 Bft) 100,00 %
09.11.2015 01:41 10,9 C 99 % 1024,3 hPa 0,0 l/m 1,6 km/h (1 Bft) SW 232 0 min 0,000 mm 0,0 UV-I 0 W/m 10,7 C 10,9 C 1,6 km/h (1 Bft) 100,00 %
09.11.2015 01:42 10,9 C 99 % 1024,3 hPa 0,0 l/m 1,3 km/h (1 Bft) SW 232 0 min 0,000 mm 0,0 UV-I 0 W/m 10,7 C 10,9 C 1,6 km/h (1 Bft) 100,00 %
09.11.2015 01:43 10,9 C 99 % 1024,3 hPa 0,0 l/m 3,1 km/h (1 Bft) SW 220 0 min 0,000 mm 0,0 UV-I 0 W/m 10,7 C 10,9 C 4,8 km/h (1 Bft) 100,00 %
09.11.2015 01:44 10,9 C 99 % 1024,3 hPa 0,0 l/m 3,0 km/h (1 Bft) W-SW 239 0 min 0,000 mm 0,0 UV-I 0 W/m 10,7 C 10,9 C 4,8 km/h (1 Bft) 95,83 %
09.11.2015 01:45 10,9 C 99 % 1024,3 hPa 0,0 l/m 2,5 km/h (1 Bft) W-SW 237 0 min 0,000 mm 0,0 UV-I 0 W/m 10,7 C 10,9 C 3,2 km/h (1 Bft) 100,00 %
09.11.2015 01:46 10,9 C 99 % 1024,3 hPa 0,0 l/m 1,9 km/h (1 Bft) W-SW 237 0 min 0,000 mm 0,0 UV-I 0 W/m 10,7 C 10,9 C 3,2 km/h (1 Bft) 100,00 %
09.11.2015 01:47 10,9 C 99 % 1024,3 hPa 0,0 l/m 2,0 km/h (1 Bft) W-SW 237 0 min 0,000 mm 0,0 UV-I 0 W/m 10,7 C 10,9 C 3,2 km/h (1 Bft) 100,00 %
09.11.2015 01:48 10,9 C 99 % 1024,3 hPa 0,0 l/m 1,3 km/h (1 Bft) W-SW 237 0 min 0,000 mm 0,0 UV-I 0 W/m 10,7 C 10,9 C 1,6 km/h (1 Bft) 95,65 %
09.11.2015 01:49 10,9 C 99 % 1024,3 hPa 0,0 l/m 0,9 km/h (0 Bft) W-SW 237 0 min 0,000 mm 0,0 UV-I 0 W/m 10,7 C 10,9 C 1,6 km/h (1 Bft) 100,00 %
09.11.2015 01:50 10,9 C 99 % 1024,3 hPa 0,0 l/m 2,3 km/h (1 Bft) SW 236 0 min 0,000 mm 0,0 UV-I 0 W/m 10,7 C 10,9 C 3,2 km/h (1 Bft) 100,00 %
09.11.2015 01:51 10,9 C 99 % 1024,3 hPa 0,0 l/m 2,0 km/h (1 Bft) SW 236 0 min 0,000 mm 0,0 UV-I 0 W/m 10,7 C 10,9 C 3,2 km/h (1 Bft) 100,00 %
09.11.2015 01:52 10,9 C 99 % 1024,3 hPa 0,0 l/m 1,8 km/h (1 Bft) SW 221 0 min 0,000 mm 0,0 UV-I 0 W/m 10,7 C 10,9 C 3,2 km/h (1 Bft) 95,65 %
09.11.2015 01:53 10,9 C 99 % 1024,3 hPa 0,0 l/m 1,5 km/h (1 Bft) SW 221 0 min 0,000 mm 0,0 UV-I 0 W/m 10,7 C 10,9 C 3,2 km/h (1 Bft) 100,00 %
09.11.2015 01:54 10,9 C 99 % 1024,3 hPa 0,0 l/m 0,8 km/h (0 Bft) SW 221 0 min 0,000 mm 0,0 UV-I 0 W/m 10,7 C 10,9 C 1,6 km/h (1 Bft) 100,00 %
09.11.2015 01:55 10,9 C 99 % 1024,3 hPa 0,0 l/m 0,8 km/h (0 Bft) SW 221 0 min 0,000 mm 0,0 UV-I 0 W/m 10,7 C 10,9 C 1,6 km/h (1 Bft) 100,00 %
09.11.2015 01:56 10,9 C 99 % 1024,3 hPa 0,0 l/m 0,3 km/h (0 Bft) SW 221 0 min 0,000 mm 0,0 UV-I 0 W/m 10,7 C 10,9 C 1,6 km/h (1 Bft) 100,00 %
09.11.2015 01:57 10,9 C 99 % 1024,3 hPa 0,0 l/m 1,9 km/h (1 Bft) SW 221 0 min 0,000 mm 0,0 UV-I 0 W/m 10,7 C 10,9 C 3,2 km/h (1 Bft) 100,00 %
09.11.2015 01:58 10,9 C 99 % 1024,3 hPa 0,0 l/m 0,9 km/h (0 Bft) SW 221 0 min 0,000 mm 0,0 UV-I 0 W/m 10,7 C 10,9 C 1,6 km/h (1 Bft) 100,00 %
09.11.2015 01:59 10,9 C 99 % 1024,2 hPa 0,0 l/m 0,7 km/h (0 Bft) SW 221 0 min 0,000 mm 0,0 UV-I 0 W/m 10,7 C 10,9 C 1,6 km/h (1 Bft) 100,00 %
09.11.2015 02:00 10,9 C 99 % 1024,3 hPa 0,0 l/m 1,4 km/h (1 Bft) SW 223 0 min 0,000 mm 0,0 UV-I 0 W/m 10,7 C 10,9 C 3,2 km/h (1 Bft) 100,00 %
09.11.2015 02:01 10,9 C 99 % 1024,2 hPa 0,0 l/m 0,0 km/h (0 Bft) SW 223 0 min 0,000 mm 0,0 UV-I 0 W/m 10,7 C 10,9 C 0,0 km/h (0 Bft) 100,00 %
09.11.2015 02:02 10,9 C 99 % 1024,2 hPa 0,0 l/m 0,0 km/h (0 Bft) SW 223 0 min 0,000 mm 0,0 UV-I 0 W/m 10,7 C 10,9 C 0,0 km/h (0 Bft) 100,00 %
09.11.2015 02:03 10,9 C 99 % 1024,2 hPa 0,0 l/m 0,0 km/h (0 Bft) SW 223 0 min 0,000 mm 0,0 UV-I 0 W/m 10,7 C 10,9 C 0,0 km/h (0 Bft) 100,00 %
09.11.2015 02:04 10,9 C 99 % 1024,2 hPa 0,0 l/m 0,0 km/h (0 Bft) SW 223 0 min 0,000 mm 0,0 UV-I 0 W/m 10,7 C 10,9 C 0,0 km/h (0 Bft) 100,00 %
09.11.2015 02:05 10,9 C 99 % 1024,2 hPa 0,0 l/m 0,0 km/h (0 Bft) SW 223 0 min 0,000 mm 0,0 UV-I 0 W/m 10,7 C 10,9 C 0,0 km/h (0 Bft) 100,00 %
09.11.2015 02:06 10,9 C 99 % 1024,2 hPa 0,0 l/m 0,2 km/h (0 Bft) SW 223 0 min 0,000 mm 0,0 UV-I 0 W/m 10,7 C 10,9 C 1,6 km/h (1 Bft) 100,00 %
09.11.2015 02:07 10,9 C 99 % 1024,2 hPa 0,0 l/m 0,6 km/h (0 Bft) SW 223 0 min 0,000 mm 0,0 UV-I 0 W/m 10,7 C 10,9 C 1,6 km/h (1 Bft) 100,00 %
09.11.2015 02:08 10,9 C 99 % 1024,3 hPa 0,0 l/m 0,4 km/h (0 Bft) SW 223 0 min 0,000 mm 0,0 UV-I 0 W/m 10,7 C 10,9 C 1,6 km/h (1 Bft) 100,00 %
09.11.2015 02:09 10,8 C 99 % 1024,2 hPa 0,0 l/m 0,0 km/h (0 Bft) SW 223 0 min 0,000 mm 0,0 UV-I 0 W/m 10,6 C 10,8 C 0,0 km/h (0 Bft) 100,00 %
09.11.2015 02:10 10,8 C 99 % 1024,2 hPa 0,0 l/m 0,0 km/h (0 Bft) SW 223 0 min 0,000 mm 0,0 UV-I 0 W/m 10,6 C 10,8 C 0,0 km/h (0 Bft) 95,83 %
09.11.2015 02:11 10,8 C 99 % 1024,2 hPa 0,0 l/m 0,0 km/h (0 Bft) SW 223 0 min 0,000 mm 0,0 UV-I 0 W/m 10,6 C 10,8 C 0,0 km/h (0 Bft) 100,00 %
09.11.2015 02:12 10,8 C 99 % 1024,2 hPa 0,0 l/m 0,0 km/h (0 Bft) SW 223 0 min 0,000 mm 0,0 UV-I 0 W/m 10,6 C 10,8 C 0,0 km/h (0 Bft) 95,83 %
09.11.2015 02:13 10,8 C 99 % 1024,2 hPa 0,0 l/m 0,0 km/h (0 Bft) SW 223 0 min 0,000 mm 0,0 UV-I 0 W/m 10,6 C 10,8 C 0,0 km/h (0 Bft) 100,00 %
09.11.2015 02:14 10,8 C 99 % 1024,2 hPa 0,0 l/m 0,0 km/h (0 Bft) SW 223 0 min 0,000 mm 0,0 UV-I 0 W/m 10,6 C 10,8 C 0,0 km/h (0 Bft) 100,00 %
09.11.2015 02:15 10,8 C 99 % 1024,2 hPa 0,0 l/m 0,2 km/h (0 Bft) SW 223 0 min 0,000 mm 0,0 UV-I 0 W/m 10,6 C 10,8 C 1,6 km/h (1 Bft) 100,00 %
09.11.2015 02:16 10,8 C 99 % 1024,2 hPa 0,0 l/m 1,5 km/h (1 Bft) S 185 0 min 0,000 mm 0,0 UV-I 0 W/m 10,6 C 10,8 C 3,2 km/h (1 Bft) 100,00 %
09.11.2015 02:17 10,8 C 99 % 1024,2 hPa 0,0 l/m 2,3 km/h (1 Bft) S 185 0 min 0,000 mm 0,0 UV-I 0 W/m 10,6 C 10,8 C 3,2 km/h (1 Bft) 100,00 %
09.11.2015 02:18 10,8 C 99 % 1024,2 hPa 0,0 l/m 0,6 km/h (0 Bft) S 185 0 min 0,000 mm 0,0 UV-I 0 W/m 10,6 C 10,8 C 1,6 km/h (1 Bft) 100,00 %
09.11.2015 02:19 10,8 C 99 % 1024,2 hPa 0,0 l/m 0,1 km/h (0 Bft) S 185 0 min 0,000 mm 0,0 UV-I 0 W/m 10,6 C 10,8 C 1,6 km/h (1 Bft) 100,00 %
09.11.2015 02:20 10,8 C 99 % 1024,2 hPa 0,0 l/m 0,0 km/h (0 Bft) S 185 0 min 0,000 mm 0,0 UV-I 0 W/m 10,6 C 10,8 C 0,0 km/h (0 Bft) 100,00 %
09.11.2015 02:21 10,8 C 99 % 1024,2 hPa 0,0 l/m 0,0 km/h (0 Bft) S 185 0 min 0,000 mm 0,0 UV-I 0 W/m 10,6 C 10,8 C 0,0 km/h (0 Bft) 100,00 %
09.11.2015 02:22 10,8 C 99 % 1024,3 hPa 0,0 l/m 0,7 km/h (0 Bft) S 185 0 min 0,000 mm 0,0 UV-I 0 W/m 10,6 C 10,8 C 1,6 km/h (1 Bft) 100,00 %
09.11.2015 02:23 10,8 C 99 % 1024,3 hPa 0,0 l/m 0,1 km/h (0 Bft) S 185 0 min 0,000 mm 0,0 UV-I 0 W/m 10,6 C 10,8 C 1,6 km/h (1 Bft) 100,00 %
09.11.2015 02:24 10,8 C 99 % 1024,3 hPa 0,0 l/m 1,2 km/h (1 Bft) S 185 0 min 0,000 mm 0,0 UV-I 0 W/m 10,6 C 10,8 C 3,2 km/h (1 Bft) 95,83 %
09.11.2015 02:25 10,8 C 99 % 1024,3 hPa 0,0 l/m 0,6 km/h (0 Bft) S 186 0 min 0,000 mm 0,0 UV-I 0 W/m 10,6 C 10,8 C 1,6 km/h (1 Bft) 95,83 %
09.11.2015 02:26 10,8 C 99 % 1024,3 hPa 0,0 l/m 0,4 km/h (0 Bft) S 186 0 min 0,000 mm 0,0 UV-I 0 W/m 10,6 C 10,8 C 1,6 km/h (1 Bft) 100,00 %
09.11.2015 02:27 10,8 C 99 % 1024,3 hPa 0,0 l/m 0,1 km/h (0 Bft) S 186 0 min 0,000 mm 0,0 UV-I 0 W/m 10,6 C 10,8 C 1,6 km/h (1 Bft) 95,83 %
09.11.2015 02:28 10,8 C 99 % 1024,3 hPa 0,0 l/m 0,5 km/h (0 Bft) S 186 0 min 0,000 mm 0,0 UV-I 0 W/m 10,6 C 10,8 C 1,6 km/h (1 Bft) 100,00 %
09.11.2015 02:29 10,8 C 99 % 1024,3 hPa 0,0 l/m 1,2 km/h (1 Bft) SW 216 0 min 0,000 mm 0,0 UV-I 0 W/m 10,6 C 10,8 C 3,2 km/h (1 Bft) 100,00 %
09.11.2015 02:30 10,8 C 99 % 1024,2 hPa 0,0 l/m 2,5 km/h (1 Bft) SW 215 0 min 0,000 mm 0,0 UV-I 0 W/m 10,6 C 10,8 C 4,8 km/h (1 Bft) 100,00 %
09.11.2015 02:31 10,8 C 99 % 1024,2 hPa 0,0 l/m 1,7 km/h (1 Bft) S-SW 202 0 min 0,000 mm 0,0 UV-I 0 W/m 10,6 C 10,8 C 3,2 km/h (1 Bft) 100,00 %
09.11.2015 02:32 10,8 C 99 % 1024,2 hPa 0,0 l/m 2,7 km/h (1 Bft) S-SW 213 0 min 0,000 mm 0,0 UV-I 0 W/m 10,6 C 10,8 C 4,8 km/h (1 Bft) 100,00 %
09.11.2015 02:33 10,8 C 99 % 1024,2 hPa 0,0 l/m 3,1 km/h (1 Bft) SW 226 0 min 0,000 mm 0,0 UV-I 0 W/m 10,6 C 10,8 C 4,8 km/h (1 Bft) 92,59 %
09.11.2015 02:34 10,8 C 99 % 1024,2 hPa 0,0 l/m 2,3 km/h (1 Bft) SW 229 0 min 0,000 mm 0,0 UV-I 0 W/m 10,6 C 10,8 C 3,2 km/h (1 Bft) 100,00 %
09.11.2015 02:35 10,8 C 99 % 1024,2 hPa 0,0 l/m 1,9 km/h (1 Bft) SW 215 0 min 0,000 mm 0,0 UV-I 0 W/m 10,6 C 10,8 C 3,2 km/h (1 Bft) 100,00 %
09.11.2015 02:36 10,8 C 99 % 1024,2 hPa 0,0 l/m 1,7 km/h (1 Bft) SW 215 0 min 0,000 mm 0,0 UV-I 0 W/m 10,6 C 10,8 C 4,8 km/h (1 Bft) 100,00 %
09.11.2015 02:37 10,8 C 99 % 1024,1 hPa 0,0 l/m 3,2 km/h (1 Bft) W-SW 242 0 min 0,000 mm 0,0 UV-I 0 W/m 10,6 C 10,8 C 4,8 km/h (1 Bft) 100,00 %
09.11.2015 02:38 10,8 C 99 % 1024,2 hPa 0,0 l/m 1,7 km/h (1 Bft) W-SW 244 0 min 0,000 mm 0,0 UV-I 0 W/m 10,6 C 10,8 C 3,2 km/h (1 Bft) 100,00 %
09.11.2015 02:39 10,8 C 99 % 1024,2 hPa 0,0 l/m 0,7 km/h (0 Bft) W-SW 244 0 min 0,000 mm 0,0 UV-I 0 W/m 10,6 C 10,8 C 1,6 km/h (1 Bft) 100,00 %
09.11.2015 02:40 10,8 C 99 % 1024,2 hPa 0,0 l/m 0,3 km/h (0 Bft) W-SW 244 0 min 0,000 mm 0,0 UV-I 0 W/m 10,6 C 10,8 C 1,6 km/h (1 Bft) 100,00 %
09.11.2015 02:41 10,8 C 99 % 1024,2 hPa 0,0 l/m 0,9 km/h (0 Bft) W 259 0 min 0,000 mm 0,0 UV-I 0 W/m 10,6 C 10,8 C 3,2 km/h (1 Bft) 100,00 %
09.11.2015 02:42 10,8 C 99 % 1024,2 hPa 0,0 l/m 1,6 km/h (1 Bft) W 259 0 min 0,000 mm 0,0 UV-I 0 W/m 10,6 C 10,8 C 3,2 km/h (1 Bft) 100,00 %
09.11.2015 02:43 10,8 C 99 % 1024,2 hPa 0,0 l/m 0,9 km/h (0 Bft) W 259 0 min 0,000 mm 0,0 UV-I 0 W/m 10,6 C 10,8 C 3,2 km/h (1 Bft) 100,00 %
09.11.2015 02:44 10,8 C 99 % 1024,2 hPa 0,0 l/m 1,1 km/h (1 Bft) W 259 0 min 0,000 mm 0,0 UV-I 0 W/m 10,6 C 10,8 C 1,6 km/h (1 Bft) 95,65 %
09.11.2015 02:45 10,7 C 99 % 1024,2 hPa 0,0 l/m 1,9 km/h (1 Bft) SW 215 0 min 0,000 mm 0,0 UV-I 0 W/m 10,5 C 10,7 C 3,2 km/h (1 Bft) 100,00 %
09.11.2015 02:46 10,7 C 99 % 1024,1 hPa 0,0 l/m 2,2 km/h (1 Bft) SW 219 0 min 0,000 mm 0,0 UV-I 0 W/m 10,5 C 10,7 C 4,8 km/h (1 Bft) 100,00 %
09.11.2015 02:47 10,7 C 99 % 1024,2 hPa 0,0 l/m 3,2 km/h (1 Bft) W-SW 245 0 min 0,000 mm 0,0 UV-I 0 W/m 10,5 C 10,7 C 4,8 km/h (1 Bft) 100,00 %
09.11.2015 02:48 10,7 C 99 % 1024,1 hPa 0,0 l/m 2,0 km/h (1 Bft) W-SW 245 0 min 0,000 mm 0,0 UV-I 0 W/m 10,5 C 10,7 C 3,2 km/h (1 Bft) 100,00 %
09.11.2015 02:49 10,7 C 99 % 1024,1 hPa 0,0 l/m 2,3 km/h (1 Bft) SW 221 0 min 0,000 mm 0,0 UV-I 0 W/m 10,5 C 10,7 C 4,8 km/h (1 Bft) 95,65 %
09.11.2015 02:50 10,7 C 99 % 1024,1 hPa 0,0 l/m 1,4 km/h (1 Bft) SW 221 0 min 0,000 mm 0,0 UV-I 0 W/m 10,5 C 10,7 C 3,2 km/h (1 Bft) 95,83 %
09.11.2015 02:51 10,7 C 99 % 1024,1 hPa 0,0 l/m 1,9 km/h (1 Bft) W-SW 246 0 min 0,000 mm 0,0 UV-I 0 W/m 10,5 C 10,7 C 4,8 km/h (1 Bft) 100,00 %
09.11.2015 02:52 10,7 C 99 % 1024,1 hPa 0,0 l/m 4,2 km/h (1 Bft) SW 225 0 min 0,000 mm 0,0 UV-I 0 W/m 10,5 C 10,7 C 6,4 km/h (2 Bft) 95,83 %
09.11.2015 02:53 10,7 C 99 % 1024,0 hPa 0,0 l/m 4,4 km/h (1 Bft) S 189 0 min 0,000 mm 0,0 UV-I 0 W/m 10,5 C 10,7 C 6,4 km/h (2 Bft) 96,15 %
09.11.2015 02:54 10,7 C 99 % 1024,0 hPa 0,0 l/m 2,5 km/h (1 Bft) SW 219 0 min 0,000 mm 0,0 UV-I 0 W/m 10,5 C 10,7 C 4,8 km/h (1 Bft) 100,00 %
09.11.2015 02:55 10,6 C 99 % 1024,0 hPa 0,0 l/m 2,3 km/h (1 Bft) SW 223 0 min 0,000 mm 0,0 UV-I 0 W/m 10,4 C 10,6 C 3,2 km/h (1 Bft) 100,00 %
09.11.2015 02:56 10,6 C 99 % 1024,0 hPa 0,0 l/m 4,3 km/h (1 Bft) SW 214 0 min 0,000 mm 0,0 UV-I 0 W/m 10,4 C 10,6 C 4,8 km/h (1 Bft) 95,83 %
09.11.2015 02:57 10,6 C 99 % 1024,0 hPa 0,0 l/m 2,8 km/h (1 Bft) S-SW 207 0 min 0,000 mm 0,0 UV-I 0 W/m 10,4 C 10,6 C 4,8 km/h (1 Bft) 95,65 %
09.11.2015 02:58 10,6 C 99 % 1023,9 hPa 0,0 l/m 3,3 km/h (1 Bft) SW 220 0 min 0,000 mm 0,0 UV-I 0 W/m 10,4 C 10,6 C 4,8 km/h (1 Bft) 100,00 %
09.11.2015 02:59 10,6 C 99 % 1024,0 hPa 0,0 l/m 3,3 km/h (1 Bft) S-SW 211 0 min 0,000 mm 0,0 UV-I 0 W/m 10,4 C 10,6 C 4,8 km/h (1 Bft) 100,00 %
09.11.2015 03:00 10,5 C 99 % 1023,9 hPa 0,0 l/m 5,6 km/h (1 Bft) SW 231 0 min 0,000 mm 0,0 UV-I 0 W/m 10,3 C 10,5 C 8,0 km/h (2 Bft) 100,00 %
09.11.2015 03:02 10,4 C 99 % 1024,0 hPa 0,0 l/m 2,3 km/h (1 Bft) SW 226 0 min 0,000 mm 0,0 UV-I 0 W/m 10,2 C 10,4 C 4,8 km/h (1 Bft) 100,00 %
09.11.2015 03:03 10,4 C 99 % 1024,0 hPa 0,0 l/m 1,3 km/h (1 Bft) SW 226 0 min 0,000 mm 0,0 UV-I 0 W/m 10,2 C 10,4 C 3,2 km/h (1 Bft) 95,65 %
09.11.2015 03:04 10,4 C 99 % 1024,0 hPa 0,0 l/m 1,8 km/h (1 Bft) S-SW 205 0 min 0,000 mm 0,0 UV-I 0 W/m 10,2 C 10,4 C 3,2 km/h (1 Bft) 100,00 %
09.11.2015 03:05 10,4 C 99 % 1024,1 hPa 0,0 l/m 1,9 km/h (1 Bft) W-SW 243 0 min 0,000 mm 0,0 UV-I 0 W/m 10,2 C 10,4 C 3,2 km/h (1 Bft) 100,00 %
09.11.2015 03:06 10,4 C 99 % 1024,0 hPa 0,0 l/m 1,9 km/h (1 Bft) SW 217 0 min 0,000 mm 0,0 UV-I 0 W/m 10,2 C 10,4 C 3,2 km/h (1 Bft) 100,00 %
09.11.2015 03:07 10,4 C 99 % 1024,1 hPa 0,0 l/m 3,5 km/h (1 Bft) SW 217 0 min 0,000 mm 0,0 UV-I 0 W/m 10,2 C 10,4 C 4,8 km/h (1 Bft) 95,83 %
09.11.2015 03:08 10,4 C 99 % 1024,1 hPa 0,0 l/m 3,0 km/h (1 Bft) SW 217 0 min 0,000 mm 0,0 UV-I 0 W/m 10,2 C 10,4 C 4,8 km/h (1 Bft) 100,00 %
09.11.2015 03:09 10,4 C 99 % 1024,1 hPa 0,0 l/m 2,8 km/h (1 Bft) SW 217 0 min 0,000 mm 0,0 UV-I 0 W/m 10,2 C 10,4 C 4,8 km/h (1 Bft) 100,00 %
09.11.2015 03:10 10,4 C 99 % 1024,1 hPa 0,0 l/m 2,1 km/h (1 Bft) SW 219 0 min 0,000 mm 0,0 UV-I 0 W/m 10,2 C 10,4 C 3,2 km/h (1 Bft) 100,00 %
09.11.2015 03:11 10,4 C 99 % 1024,0 hPa 0,0 l/m 3,5 km/h (1 Bft) SW 227 0 min 0,000 mm 0,0 UV-I 0 W/m 10,2 C 10,4 C 4,8 km/h (1 Bft) 100,00 %
09.11.2015 03:12 10,4 C 99 % 1024,0 hPa 0,0 l/m 1,7 km/h (1 Bft) SW 226 0 min 0,000 mm 0,0 UV-I 0 W/m 10,2 C 10,4 C 3,2 km/h (1 Bft) 100,00 %
09.11.2015 03:13 10,4 C 99 % 1024,0 hPa 0,0 l/m 2,9 km/h (1 Bft) SW 224 0 min 0,000 mm 0,0 UV-I 0 W/m 10,2 C 10,4 C 4,8 km/h (1 Bft) 100,00 %
09.11.2015 03:14 10,4 C 99 % 1024,0 hPa 0,0 l/m 2,0 km/h (1 Bft) W-SW 237 0 min 0,000 mm 0,0 UV-I 0 W/m 10,2 C 10,4 C 3,2 km/h (1 Bft) 100,00 %
09.11.2015 03:15 10,4 C 99 % 1024,0 hPa 0,0 l/m 0,3 km/h (0 Bft) W-SW 237 0 min 0,000 mm 0,0 UV-I 0 W/m 10,2 C 10,4 C 1,6 km/h (1 Bft) 100,00 %
09.11.2015 03:16 10,4 C 99 % 1024,0 hPa 0,0 l/m 0,0 km/h (0 Bft) W-SW 237 0 min 0,000 mm 0,0 UV-I 0 W/m 10,2 C 10,4 C 0,0 km/h (0 Bft) 100,00 %
09.11.2015 03:17 10,4 C 99 % 1024,0 hPa 0,0 l/m 0,0 km/h (0 Bft) W-SW 237 0 min 0,000 mm 0,0 UV-I 0 W/m 10,2 C 10,4 C 0,0 km/h (0 Bft) 100,00 %
09.11.2015 03:18 10,4 C 99 % 1024,0 hPa 0,0 l/m 0,9 km/h (0 Bft) W-SW 237 0 min 0,000 mm 0,0 UV-I 0 W/m 10,2 C 10,4 C 3,2 km/h (1 Bft) 96,15 %
09.11.2015 03:19 10,4 C 99 % 1024,0 hPa 0,0 l/m 2,4 km/h (1 Bft) W-SW 239 0 min 0,000 mm 0,0 UV-I 0 W/m 10,2 C 10,4 C 3,2 km/h (1 Bft) 100,00 %
09.11.2015 03:20 10,4 C 99 % 1024,0 hPa 0,0 l/m 1,9 km/h (1 Bft) W-SW 241 0 min 0,000 mm 0,0 UV-I 0 W/m 10,2 C 10,4 C 3,2 km/h (1 Bft) 100,00 %
09.11.2015 03:21 10,4 C 99 % 1024,0 hPa 0,0 l/m 1,5 km/h (1 Bft) W-SW 248 0 min 0,000 mm 0,0 UV-I 0 W/m 10,2 C 10,4 C 1,6 km/h (1 Bft) 100,00 %
09.11.2015 03:22 10,3 C 99 % 1024,0 hPa 0,0 l/m 0,8 km/h (0 Bft) W-SW 249 0 min 0,000 mm 0,0 UV-I 0 W/m 10,1 C 10,3 C 1,6 km/h (1 Bft) 100,00 %
09.11.2015 03:23 10,3 C 99 % 1024,0 hPa 0,0 l/m 1,7 km/h (1 Bft) SW 230 0 min 0,000 mm 0,0 UV-I 0 W/m 10,1 C 10,3 C 3,2 km/h (1 Bft) 100,00 %
09.11.2015 03:24 10,3 C 99 % 1024,0 hPa 0,0 l/m 0,7 km/h (0 Bft) SW 230 0 min 0,000 mm 0,0 UV-I 0 W/m 10,1 C 10,3 C 1,6 km/h (1 Bft) 100,00 %
09.11.2015 03:25 10,3 C 99 % 1024,0 hPa 0,0 l/m 1,3 km/h (1 Bft) SW 230 0 min 0,000 mm 0,0 UV-I 0 W/m 10,1 C 10,3 C 3,2 km/h (1 Bft) 100,00 %
09.11.2015 03:26 10,4 C 99 % 1024,0 hPa 0,0 l/m 2,2 km/h (1 Bft) W-SW 257 0 min 0,000 mm 0,0 UV-I 0 W/m 10,2 C 10,4 C 3,2 km/h (1 Bft) 100,00 %
09.11.2015 03:27 10,3 C 99 % 1024,0 hPa 0,0 l/m 1,6 km/h (1 Bft) W 261 0 min 0,000 mm 0,0 UV-I 0 W/m 10,1 C 10,3 C 3,2 km/h (1 Bft) 100,00 %
09.11.2015 03:28 10,3 C 99 % 1024,0 hPa 0,0 l/m 0,7 km/h (0 Bft) W 263 0 min 0,000 mm 0,0 UV-I 0 W/m 10,1 C 10,3 C 1,6 km/h (1 Bft) 95,83 %
09.11.2015 03:29 10,4 C 99 % 1024,0 hPa 0,0 l/m 1,0 km/h (0 Bft) W-SW 245 0 min 0,000 mm 0,0 UV-I 0 W/m 10,2 C 10,4 C 1,6 km/h (1 Bft) 100,00 %
09.11.2015 03:30 10,4 C 99 % 1024,0 hPa 0,0 l/m 1,6 km/h (1 Bft) W 260 0 min 0,000 mm 0,0 UV-I 0 W/m 10,2 C 10,4 C 3,2 km/h (1 Bft) 100,00 %
09.11.2015 03:31 10,4 C 99 % 1024,0 hPa 0,0 l/m 0,5 km/h (0 Bft) W 260 0 min 0,000 mm 0,0 UV-I 0 W/m 10,2 C 10,4 C 1,6 km/h (1 Bft) 92,86 %
09.11.2015 03:32 10,4 C 99 % 1024,0 hPa 0,0 l/m 0,7 km/h (0 Bft) W 260 0 min 0,000 mm 0,0 UV-I 0 W/m 10,2 C 10,4 C 1,6 km/h (1 Bft) 100,00 %
09.11.2015 03:33 10,4 C 99 % 1024,0 hPa 0,0 l/m 0,5 km/h (0 Bft) W 259 0 min 0,000 mm 0,0 UV-I 0 W/m 10,2 C 10,4 C 1,6 km/h (1 Bft) 100,00 %
09.11.2015 03:34 10,4 C 99 % 1024,0 hPa 0,0 l/m 0,3 km/h (0 Bft) W 259 0 min 0,000 mm 0,0 UV-I 0 W/m 10,2 C 10,4 C 1,6 km/h (1 Bft) 100,00 %
09.11.2015 03:35 10,4 C 99 % 1024,0 hPa 0,0 l/m 0,8 km/h (0 Bft) W 259 0 min 0,000 mm 0,0 UV-I 0 W/m 10,2 C 10,4 C 1,6 km/h (1 Bft) 100,00 %
09.11.2015 03:36 10,4 C 99 % 1024,0 hPa 0,0 l/m 0,0 km/h (0 Bft) W 259 0 min 0,000 mm 0,0 UV-I 0 W/m 10,2 C 10,4 C 0,0 km/h (0 Bft) 100,00 %
09.11.2015 03:37 10,4 C 99 % 1024,0 hPa 0,0 l/m 0,5 km/h (0 Bft) W 259 0 min 0,000 mm 0,0 UV-I 0 W/m 10,2 C 10,4 C 1,6 km/h (1 Bft) 100,00 %
09.11.2015 03:38 10,4 C 99 % 1024,0 hPa 0,0 l/m 0,3 km/h (0 Bft) W 259 0 min 0,000 mm 0,0 UV-I 0 W/m 10,2 C 10,4 C 1,6 km/h (1 Bft) 100,00 %
09.11.2015 03:39 10,4 C 99 % 1023,9 hPa 0,0 l/m 0,1 km/h (0 Bft) W 259 0 min 0,000 mm 0,0 UV-I 0 W/m 10,2 C 10,4 C 1,6 km/h (1 Bft) 100,00 %
09.11.2015 03:40 10,4 C 99 % 1023,9 hPa 0,0 l/m 0,5 km/h (0 Bft) W 259 0 min 0,000 mm 0,0 UV-I 0 W/m 10,2 C 10,4 C 1,6 km/h (1 Bft) 100,00 %
09.11.2015 03:41 10,4 C 99 % 1023,9 hPa 0,0 l/m 1,8 km/h (1 Bft) W-SW 258 0 min 0,000 mm 0,0 UV-I 0 W/m 10,2 C 10,4 C 3,2 km/h (1 Bft) 100,00 %
09.11.2015 03:42 10,4 C 99 % 1023,9 hPa 0,0 l/m 2,1 km/h (1 Bft) W-SW 240 0 min 0,000 mm 0,0 UV-I 0 W/m 10,2 C 10,4 C 3,2 km/h (1 Bft) 100,00 %
09.11.2015 03:43 10,4 C 99 % 1023,9 hPa 0,0 l/m 1,5 km/h (1 Bft) W-SW 240 0 min 0,000 mm 0,0 UV-I 0 W/m 10,2 C 10,4 C 3,2 km/h (1 Bft) 100,00 %
09.11.2015 03:44 10,4 C 99 % 1023,9 hPa 0,0 l/m 2,4 km/h (1 Bft) SW 223 0 min 0,000 mm 0,0 UV-I 0 W/m 10,2 C 10,4 C 4,8 km/h (1 Bft) 100,00 %
09.11.2015 03:45 10,4 C 99 % 1023,8 hPa 0,0 l/m 2,7 km/h (1 Bft) W 265 0 min 0,000 mm 0,0 UV-I 0 W/m 10,2 C 10,4 C 4,8 km/h (1 Bft) 100,00 %
09.11.2015 03:46 10,5 C 99 % 1023,8 hPa 0,0 l/m 2,7 km/h (1 Bft) W-SW 254 0 min 0,000 mm 0,0 UV-I 0 W/m 10,3 C 10,5 C 4,8 km/h (1 Bft) 100,00 %
09.11.2015 03:47 10,5 C 99 % 1023,8 hPa 0,0 l/m 2,0 km/h (1 Bft) W-SW 245 0 min 0,000 mm 0,0 UV-I 0 W/m 10,3 C 10,5 C 3,2 km/h (1 Bft) 100,00 %
09.11.2015 03:48 10,5 C 99 % 1023,8 hPa 0,0 l/m 1,6 km/h (1 Bft) W-SW 239 0 min 0,000 mm 0,0 UV-I 0 W/m 10,3 C 10,5 C 3,2 km/h (1 Bft) 100,00 %
09.11.2015 03:49 10,5 C 99 % 1023,8 hPa 0,0 l/m 1,9 km/h (1 Bft) W-SW 239 0 min 0,000 mm 0,0 UV-I 0 W/m 10,3 C 10,5 C 3,2 km/h (1 Bft) 100,00 %
09.11.2015 03:50 10,6 C 99 % 1023,8 hPa 0,0 l/m 3,0 km/h (1 Bft) SW 223 0 min 0,000 mm 0,0 UV-I 0 W/m 10,4 C 10,6 C 4,8 km/h (1 Bft) 92,86 %
09.11.2015 03:51 10,6 C 99 % 1023,8 hPa 0,0 l/m 2,6 km/h (1 Bft) SW 219 0 min 0,000 mm 0,0 UV-I 0 W/m 10,4 C 10,6 C 4,8 km/h (1 Bft) 100,00 %
09.11.2015 03:52 10,6 C 99 % 1023,7 hPa 0,0 l/m 2,3 km/h (1 Bft) W 273 0 min 0,000 mm 0,0 UV-I 0 W/m 10,4 C 10,6 C 3,2 km/h (1 Bft) 100,00 %
09.11.2015 03:53 10,6 C 99 % 1023,7 hPa 0,0 l/m 1,0 km/h (0 Bft) W 272 0 min 0,000 mm 0,0 UV-I 0 W/m 10,4 C 10,6 C 3,2 km/h (1 Bft) 100,00 %
09.11.2015 03:54 10,6 C 99 % 1023,7 hPa 0,0 l/m 1,2 km/h (1 Bft) W 272 0 min 0,000 mm 0,0 UV-I 0 W/m 10,4 C 10,6 C 1,6 km/h (1 Bft) 100,00 %
09.11.2015 03:55 10,6 C 99 % 1023,7 hPa 0,0 l/m 1,2 km/h (1 Bft) W 272 0 min 0,000 mm 0,0 UV-I 0 W/m 10,4 C 10,6 C 1,6 km/h (1 Bft) 100,00 %
09.11.2015 03:56 10,6 C 99 % 1023,7 hPa 0,0 l/m 0,8 km/h (0 Bft) W 259 0 min 0,000 mm 0,0 UV-I 0 W/m 10,4 C 10,6 C 1,6 km/h (1 Bft) 96,55 %
09.11.2015 03:57 10,6 C 99 % 1023,7 hPa 0,0 l/m 1,3 km/h (1 Bft) W-SW 256 0 min 0,000 mm 0,0 UV-I 0 W/m 10,4 C 10,6 C 3,2 km/h (1 Bft) 100,00 %
09.11.2015 03:58 10,6 C 99 % 1023,7 hPa 0,0 l/m 0,6 km/h (0 Bft) W-SW 256 0 min 0,000 mm 0,0 UV-I 0 W/m 10,4 C 10,6 C 1,6 km/h (1 Bft) 100,00 %
09.11.2015 03:59 10,7 C 99 % 1023,7 hPa 0,0 l/m 0,2 km/h (0 Bft) W-SW 256 0 min 0,000 mm 0,0 UV-I 0 W/m 10,5 C 10,7 C 1,6 km/h (1 Bft) 93,33 %
09.11.2015 04:00 10,7 C 99 % 1023,8 hPa 0,0 l/m 1,3 km/h (1 Bft) W 264 0 min 0,000 mm 0,0 UV-I 0 W/m 10,5 C 10,7 C 1,6 km/h (1 Bft) 100,00 %
09.11.2015 04:01 10,7 C 99 % 1023,7 hPa 0,0 l/m 2,8 km/h (1 Bft) W 279 0 min 0,000 mm 0,0 UV-I 0 W/m 10,5 C 10,7 C 4,8 km/h (1 Bft) 100,00 %
09.11.2015 04:02 10,6 C 99 % 1023,7 hPa 0,0 l/m 3,4 km/h (1 Bft) W 271 0 min 0,000 mm 0,0 UV-I 0 W/m 10,4 C 10,6 C 4,8 km/h (1 Bft) 100,00 %
09.11.2015 04:03 10,6 C 99 % 1023,7 hPa 0,0 l/m 2,6 km/h (1 Bft) W 263 0 min 0,000 mm 0,0 UV-I 0 W/m 10,4 C 10,6 C 4,8 km/h (1 Bft) 100,00 %
09.11.2015 04:04 10,6 C 99 % 1023,7 hPa 0,0 l/m 1,9 km/h (1 Bft) W 278 0 min 0,000 mm 0,0 UV-I 0 W/m 10,4 C 10,6 C 3,2 km/h (1 Bft) 100,00 %
09.11.2015 04:05 10,6 C 99 % 1023,7 hPa 0,0 l/m 3,4 km/h (1 Bft) W 269 0 min 0,000 mm 0,0 UV-I 0 W/m 10,4 C 10,6 C 4,8 km/h (1 Bft) 100,00 %
09.11.2015 04:06 10,6 C 99 % 1023,7 hPa 0,0 l/m 2,9 km/h (1 Bft) W 275 0 min 0,000 mm 0,0 UV-I 0 W/m 10,4 C 10,6 C 4,8 km/h (1 Bft) 100,00 %
09.11.2015 04:07 10,6 C 99 % 1023,7 hPa 0,0 l/m 2,7 km/h (1 Bft) W 266 0 min 0,000 mm 0,0 UV-I 0 W/m 10,4 C 10,6 C 4,8 km/h (1 Bft) 100,00 %
09.11.2015 04:08 10,6 C 99 % 1023,6 hPa 0,0 l/m 1,7 km/h (1 Bft) W 265 0 min 0,000 mm 0,0 UV-I 0 W/m 10,4 C 10,6 C 3,2 km/h (1 Bft) 100,00 %
09.11.2015 04:09 10,6 C 99 % 1023,7 hPa 0,0 l/m 2,5 km/h (1 Bft) W 273 0 min 0,000 mm 0,0 UV-I 0 W/m 10,4 C 10,6 C 4,8 km/h (1 Bft) 100,00 %
09.11.2015 04:10 10,6 C 99 % 1023,6 hPa 0,0 l/m 1,9 km/h (1 Bft) SW 235 0 min 0,000 mm 0,0 UV-I 0 W/m 10,4 C 10,6 C 3,2 km/h (1 Bft) 100,00 %
09.11.2015 04:11 10,6 C 99 % 1023,6 hPa 0,0 l/m 2,3 km/h (1 Bft) SW 230 0 min 0,000 mm 0,0 UV-I 0 W/m 10,4 C 10,6 C 8,0 km/h (2 Bft) 100,00 %
09.11.2015 04:12 10,6 C 99 % 1023,6 hPa 0,0 l/m 5,9 km/h (2 Bft) SW 227 0 min 0,000 mm 0,0 UV-I 0 W/m 10,4 C 10,6 C 8,0 km/h (2 Bft) 100,00 %
09.11.2015 04:13 10,6 C 99 % 1023,6 hPa 0,0 l/m 4,6 km/h (1 Bft) W-SW 248 0 min 0,000 mm 0,0 UV-I 0 W/m 10,4 C 10,6 C 6,4 km/h (2 Bft) 96,55 %
09.11.2015 04:14 10,6 C 99 % 1023,6 hPa 0,0 l/m 5,1 km/h (1 Bft) SW 230 0 min 0,000 mm 0,0 UV-I 0 W/m 10,4 C 10,6 C 6,4 km/h (2 Bft) 100,00 %
09.11.2015 04:15 10,6 C 99 % 1023,6 hPa 0,0 l/m 3,1 km/h (1 Bft) W-NW 283 0 min 0,000 mm 0,0 UV-I 0 W/m 10,4 C 10,6 C 4,8 km/h (1 Bft) 100,00 %
09.11.2015 04:16 10,5 C 99 % 1023,6 hPa 0,0 l/m 2,5 km/h (1 Bft) W-SW 251 0 min 0,000 mm 0,0 UV-I 0 W/m 10,3 C 10,5 C 4,8 km/h (1 Bft) 100,00 %
09.11.2015 04:17 10,5 C 99 % 1023,7 hPa 0,0 l/m 2,4 km/h (1 Bft) W-NW 285 0 min 0,000 mm 0,0 UV-I 0 W/m 10,3 C 10,5 C 4,8 km/h (1 Bft) 100,00 %
09.11.2015 04:18 10,4 C 99 % 1023,7 hPa 0,0 l/m 2,8 km/h (1 Bft) W 277 0 min 0,000 mm 0,0 UV-I 0 W/m 10,2 C 10,4 C 4,8 km/h (1 Bft) 100,00 %
09.11.2015 04:19 10,4 C 99 % 1023,7 hPa 0,0 l/m 4,9 km/h (1 Bft) SW 230 0 min 0,000 mm 0,0 UV-I 0 W/m 10,2 C 10,4 C 8,0 km/h (2 Bft) 100,00 %
09.11.2015 04:20 10,4 C 99 % 1023,7 hPa 0,0 l/m 3,0 km/h (1 Bft) W 263 0 min 0,000 mm 0,0 UV-I 0 W/m 10,2 C 10,4 C 4,8 km/h (1 Bft) 100,00 %
09.11.2015 04:21 10,4 C 99 % 1023,7 hPa 0,0 l/m 3,3 km/h (1 Bft) W-NW 282 0 min 0,000 mm 0,0 UV-I 0 W/m 10,2 C 10,4 C 6,4 km/h (2 Bft) 100,00 %
09.11.2015 04:22 10,3 C 99 % 1023,7 hPa 0,0 l/m 3,5 km/h (1 Bft) SW 217 0 min 0,000 mm 0,0 UV-I 0 W/m 10,1 C 10,3 C 6,4 km/h (2 Bft) 100,00 %
09.11.2015 04:23 10,3 C 99 % 1023,7 hPa 0,0 l/m 4,8 km/h (1 Bft) SW 236 0 min 0,000 mm 0,0 UV-I 0 W/m 10,1 C 10,3 C 6,4 km/h (2 Bft) 100,00 %
09.11.2015 04:24 10,3 C 99 % 1023,7 hPa 0,0 l/m 4,0 km/h (1 Bft) W 266 0 min 0,000 mm 0,0 UV-I 0 W/m 10,1 C 10,3 C 8,0 km/h (2 Bft) 100,00 %
09.11.2015 04:25 10,3 C 99 % 1023,7 hPa 0,0 l/m 3,3 km/h (1 Bft) W-SW 238 0 min 0,000 mm 0,0 UV-I 0 W/m 10,1 C 10,3 C 4,8 km/h (1 Bft) 100,00 %
09.11.2015 04:26 10,2 C 99 % 1023,8 hPa 0,0 l/m 2,7 km/h (1 Bft) W-NW 285 0 min 0,000 mm 0,0 UV-I 0 W/m 10,0 C 10,2 C 6,4 km/h (2 Bft) 97,56 %
09.11.2015 04:27 10,2 C 99 % 1023,8 hPa 0,0 l/m 2,7 km/h (1 Bft) W 263 0 min 0,000 mm 0,0 UV-I 0 W/m 10,0 C 10,2 C 4,8 km/h (1 Bft) 100,00 %
09.11.2015 04:28 10,2 C 99 % 1023,8 hPa 0,0 l/m 3,8 km/h (1 Bft) W-NW 288 0 min 0,000 mm 0,0 UV-I 0 W/m 10,0 C 10,2 C 4,8 km/h (1 Bft) 100,00 %
09.11.2015 04:29 10,2 C 99 % 1023,8 hPa 0,0 l/m 3,5 km/h (1 Bft) W 269 0 min 0,000 mm 0,0 UV-I 0 W/m 10,0 C 10,2 C 6,4 km/h (2 Bft) 100,00 %
09.11.2015 04:30 10,2 C 99 % 1023,8 hPa 0,0 l/m 2,2 km/h (1 Bft) W-NW 288 0 min 0,000 mm 0,0 UV-I 0 W/m 10,0 C 10,2 C 3,2 km/h (1 Bft) 95,65 %
09.11.2015 04:31 10,2 C 99 % 1023,8 hPa 0,0 l/m 2,0 km/h (1 Bft) W-NW 288 0 min 0,000 mm 0,0 UV-I 0 W/m 10,0 C 10,2 C 3,2 km/h (1 Bft) 100,00 %
09.11.2015 04:32 10,2 C 99 % 1023,7 hPa 0,0 l/m 0,4 km/h (0 Bft) W-NW 288 0 min 0,000 mm 0,0 UV-I 0 W/m 10,0 C 10,2 C 1,6 km/h (1 Bft) 100,00 %
09.11.2015 04:33 10,2 C 99 % 1023,7 hPa 0,0 l/m 0,9 km/h (0 Bft) W-NW 288 0 min 0,000 mm 0,0 UV-I 0 W/m 10,0 C 10,2 C 3,2 km/h (1 Bft) 96,30 %
09.11.2015 04:34 10,3 C 99 % 1023,7 hPa 0,0 l/m 1,4 km/h (1 Bft) W-NW 286 0 min 0,000 mm 0,0 UV-I 0 W/m 10,1 C 10,3 C 3,2 km/h (1 Bft) 100,00 %
09.11.2015 04:35 10,2 C 99 % 1023,7 hPa 0,0 l/m 2,1 km/h (1 Bft) W-SW 245 0 min 0,000 mm 0,0 UV-I 0 W/m 10,0 C 10,2 C 3,2 km/h (1 Bft) 100,00 %
09.11.2015 04:36 10,2 C 99 % 1023,7 hPa 0,0 l/m 3,3 km/h (1 Bft) W-SW 242 0 min 0,000 mm 0,0 UV-I 0 W/m 10,0 C 10,2 C 4,8 km/h (1 Bft) 100,00 %
09.11.2015 04:37 10,2 C 99 % 1023,7 hPa 0,0 l/m 2,7 km/h (1 Bft) SW 227 0 min 0,000 mm 0,0 UV-I 0 W/m 10,0 C 10,2 C 4,8 km/h (1 Bft) 100,00 %
09.11.2015 04:38 10,2 C 99 % 1023,7 hPa 0,0 l/m 1,8 km/h (1 Bft) SW 217 0 min 0,000 mm 0,0 UV-I 0 W/m 10,0 C 10,2 C 3,2 km/h (1 Bft) 100,00 %
09.11.2015 04:39 10,2 C 99 % 1023,7 hPa 0,0 l/m 1,4 km/h (1 Bft) SW 217 0 min 0,000 mm 0,0 UV-I 0 W/m 10,0 C 10,2 C 3,2 km/h (1 Bft) 95,83 %
09.11.2015 04:40 10,2 C 99 % 1023,7 hPa 0,0 l/m 2,1 km/h (1 Bft) SW 217 0 min 0,000 mm 0,0 UV-I 0 W/m 10,0 C 10,2 C 3,2 km/h (1 Bft) 100,00 %
09.11.2015 04:41 10,2 C 99 % 1023,7 hPa 0,0 l/m 2,0 km/h (1 Bft) SW 234 0 min 0,000 mm 0,0 UV-I 0 W/m 10,0 C 10,2 C 4,8 km/h (1 Bft) 100,00 %
09.11.2015 04:42 10,2 C 99 % 1023,7 hPa 0,0 l/m 3,6 km/h (1 Bft) SW 231 0 min 0,000 mm 0,0 UV-I 0 W/m 10,0 C 10,2 C 6,4 km/h (2 Bft) 96,15 %
09.11.2015 04:43 10,2 C 99 % 1023,8 hPa 0,0 l/m 3,2 km/h (1 Bft) W-SW 240 0 min 0,000 mm 0,0 UV-I 0 W/m 10,0 C 10,2 C 4,8 km/h (1 Bft) 100,00 %
09.11.2015 04:44 10,2 C 99 % 1023,8 hPa 0,0 l/m 2,8 km/h (1 Bft) W-SW 246 0 min 0,000 mm 0,0 UV-I 0 W/m 10,0 C 10,2 C 4,8 km/h (1 Bft) 100,00 %
09.11.2015 04:45 10,2 C 99 % 1023,8 hPa 0,0 l/m 2,5 km/h (1 Bft) W 259 0 min 0,000 mm 0,0 UV-I 0 W/m 10,0 C 10,2 C 4,8 km/h (1 Bft) 100,00 %
09.11.2015 04:46 10,2 C 99 % 1023,8 hPa 0,0 l/m 1,5 km/h (1 Bft) SW 231 0 min 0,000 mm 0,0 UV-I 0 W/m 10,0 C 10,2 C 4,8 km/h (1 Bft) 100,00 %
09.11.2015 04:47 10,2 C 99 % 1023,8 hPa 0,0 l/m 2,9 km/h (1 Bft) SW 216 0 min 0,000 mm 0,0 UV-I 0 W/m 10,0 C 10,2 C 4,8 km/h (1 Bft) 100,00 %
09.11.2015 04:48 10,2 C 99 % 1023,8 hPa 0,0 l/m 1,9 km/h (1 Bft) SW 219 0 min 0,000 mm 0,0 UV-I 0 W/m 10,0 C 10,2 C 3,2 km/h (1 Bft) 100,00 %
09.11.2015 04:49 10,2 C 99 % 1023,8 hPa 0,0 l/m 4,5 km/h (1 Bft) SW 215 0 min 0,000 mm 0,0 UV-I 0 W/m 10,0 C 10,2 C 6,4 km/h (2 Bft) 96,15 %
09.11.2015 04:50 10,2 C 99 % 1023,8 hPa 0,0 l/m 2,8 km/h (1 Bft) SW 236 0 min 0,000 mm 0,0 UV-I 0 W/m 10,0 C 10,2 C 6,4 km/h (2 Bft) 100,00 %
09.11.2015 04:51 10,2 C 99 % 1023,9 hPa 0,0 l/m 1,9 km/h (1 Bft) SW 217 0 min 0,000 mm 0,0 UV-I 0 W/m 10,0 C 10,2 C 3,2 km/h (1 Bft) 100,00 %
09.11.2015 04:52 10,2 C 99 % 1023,9 hPa 0,0 l/m 1,8 km/h (1 Bft) W-SW 239 0 min 0,000 mm 0,0 UV-I 0 W/m 10,0 C 10,2 C 3,2 km/h (1 Bft) 100,00 %
09.11.2015 04:53 10,2 C 99 % 1023,9 hPa 0,0 l/m 1,5 km/h (1 Bft) W 277 0 min 0,000 mm 0,0 UV-I 0 W/m 10,0 C 10,2 C 3,2 km/h (1 Bft) 100,00 %
09.11.2015 04:54 10,2 C 99 % 1023,9 hPa 0,0 l/m 1,9 km/h (1 Bft) W-NW 289 0 min 0,000 mm 0,0 UV-I 0 W/m 10,0 C 10,2 C 3,2 km/h (1 Bft) 100,00 %
09.11.2015 04:55 10,2 C 99 % 1023,9 hPa 0,0 l/m 1,5 km/h (1 Bft) W-NW 288 0 min 0,000 mm 0,0 UV-I 0 W/m 10,0 C 10,2 C 3,2 km/h (1 Bft) 100,00 %
09.11.2015 04:56 10,2 C 99 % 1023,9 hPa 0,0 l/m 0,8 km/h (0 Bft) W-NW 288 0 min 0,000 mm 0,0 UV-I 0 W/m 10,0 C 10,2 C 1,6 km/h (1 Bft) 100,00 %
09.11.2015 04:57 10,2 C 99 % 1023,9 hPa 0,0 l/m 0,0 km/h (0 Bft) W-NW 288 0 min 0,000 mm 0,0 UV-I 0 W/m 10,0 C 10,2 C 0,0 km/h (0 Bft) 100,00 %
09.11.2015 04:58 10,2 C 99 % 1023,9 hPa 0,0 l/m 0,0 km/h (0 Bft) W-NW 288 0 min 0,000 mm 0,0 UV-I 0 W/m 10,0 C 10,2 C 0,0 km/h (0 Bft) 100,00 %
09.11.2015 04:59 10,2 C 99 % 1023,9 hPa 0,0 l/m 0,0 km/h (0 Bft) W-NW 288 0 min 0,000 mm 0,0 UV-I 0 W/m 10,0 C 10,2 C 0,0 km/h (0 Bft) 96,15 %
09.11.2015 05:00 10,2 C 99 % 1023,9 hPa 0,0 l/m 0,1 km/h (0 Bft) W-NW 288 0 min 0,000 mm 0,0 UV-I 0 W/m 10,0 C 10,2 C 1,6 km/h (1 Bft) 100,00 %
09.11.2015 05:01 10,3 C 99 % 1023,9 hPa 0,0 l/m 0,0 km/h (0 Bft) W-NW 288 0 min 0,000 mm 0,0 UV-I 0 W/m 10,1 C 10,3 C 0,0 km/h (0 Bft) 100,00 %
09.11.2015 05:02 10,3 C 99 % 1023,9 hPa 0,0 l/m 0,9 km/h (0 Bft) W-NW 285 0 min 0,000 mm 0,0 UV-I 0 W/m 10,1 C 10,3 C 3,2 km/h (1 Bft) 100,00 %
09.11.2015 05:03 10,3 C 99 % 1023,8 hPa 0,0 l/m 1,3 km/h (1 Bft) W-SW 242 0 min 0,000 mm 0,0 UV-I 0 W/m 10,1 C 10,3 C 3,2 km/h (1 Bft) 100,00 %
09.11.2015 05:04 10,3 C 99 % 1023,9 hPa 0,0 l/m 1,2 km/h (1 Bft) W-SW 242 0 min 0,000 mm 0,0 UV-I 0 W/m 10,1 C 10,3 C 3,2 km/h (1 Bft) 96,15 %
09.11.2015 05:05 10,3 C 99 % 1023,9 hPa 0,0 l/m 0,6 km/h (0 Bft) W-SW 242 0 min 0,000 mm 0,0 UV-I 0 W/m 10,1 C 10,3 C 1,6 km/h (1 Bft) 100,00 %
09.11.2015 05:06 10,3 C 99 % 1023,9 hPa 0,0 l/m 0,8 km/h (0 Bft) W-SW 242 0 min 0,000 mm 0,0 UV-I 0 W/m 10,1 C 10,3 C 1,6 km/h (1 Bft) 100,00 %
09.11.2015 05:07 10,3 C 99 % 1023,8 hPa 0,0 l/m 1,5 km/h (1 Bft) W-SW 242 0 min 0,000 mm 0,0 UV-I 0 W/m 10,1 C 10,3 C 3,2 km/h (1 Bft) 100,00 %
09.11.2015 05:08 10,3 C 99 % 1023,8 hPa 0,0 l/m 2,4 km/h (1 Bft) SW 230 0 min 0,000 mm 0,0 UV-I 0 W/m 10,1 C 10,3 C 3,2 km/h (1 Bft) 100,00 %
09.11.2015 05:09 10,3 C 99 % 1023,9 hPa 0,0 l/m 1,1 km/h (1 Bft) W-SW 246 0 min 0,000 mm 0,0 UV-I 0 W/m 10,1 C 10,3 C 3,2 km/h (1 Bft) 100,00 %
09.11.2015 05:10 10,3 C 99 % 1023,9 hPa 0,0 l/m 1,2 km/h (1 Bft) W 259 0 min 0,000 mm 0,0 UV-I 0 W/m 10,1 C 10,3 C 1,6 km/h (1 Bft) 100,00 %
09.11.2015 05:11 10,2 C 99 % 1023,9 hPa 0,0 l/m 1,6 km/h (1 Bft) W 259 0 min 0,000 mm 0,0 UV-I 0 W/m 10,0 C 10,2 C 3,2 km/h (1 Bft) 100,00 %
09.11.2015 05:12 10,2 C 99 % 1023,9 hPa 0,0 l/m 0,2 km/h (0 Bft) W 259 0 min 0,000 mm 0,0 UV-I 0 W/m 10,0 C 10,2 C 1,6 km/h (1 Bft) 100,00 %
09.11.2015 05:13 10,2 C 99 % 1023,9 hPa 0,0 l/m 1,7 km/h (1 Bft) SW 225 0 min 0,000 mm 0,0 UV-I 0 W/m 10,0 C 10,2 C 3,2 km/h (1 Bft) 100,00 %
09.11.2015 05:14 10,2 C 99 % 1023,9 hPa 0,0 l/m 3,8 km/h (1 Bft) S-SW 211 0 min 0,000 mm 0,0 UV-I 0 W/m 10,0 C 10,2 C 6,4 km/h (2 Bft) 100,00 %
09.11.2015 05:15 10,2 C 99 % 1023,9 hPa 0,0 l/m 4,3 km/h (1 Bft) S-SW 209 0 min 0,000 mm 0,0 UV-I 0 W/m 10,0 C 10,2 C 6,4 km/h (2 Bft) 100,00 %
09.11.2015 05:16 10,2 C 99 % 1023,9 hPa 0,0 l/m 4,9 km/h (1 Bft) S-SW 213 0 min 0,000 mm 0,0 UV-I 0 W/m 10,0 C 10,2 C 6,4 km/h (2 Bft) 100,00 %
09.11.2015 05:17 10,2 C 99 % 1023,9 hPa 0,0 l/m 3,9 km/h (1 Bft) W-SW 249 0 min 0,000 mm 0,0 UV-I 0 W/m 10,0 C 10,2 C 6,4 km/h (2 Bft) 100,00 %
09.11.2015 05:18 10,2 C 99 % 1023,9 hPa 0,0 l/m 4,4 km/h (1 Bft) S-SW 211 0 min 0,000 mm 0,0 UV-I 0 W/m 10,0 C 10,2 C 6,4 km/h (2 Bft) 100,00 %
09.11.2015 05:19 10,1 C 99 % 1023,9 hPa 0,0 l/m 3,2 km/h (1 Bft) W-SW 252 0 min 0,000 mm 0,0 UV-I 0 W/m 9,9 C 10,1 C 6,4 km/h (2 Bft) 100,00 %
09.11.2015 05:20 10,1 C 99 % 1023,9 hPa 0,0 l/m 2,5 km/h (1 Bft) W-NW 283 0 min 0,000 mm 0,0 UV-I 0 W/m 9,9 C 10,1 C 4,8 km/h (1 Bft) 100,00 %
09.11.2015 05:21 10,1 C 99 % 1023,9 hPa 0,0 l/m 1,1 km/h (1 Bft) W 273 0 min 0,000 mm 0,0 UV-I 0 W/m 9,9 C 10,1 C 3,2 km/h (1 Bft) 96,30 %
09.11.2015 05:22 10,1 C 99 % 1023,9 hPa 0,0 l/m 0,5 km/h (0 Bft) W 273 0 min 0,000 mm 0,0 UV-I 0 W/m 9,9 C 10,1 C 1,6 km/h (1 Bft) 100,00 %
09.11.2015 05:23 10,1 C 99 % 1024,0 hPa 0,0 l/m 0,8 km/h (0 Bft) W 276 0 min 0,000 mm 0,0 UV-I 0 W/m 9,9 C 10,1 C 3,2 km/h (1 Bft) 96,15 %
09.11.2015 05:24 10,1 C 99 % 1024,0 hPa 0,0 l/m 1,7 km/h (1 Bft) W 281 0 min 0,000 mm 0,0 UV-I 0 W/m 9,9 C 10,1 C 3,2 km/h (1 Bft) 100,00 %
09.11.2015 05:25 10,1 C 99 % 1024,0 hPa 0,0 l/m 2,3 km/h (1 Bft) W-NW 290 0 min 0,000 mm 0,0 UV-I 0 W/m 9,9 C 10,1 C 3,2 km/h (1 Bft) 100,00 %
09.11.2015 05:26 10,1 C 99 % 1024,0 hPa 0,0 l/m 1,7 km/h (1 Bft) W-NW 290 0 min 0,000 mm 0,0 UV-I 0 W/m 9,9 C 10,1 C 3,2 km/h (1 Bft) 100,00 %
09.11.2015 05:27 10,1 C 99 % 1024,0 hPa 0,0 l/m 0,5 km/h (0 Bft) W-NW 290 0 min 0,000 mm 0,0 UV-I 0 W/m 9,9 C 10,1 C 1,6 km/h (1 Bft) 100,00 %
09.11.2015 05:28 10,1 C 99 % 1024,0 hPa 0,0 l/m 0,1 km/h (0 Bft) W-NW 290 0 min 0,000 mm 0,0 UV-I 0 W/m 9,9 C 10,1 C 1,6 km/h (1 Bft) 100,00 %
09.11.2015 05:29 10,1 C 99 % 1023,9 hPa 0,0 l/m 0,2 km/h (0 Bft) W-NW 290 0 min 0,000 mm 0,0 UV-I 0 W/m 9,9 C 10,1 C 1,6 km/h (1 Bft) 100,00 %
09.11.2015 05:30 10,1 C 99 % 1023,9 hPa 0,0 l/m 1,4 km/h (1 Bft) W-NW 285 0 min 0,000 mm 0,0 UV-I 0 W/m 9,9 C 10,1 C 3,2 km/h (1 Bft) 100,00 %
09.11.2015 05:31 10,1 C 99 % 1023,9 hPa 0,0 l/m 0,4 km/h (0 Bft) W-NW 285 0 min 0,000 mm 0,0 UV-I 0 W/m 9,9 C 10,1 C 1,6 km/h (1 Bft) 100,00 %
09.11.2015 05:32 10,1 C 99 % 1023,9 hPa 0,0 l/m 0,1 km/h (0 Bft) W-NW 286 0 min 0,000 mm 0,0 UV-I 0 W/m 9,9 C 10,1 C 1,6 km/h (1 Bft) 100,00 %
09.11.2015 05:33 10,1 C 99 % 1023,9 hPa 0,0 l/m 0,0 km/h (0 Bft) W-NW 286 0 min 0,000 mm 0,0 UV-I 0 W/m 9,9 C 10,1 C 0,0 km/h (0 Bft) 100,00 %
09.11.2015 05:34 10,1 C 99 % 1023,9 hPa 0,0 l/m 0,3 km/h (0 Bft) W-NW 286 0 min 0,000 mm 0,0 UV-I 0 W/m 9,9 C 10,1 C 1,6 km/h (1 Bft) 100,00 %
09.11.2015 05:35 10,1 C 99 % 1023,9 hPa 0,0 l/m 1,2 km/h (1 Bft) W-SW 242 0 min 0,000 mm 0,0 UV-I 0 W/m 9,9 C 10,1 C 3,2 km/h (1 Bft) 100,00 %
09.11.2015 05:36 10,1 C 99 % 1023,9 hPa 0,0 l/m 1,3 km/h (1 Bft) W-SW 242 0 min 0,000 mm 0,0 UV-I 0 W/m 9,9 C 10,1 C 3,2 km/h (1 Bft) 100,00 %
09.11.2015 05:37 10,0 C 99 % 1024,0 hPa 0,0 l/m 0,1 km/h (0 Bft) W-SW 242 0 min 0,000 mm 0,0 UV-I 0 W/m 9,8 C 10,0 C 1,6 km/h (1 Bft) 100,00 %
09.11.2015 05:38 10,0 C 99 % 1023,9 hPa 0,0 l/m 0,7 km/h (0 Bft) W 275 0 min 0,000 mm 0,0 UV-I 0 W/m 9,8 C 10,0 C 1,6 km/h (1 Bft) 100,00 %
09.11.2015 05:39 10,0 C 99 % 1024,0 hPa 0,0 l/m 0,0 km/h (0 Bft) W 275 0 min 0,000 mm 0,0 UV-I 0 W/m 9,8 C 10,0 C 0,0 km/h (0 Bft) 100,00 %
09.11.2015 05:40 10,0 C 99 % 1023,9 hPa 0,0 l/m 0,1 km/h (0 Bft) W 275 0 min 0,000 mm 0,0 UV-I 0 W/m 9,8 C 10,0 C 1,6 km/h (1 Bft) 100,00 %
09.11.2015 05:41 10,0 C 99 % 1023,9 hPa 0,0 l/m 0,3 km/h (0 Bft) W 275 0 min 0,000 mm 0,0 UV-I 0 W/m 9,8 C 10,0 C 1,6 km/h (1 Bft) 100,00 %
09.11.2015 05:42 10,0 C 99 % 1023,9 hPa 0,0 l/m 1,3 km/h (1 Bft) NW 306 0 min 0,000 mm 0,0 UV-I 0 W/m 9,8 C 10,0 C 3,2 km/h (1 Bft) 97,37 %
09.11.2015 05:43 10,0 C 99 % 1023,9 hPa 0,0 l/m 0,5 km/h (0 Bft) NW 306 0 min 0,000 mm 0,0 UV-I 0 W/m 9,8 C 10,0 C 1,6 km/h (1 Bft) 100,00 %
09.11.2015 05:44 9,9 C 99 % 1023,9 hPa 0,0 l/m 0,8 km/h (0 Bft) NW 321 0 min 0,000 mm 0,0 UV-I 0 W/m 9,8 C 9,9 C 1,6 km/h (1 Bft) 100,00 %
09.11.2015 05:45 9,9 C 99 % 1023,9 hPa 0,0 l/m 2,7 km/h (1 Bft) W-NW 299 0 min 0,000 mm 0,0 UV-I 0 W/m 9,8 C 9,9 C 4,8 km/h (1 Bft) 100,00 %
09.11.2015 05:46 9,9 C 99 % 1024,0 hPa 0,0 l/m 1,9 km/h (1 Bft) W 279 0 min 0,000 mm 0,0 UV-I 0 W/m 9,8 C 9,9 C 3,2 km/h (1 Bft) 100,00 %
09.11.2015 05:47 9,8 C 99 % 1023,9 hPa 0,0 l/m 1,1 km/h (1 Bft) W 279 0 min 0,000 mm 0,0 UV-I 0 W/m 9,7 C 9,8 C 1,6 km/h (1 Bft) 95,83 %
09.11.2015 05:48 9,8 C 99 % 1023,9 hPa 0,0 l/m 0,9 km/h (0 Bft) W 278 0 min 0,000 mm 0,0 UV-I 0 W/m 9,7 C 9,8 C 1,6 km/h (1 Bft) 91,30 %
09.11.2015 05:49 9,8 C 99 % 1023,9 hPa 0,0 l/m 0,0 km/h (0 Bft) W 278 0 min 0,000 mm 0,0 UV-I 0 W/m 9,7 C 9,8 C 0,0 km/h (0 Bft) 100,00 %
09.11.2015 05:50 9,8 C 99 % 1023,9 hPa 0,0 l/m 0,2 km/h (0 Bft) W 278 0 min 0,000 mm 0,0 UV-I 0 W/m 9,7 C 9,8 C 1,6 km/h (1 Bft) 100,00 %
09.11.2015 05:51 9,8 C 99 % 1023,9 hPa 0,0 l/m 1,0 km/h (0 Bft) W 278 0 min 0,000 mm 0,0 UV-I 0 W/m 9,7 C 9,8 C 1,6 km/h (1 Bft) 100,00 %
09.11.2015 05:52 9,8 C 99 % 1023,9 hPa 0,0 l/m 1,4 km/h (1 Bft) W 278 0 min 0,000 mm 0,0 UV-I 0 W/m 9,7 C 9,8 C 3,2 km/h (1 Bft) 95,65 %
09.11.2015 05:53 9,8 C 99 % 1023,9 hPa 0,0 l/m 0,2 km/h (0 Bft) W 278 0 min 0,000 mm 0,0 UV-I 0 W/m 9,7 C 9,8 C 1,6 km/h (1 Bft) 100,00 %
09.11.2015 05:54 9,8 C 99 % 1023,9 hPa 0,0 l/m 0,9 km/h (0 Bft) W 278 0 min 0,000 mm 0,0 UV-I 0 W/m 9,7 C 9,8 C 1,6 km/h (1 Bft) 100,00 %
09.11.2015 05:55 9,8 C 99 % 1023,9 hPa 0,0 l/m 0,0 km/h (0 Bft) W 278 0 min 0,000 mm 0,0 UV-I 0 W/m 9,7 C 9,8 C 0,0 km/h (0 Bft) 100,00 %
09.11.2015 05:56 9,8 C 99 % 1024,0 hPa 0,0 l/m 0,4 km/h (0 Bft) W 278 0 min 0,000 mm 0,0 UV-I 0 W/m 9,7 C 9,8 C 1,6 km/h (1 Bft) 100,00 %
09.11.2015 05:57 9,8 C 99 % 1024,0 hPa 0,0 l/m 0,3 km/h (0 Bft) W 278 0 min 0,000 mm 0,0 UV-I 0 W/m 9,7 C 9,8 C 1,6 km/h (1 Bft) 100,00 %
09.11.2015 05:58 9,8 C 99 % 1024,0 hPa 0,0 l/m 0,1 km/h (0 Bft) W 278 0 min 0,000 mm 0,0 UV-I 0 W/m 9,7 C 9,8 C 1,6 km/h (1 Bft) 95,65 %
09.11.2015 05:59 9,8 C 99 % 1024,0 hPa 0,0 l/m 0,0 km/h (0 Bft) W 278 0 min 0,000 mm 0,0 UV-I 0 W/m 9,7 C 9,8 C 0,0 km/h (0 Bft) 100,00 %
09.11.2015 06:00 9,8 C 99 % 1024,0 hPa 0,0 l/m 0,0 km/h (0 Bft) W 278 0 min 0,000 mm 0,0 UV-I 0 W/m 9,7 C 9,8 C 0,0 km/h (0 Bft) 100,00 %
09.11.2015 06:01 9,8 C 99 % 1024,0 hPa 0,0 l/m 0,0 km/h (0 Bft) W 278 0 min 0,000 mm 0,0 UV-I 0 W/m 9,7 C 9,8 C 0,0 km/h (0 Bft) 100,00 %
09.11.2015 06:02 9,8 C 99 % 1024,0 hPa 0,0 l/m 0,0 km/h (0 Bft) W 278 0 min 0,000 mm 0,0 UV-I 0 W/m 9,7 C 9,8 C 0,0 km/h (0 Bft) 100,00 %
09.11.2015 06:03 9,9 C 99 % 1024,1 hPa 0,0 l/m 0,5 km/h (0 Bft) W-SW 257 0 min 0,000 mm 0,0 UV-I 0 W/m 9,8 C 9,9 C 1,6 km/h (1 Bft) 100,00 %
09.11.2015 06:04 9,9 C 99 % 1024,1 hPa 0,0 l/m 1,8 km/h (1 Bft) W-SW 256 0 min 0,000 mm 0,0 UV-I 0 W/m 9,8 C 9,9 C 3,2 km/h (1 Bft) 100,00 %
09.11.2015 06:05 9,8 C 99 % 1024,1 hPa 0,0 l/m 1,1 km/h (1 Bft) W-SW 252 0 min 0,000 mm 0,0 UV-I 0 W/m 9,7 C 9,8 C 3,2 km/h (1 Bft) 100,00 %
09.11.2015 06:06 9,9 C 99 % 1024,1 hPa 0,0 l/m 1,1 km/h (1 Bft) W-SW 252 0 min 0,000 mm 0,0 UV-I 0 W/m 9,8 C 9,9 C 3,2 km/h (1 Bft) 100,00 %
09.11.2015 06:07 9,9 C 99 % 1024,1 hPa 0,0 l/m 1,0 km/h (0 Bft) W-SW 252 0 min 0,000 mm 0,0 UV-I 0 W/m 9,8 C 9,9 C 1,6 km/h (1 Bft) 100,00 %
09.11.2015 06:08 9,9 C 99 % 1024,1 hPa 0,0 l/m 0,8 km/h (0 Bft) W-SW 254 0 min 0,000 mm 0,0 UV-I 0 W/m 9,8 C 9,9 C 1,6 km/h (1 Bft) 100,00 %
09.11.2015 06:09 9,9 C 99 % 1024,1 hPa 0,0 l/m 0,2 km/h (0 Bft) W-SW 254 0 min 0,000 mm 0,0 UV-I 0 W/m 9,8 C 9,9 C 1,6 km/h (1 Bft) 100,00 %
09.11.2015 06:10 9,9 C 99 % 1024,1 hPa 0,0 l/m 0,3 km/h (0 Bft) W-SW 254 0 min 0,000 mm 0,0 UV-I 0 W/m 9,8 C 9,9 C 1,6 km/h (1 Bft) 100,00 %
09.11.2015 06:11 9,9 C 99 % 1024,2 hPa 0,0 l/m 1,2 km/h (1 Bft) W-SW 255 0 min 0,000 mm 0,0 UV-I 0 W/m 9,8 C 9,9 C 1,6 km/h (1 Bft) 100,00 %
09.11.2015 06:12 9,9 C 99 % 1024,2 hPa 0,0 l/m 1,1 km/h (1 Bft) W-SW 255 0 min 0,000 mm 0,0 UV-I 0 W/m 9,8 C 9,9 C 1,6 km/h (1 Bft) 100,00 %
09.11.2015 06:13 9,9 C 99 % 1024,2 hPa 0,0 l/m 0,7 km/h (0 Bft) W-SW 255 0 min 0,000 mm 0,0 UV-I 0 W/m 9,8 C 9,9 C 1,6 km/h (1 Bft) 100,00 %
09.11.2015 06:14 9,9 C 99 % 1024,2 hPa 0,0 l/m 1,0 km/h (0 Bft) W-SW 255 0 min 0,000 mm 0,0 UV-I 0 W/m 9,8 C 9,9 C 1,6 km/h (1 Bft) 100,00 %
09.11.2015 06:15 9,9 C 99 % 1024,3 hPa 0,0 l/m 1,1 km/h (1 Bft) W 261 0 min 0,000 mm 0,0 UV-I 0 W/m 9,8 C 9,9 C 1,6 km/h (1 Bft) 100,00 %
09.11.2015 06:16 9,9 C 99 % 1024,3 hPa 0,0 l/m 0,6 km/h (0 Bft) W 261 0 min 0,000 mm 0,0 UV-I 0 W/m 9,8 C 9,9 C 1,6 km/h (1 Bft) 100,00 %
09.11.2015 06:17 9,9 C 99 % 1024,3 hPa 0,0 l/m 0,2 km/h (0 Bft) W 261 0 min 0,000 mm 0,0 UV-I 0 W/m 9,8 C 9,9 C 1,6 km/h (1 Bft) 100,00 %
09.11.2015 06:18 9,9 C 99 % 1024,3 hPa 0,0 l/m 0,4 km/h (0 Bft) W 264 0 min 0,000 mm 0,0 UV-I 0 W/m 9,8 C 9,9 C 1,6 km/h (1 Bft) 100,00 %
09.11.2015 06:19 9,9 C 99 % 1024,3 hPa 0,0 l/m 0,5 km/h (0 Bft) W 267 0 min 0,000 mm 0,0 UV-I 0 W/m 9,8 C 9,9 C 1,6 km/h (1 Bft) 100,00 %
09.11.2015 06:20 9,9 C 99 % 1024,3 hPa 0,0 l/m 0,3 km/h (0 Bft) W 267 0 min 0,000 mm 0,0 UV-I 0 W/m 9,8 C 9,9 C 1,6 km/h (1 Bft) 95,83 %
09.11.2015 06:21 9,9 C 99 % 1024,3 hPa 0,0 l/m 0,0 km/h (0 Bft) W 267 0 min 0,000 mm 0,0 UV-I 0 W/m 9,8 C 9,9 C 0,0 km/h (0 Bft) 100,00 %
09.11.2015 06:22 10,0 C 99 % 1024,4 hPa 0,0 l/m 1,1 km/h (1 Bft) N-NW 335 0 min 0,000 mm 0,0 UV-I 0 W/m 9,8 C 10,0 C 3,2 km/h (1 Bft) 95,83 %
09.11.2015 06:23 10,0 C 99 % 1024,4 hPa 0,0 l/m 0,1 km/h (0 Bft) N-NW 335 0 min 0,000 mm 0,0 UV-I 0 W/m 9,8 C 10,0 C 1,6 km/h (1 Bft) 100,00 %
09.11.2015 06:24 10,0 C 99 % 1024,4 hPa 0,0 l/m 0,0 km/h (0 Bft) N-NW 335 0 min 0,000 mm 0,0 UV-I 0 W/m 9,8 C 10,0 C 0,0 km/h (0 Bft) 100,00 %
09.11.2015 06:25 10,0 C 99 % 1024,4 hPa 0,0 l/m 0,8 km/h (0 Bft) W-SW 243 0 min 0,000 mm 0,0 UV-I 0 W/m 9,8 C 10,0 C 3,2 km/h (1 Bft) 100,00 %
09.11.2015 06:26 9,9 C 99 % 1024,4 hPa 0,0 l/m 0,8 km/h (0 Bft) W-SW 243 0 min 0,000 mm 0,0 UV-I 0 W/m 9,8 C 9,9 C 1,6 km/h (1 Bft) 100,00 %
09.11.2015 06:27 9,9 C 99 % 1024,4 hPa 0,0 l/m 0,1 km/h (0 Bft) W-SW 243 0 min 0,000 mm 0,0 UV-I 0 W/m 9,8 C 9,9 C 1,6 km/h (1 Bft) 100,00 %
09.11.2015 06:28 9,9 C 99 % 1024,4 hPa 0,0 l/m 0,5 km/h (0 Bft) W-SW 243 0 min 0,000 mm 0,0 UV-I 0 W/m 9,8 C 9,9 C 1,6 km/h (1 Bft) 100,00 %
09.11.2015 06:29 9,9 C 99 % 1024,3 hPa 0,0 l/m 0,9 km/h (0 Bft) W-SW 243 0 min 0,000 mm 0,0 UV-I 0 W/m 9,8 C 9,9 C 1,6 km/h (1 Bft) 100,00 %
09.11.2015 06:30 9,9 C 99 % 1024,3 hPa 0,0 l/m 1,9 km/h (1 Bft) W-NW 283 0 min 0,000 mm 0,0 UV-I 0 W/m 9,8 C 9,9 C 3,2 km/h (1 Bft) 95,65 %
09.11.2015 06:31 9,9 C 99 % 1024,3 hPa 0,0 l/m 2,6 km/h (1 Bft) W 274 0 min 0,000 mm 0,0 UV-I 0 W/m 9,8 C 9,9 C 4,8 km/h (1 Bft) 100,00 %
09.11.2015 06:32 9,9 C 99 % 1024,3 hPa 0,0 l/m 1,3 km/h (1 Bft) W 271 0 min 0,000 mm 0,0 UV-I 0 W/m 9,8 C 9,9 C 3,2 km/h (1 Bft) 100,00 %
09.11.2015 06:33 10,0 C 99 % 1024,3 hPa 0,0 l/m 0,5 km/h (0 Bft) W 271 0 min 0,000 mm 0,0 UV-I 0 W/m 9,8 C 10,0 C 1,6 km/h (1 Bft) 100,00 %
09.11.2015 06:34 10,0 C 99 % 1024,3 hPa 0,0 l/m 0,0 km/h (0 Bft) W 271 0 min 0,000 mm 0,0 UV-I 0 W/m 9,8 C 10,0 C 0,0 km/h (0 Bft) 100,00 %
09.11.2015 06:35 10,0 C 99 % 1024,3 hPa 0,0 l/m 0,0 km/h (0 Bft) W 271 0 min 0,000 mm 0,0 UV-I 0 W/m 9,8 C 10,0 C 0,0 km/h (0 Bft) 100,00 %
09.11.2015 06:36 10,0 C 99 % 1024,3 hPa 0,0 l/m 0,1 km/h (0 Bft) W 271 0 min 0,000 mm 0,0 UV-I 0 W/m 9,8 C 10,0 C 1,6 km/h (1 Bft) 100,00 %
09.11.2015 06:37 10,0 C 99 % 1024,3 hPa 0,0 l/m 0,1 km/h (0 Bft) N 11 0 min 0,000 mm 0,0 UV-I 0 W/m 9,8 C 10,0 C 1,6 km/h (1 Bft) 100,00 %
09.11.2015 06:38 10,0 C 99 % 1024,5 hPa 0,0 l/m 0,1 km/h (0 Bft) N 11 0 min 0,000 mm 0,0 UV-I 0 W/m 9,8 C 10,0 C 1,6 km/h (1 Bft) 100,00 %
09.11.2015 06:39 10,0 C 99 % 1024,4 hPa 0,0 l/m 0,0 km/h (0 Bft) N 11 0 min 0,000 mm 0,0 UV-I 0 W/m 9,8 C 10,0 C 0,0 km/h (0 Bft) 95,65 %
09.11.2015 06:40 10,0 C 99 % 1024,5 hPa 0,0 l/m 0,0 km/h (0 Bft) N 11 0 min 0,000 mm 0,0 UV-I 0 W/m 9,8 C 10,0 C 0,0 km/h (0 Bft) 100,00 %
09.11.2015 06:41 10,0 C 99 % 1024,4 hPa 0,0 l/m 0,0 km/h (0 Bft) N 11 0 min 0,000 mm 0,0 UV-I 0 W/m 9,8 C 10,0 C 0,0 km/h (0 Bft) 100,00 %
09.11.2015 06:42 10,0 C 99 % 1024,5 hPa 0,0 l/m 0,3 km/h (0 Bft) N-NO 16 0 min 0,000 mm 0,0 UV-I 0 W/m 9,8 C 10,0 C 1,6 km/h (1 Bft) 100,00 %
09.11.2015 06:43 10,0 C 99 % 1024,5 hPa 0,0 l/m 0,4 km/h (0 Bft) N-NO 16 0 min 0,000 mm 0,0 UV-I 0 W/m 9,8 C 10,0 C 1,6 km/h (1 Bft) 95,65 %
09.11.2015 06:44 10,0 C 99 % 1024,5 hPa 0,0 l/m 1,5 km/h (1 Bft) N-NO 26 0 min 0,000 mm 0,0 UV-I 0 W/m 9,8 C 10,0 C 3,2 km/h (1 Bft) 100,00 %
09.11.2015 06:45 10,0 C 99 % 1024,6 hPa 0,0 l/m 0,5 km/h (0 Bft) W 267 0 min 0,000 mm 0,0 UV-I 0 W/m 9,8 C 10,0 C 1,6 km/h (1 Bft) 100,00 %
09.11.2015 06:46 10,0 C 99 % 1024,5 hPa 0,0 l/m 1,6 km/h (1 Bft) W-SW 238 0 min 0,000 mm 0,0 UV-I 0 W/m 9,8 C 10,0 C 3,2 km/h (1 Bft) 100,00 %
09.11.2015 06:47 9,9 C 99 % 1024,6 hPa 0,0 l/m 1,3 km/h (1 Bft) W-SW 238 0 min 0,000 mm 0,0 UV-I 0 W/m 9,8 C 9,9 C 3,2 km/h (1 Bft) 100,00 %
09.11.2015 06:48 9,9 C 99 % 1024,6 hPa 0,0 l/m 2,1 km/h (1 Bft) W-SW 253 0 min 0,000 mm 0,0 UV-I 0 W/m 9,8 C 9,9 C 4,8 km/h (1 Bft) 100,00 %
09.11.2015 06:49 9,9 C 99 % 1024,6 hPa 0,0 l/m 1,8 km/h (1 Bft) N-NW 335 0 min 0,000 mm 0,0 UV-I 0 W/m 9,8 C 9,9 C 3,2 km/h (1 Bft) 86,96 %
09.11.2015 06:50 9,9 C 99 % 1024,6 hPa 0,0 l/m 1,5 km/h (1 Bft) NW 319 0 min 0,000 mm 0,0 UV-I 0 W/m 9,8 C 9,9 C 3,2 km/h (1 Bft) 100,00 %
09.11.2015 06:51 9,9 C 99 % 1024,6 hPa 0,0 l/m 0,6 km/h (0 Bft) NW 323 0 min 0,000 mm 0,0 UV-I 0 W/m 9,8 C 9,9 C 1,6 km/h (1 Bft) 100,00 %
09.11.2015 06:52 9,9 C 99 % 1024,6 hPa 0,0 l/m 2,8 km/h (1 Bft) W-NW 302 0 min 0,000 mm 0,0 UV-I 0 W/m 9,8 C 9,9 C 4,8 km/h (1 Bft) 100,00 %
09.11.2015 06:53 9,9 C 99 % 1024,7 hPa 0,0 l/m 3,6 km/h (1 Bft) W 265 0 min 0,000 mm 0,0 UV-I 0 W/m 9,8 C 9,9 C 6,4 km/h (2 Bft) 100,00 %
09.11.2015 06:54 9,9 C 99 % 1024,7 hPa 0,0 l/m 2,0 km/h (1 Bft) NW 304 0 min 0,000 mm 0,0 UV-I 0 W/m 9,8 C 9,9 C 3,2 km/h (1 Bft) 100,00 %
09.11.2015 06:55 9,9 C 99 % 1024,7 hPa 0,0 l/m 1,1 km/h (1 Bft) NW 304 0 min 0,000 mm 0,0 UV-I 0 W/m 9,8 C 9,9 C 3,2 km/h (1 Bft) 95,65 %
09.11.2015 06:56 9,9 C 99 % 1024,7 hPa 0,0 l/m 0,8 km/h (0 Bft) NW 304 0 min 0,000 mm 0,0 UV-I 0 W/m 9,8 C 9,9 C 1,6 km/h (1 Bft) 100,00 %
09.11.2015 06:57 9,8 C 99 % 1024,8 hPa 0,0 l/m 0,9 km/h (0 Bft) W-SW 253 0 min 0,000 mm 0,0 UV-I 0 W/m 9,7 C 9,8 C 3,2 km/h (1 Bft) 95,65 %
09.11.2015 06:58 9,8 C 99 % 1024,8 hPa 0,0 l/m 2,1 km/h (1 Bft) W 273 0 min 0,000 mm 0,0 UV-I 0 W/m 9,7 C 9,8 C 3,2 km/h (1 Bft) 100,00 %
09.11.2015 06:59 9,8 C 99 % 1024,8 hPa 0,0 l/m 0,1 km/h (0 Bft) W 273 0 min 0,000 mm 0,0 UV-I 0 W/m 9,7 C 9,8 C 1,6 km/h (1 Bft) 100,00 %
09.11.2015 07:00 9,8 C 99 % 1024,7 hPa 0,0 l/m 0,0 km/h (0 Bft) W 273 0 min 0,000 mm 0,0 UV-I 0 W/m 9,7 C 9,8 C 0,0 km/h (0 Bft) 100,00 %
09.11.2015 07:01 9,9 C 99 % 1024,8 hPa 0,0 l/m 0,7 km/h (0 Bft) W 273 0 min 0,000 mm 0,0 UV-I 0 W/m 9,8 C 9,9 C 3,2 km/h (1 Bft) 100,00 %
09.11.2015 07:02 9,9 C 99 % 1024,8 hPa 0,0 l/m 2,0 km/h (1 Bft) W 265 0 min 0,000 mm 0,0 UV-I 0 W/m 9,8 C 9,9 C 3,2 km/h (1 Bft) 100,00 %
09.11.2015 07:03 9,9 C 99 % 1024,8 hPa 0,0 l/m 2,4 km/h (1 Bft) W 259 0 min 0,000 mm 0,0 UV-I 0 W/m 9,8 C 9,9 C 3,2 km/h (1 Bft) 100,00 %
09.11.2015 07:04 9,9 C 99 % 1024,8 hPa 0,0 l/m 2,6 km/h (1 Bft) W 275 0 min 0,000 mm 0,0 UV-I 0 W/m 9,8 C 9,9 C 4,8 km/h (1 Bft) 100,00 %
09.11.2015 07:05 9,9 C 99 % 1024,8 hPa 0,0 l/m 0,9 km/h (0 Bft) W-SW 249 0 min 0,000 mm 0,0 UV-I 0 W/m 9,8 C 9,9 C 3,2 km/h (1 Bft) 100,00 %
09.11.2015 07:06 9,9 C 99 % 1024,9 hPa 0,0 l/m 0,9 km/h (0 Bft) N 9 0 min 0,000 mm 0,0 UV-I 0 W/m 9,8 C 9,9 C 1,6 km/h (1 Bft) 100,00 %
09.11.2015 07:07 9,8 C 99 % 1024,9 hPa 0,0 l/m 0,3 km/h (0 Bft) N 9 0 min 0,000 mm 0,0 UV-I 0 W/m 9,7 C 9,8 C 1,6 km/h (1 Bft) 95,83 %
09.11.2015 07:08 9,8 C 99 % 1024,9 hPa 0,0 l/m 0,1 km/h (0 Bft) N 9 0 min 0,000 mm 0,0 UV-I 0 W/m 9,7 C 9,8 C 1,6 km/h (1 Bft) 100,00 %
09.11.2015 07:09 9,8 C 99 % 1025,0 hPa 0,0 l/m 1,7 km/h (1 Bft) NW 319 0 min 0,000 mm 0,0 UV-I 0 W/m 9,7 C 9,8 C 3,2 km/h (1 Bft) 100,00 %
09.11.2015 07:10 9,8 C 99 % 1025,0 hPa 0,0 l/m 1,7 km/h (1 Bft) N 355 0 min 0,000 mm 0,0 UV-I 0 W/m 9,7 C 9,8 C 3,2 km/h (1 Bft) 100,00 %
09.11.2015 07:11 9,8 C 99 % 1025,0 hPa 0,0 l/m 1,2 km/h (1 Bft) S-SW 213 0 min 0,000 mm 0,0 UV-I 0 W/m 9,7 C 9,8 C 4,8 km/h (1 Bft) 100,00 %
09.11.2015 07:12 9,8 C 99 % 1025,0 hPa 0,0 l/m 2,2 km/h (1 Bft) S 170 0 min 0,000 mm 0,0 UV-I 0 W/m 9,7 C 9,8 C 3,2 km/h (1 Bft) 95,65 %
09.11.2015 07:13 9,7 C 99 % 1025,0 hPa 0,0 l/m 0,3 km/h (0 Bft) S 170 0 min 0,000 mm 0,0 UV-I 0 W/m 9,6 C 9,7 C 1,6 km/h (1 Bft) 100,00 %
09.11.2015 07:14 9,7 C 99 % 1025,1 hPa 0,0 l/m 1,0 km/h (0 Bft) SW 225 0 min 0,000 mm 0,0 UV-I 3 W/m 9,6 C 9,7 C 3,2 km/h (1 Bft) 100,00 %
09.11.2015 07:15 9,7 C 99 % 1025,1 hPa 0,0 l/m 1,5 km/h (1 Bft) NW 311 0 min 0,000 mm 0,0 UV-I 5 W/m 9,6 C 9,7 C 3,2 km/h (1 Bft) 100,00 %
09.11.2015 07:16 9,7 C 99 % 1025,2 hPa 0,0 l/m 2,6 km/h (1 Bft) W 281 0 min 0,000 mm 0,0 UV-I 5 W/m 9,6 C 9,7 C 3,2 km/h (1 Bft) 100,00 %
09.11.2015 07:17 9,7 C 99 % 1025,2 hPa 0,0 l/m 1,7 km/h (1 Bft) W 259 0 min 0,000 mm 0,0 UV-I 5 W/m 9,6 C 9,7 C 4,8 km/h (1 Bft) 100,00 %
09.11.2015 07:18 9,6 C 99 % 1025,2 hPa 0,0 l/m 0,9 km/h (0 Bft) N-NW 328 0 min 0,000 mm 0,0 UV-I 5 W/m 9,5 C 9,6 C 3,2 km/h (1 Bft) 100,00 %
09.11.2015 07:19 9,6 C 99 % 1025,2 hPa 0,0 l/m 1,5 km/h (1 Bft) W 277 0 min 0,000 mm 0,0 UV-I 5 W/m 9,5 C 9,6 C 3,2 km/h (1 Bft) 100,00 %
09.11.2015 07:20 9,6 C 99 % 1025,2 hPa 0,0 l/m 1,9 km/h (1 Bft) S-SW 208 0 min 0,000 mm 0,0 UV-I 5 W/m 9,5 C 9,6 C 3,2 km/h (1 Bft) 100,00 %
09.11.2015 07:21 9,7 C 99 % 1025,2 hPa 0,0 l/m 2,1 km/h (1 Bft) W 273 0 min 0,000 mm 0,0 UV-I 5 W/m 9,6 C 9,7 C 4,8 km/h (1 Bft) 100,00 %
09.11.2015 07:22 9,7 C 99 % 1025,2 hPa 0,0 l/m 2,4 km/h (1 Bft) W 272 0 min 0,000 mm 0,0 UV-I 5 W/m 9,6 C 9,7 C 3,2 km/h (1 Bft) 100,00 %
09.11.2015 07:23 9,7 C 99 % 1025,3 hPa 0,0 l/m 1,6 km/h (1 Bft) W 272 0 min 0,000 mm 0,0 UV-I 5 W/m 9,6 C 9,7 C 3,2 km/h (1 Bft) 100,00 %
09.11.2015 07:24 9,7 C 99 % 1025,3 hPa 0,0 l/m 2,7 km/h (1 Bft) W 275 0 min 0,000 mm 0,0 UV-I 7 W/m 9,6 C 9,7 C 4,8 km/h (1 Bft) 100,00 %
09.11.2015 07:25 9,7 C 99 % 1025,3 hPa 0,0 l/m 2,5 km/h (1 Bft) W 280 0 min 0,000 mm 0,0 UV-I 7 W/m 9,6 C 9,7 C 4,8 km/h (1 Bft) 100,00 %
09.11.2015 07:26 9,6 C 99 % 1025,3 hPa 0,0 l/m 2,5 km/h (1 Bft) W 265 0 min 0,000 mm 0,0 UV-I 7 W/m 9,5 C 9,6 C 4,8 km/h (1 Bft) 100,00 %
09.11.2015 07:27 9,6 C 99 % 1025,3 hPa 0,0 l/m 1,8 km/h (1 Bft) W 268 0 min 0,000 mm 0,0 UV-I 7 W/m 9,5 C 9,6 C 3,2 km/h (1 Bft) 100,00 %
09.11.2015 07:28 9,6 C 99 % 1025,3 hPa 0,0 l/m 2,2 km/h (1 Bft) W 265 0 min 0,000 mm 0,0 UV-I 7 W/m 9,5 C 9,6 C 4,8 km/h (1 Bft) 100,00 %
09.11.2015 07:29 9,6 C 99 % 1025,3 hPa 0,0 l/m 1,3 km/h (1 Bft) SW 227 0 min 0,000 mm 0,0 UV-I 7 W/m 9,5 C 9,6 C 3,2 km/h (1 Bft) 100,00 %
09.11.2015 07:30 9,6 C 99 % 1025,4 hPa 0,0 l/m 1,4 km/h (1 Bft) SW 227 0 min 0,000 mm 0,0 UV-I 10 W/m 9,5 C 9,6 C 1,6 km/h (1 Bft) 100,00 %
09.11.2015 07:31 9,6 C 99 % 1025,4 hPa 0,0 l/m 0,6 km/h (0 Bft) SW 227 0 min 0,000 mm 0,0 UV-I 11 W/m 9,5 C 9,6 C 1,6 km/h (1 Bft) 100,00 %
09.11.2015 07:32 9,6 C 99 % 1025,4 hPa 0,0 l/m 2,2 km/h (1 Bft) W-SW 255 0 min 0,000 mm 0,0 UV-I 12 W/m 9,5 C 9,6 C 4,8 km/h (1 Bft) 95,83 %
09.11.2015 07:33 9,6 C 99 % 1025,5 hPa 0,0 l/m 2,3 km/h (1 Bft) W-NW 290 0 min 0,000 mm 0,0 UV-I 10 W/m 9,5 C 9,6 C 3,2 km/h (1 Bft) 99,39 %
09.11.2015 07:34 9,6 C 99 % 1025,4 hPa 0,0 l/m 2,3 km/h (1 Bft) W-SW 238 0 min 0,000 mm 0,0 UV-I 11 W/m 9,5 C 9,6 C 4,8 km/h (1 Bft) 100,00 %
09.11.2015 07:35 9,6 C 99 % 1025,4 hPa 0,0 l/m 1,2 km/h (1 Bft) W-SW 249 0 min 0,000 mm 0,0 UV-I 11 W/m 9,5 C 9,6 C 3,2 km/h (1 Bft) 100,00 %
09.11.2015 07:36 9,6 C 99 % 1025,3 hPa 0,0 l/m 2,3 km/h (1 Bft) W-SW 237 0 min 0,000 mm 0,0 UV-I 10 W/m 9,5 C 9,6 C 4,8 km/h (1 Bft) 100,00 %
09.11.2015 07:37 9,6 C 99 % 1025,3 hPa 0,0 l/m 3,4 km/h (1 Bft) SW 231 0 min 0,000 mm 0,0 UV-I 11 W/m 9,5 C 9,6 C 4,8 km/h (1 Bft) 100,00 %
09.11.2015 07:38 9,5 C 99 % 1025,2 hPa 0,0 l/m 2,3 km/h (1 Bft) SW 229 0 min 0,000 mm 0,0 UV-I 11 W/m 9,4 C 9,5 C 3,2 km/h (1 Bft) 95,65 %
09.11.2015 07:39 9,6 C 99 % 1025,3 hPa 0,0 l/m 2,5 km/h (1 Bft) W-SW 241 0 min 0,000 mm 0,0 UV-I 10 W/m 9,5 C 9,6 C 4,8 km/h (1 Bft) 95,83 %
09.11.2015 07:40 9,5 C 99 % 1025,3 hPa 0,0 l/m 2,7 km/h (1 Bft) SW 232 0 min 0,000 mm 0,0 UV-I 9 W/m 9,4 C 9,5 C 4,8 km/h (1 Bft) 100,00 %
09.11.2015 07:41 9,5 C 99 % 1025,2 hPa 0,0 l/m 4,3 km/h (1 Bft) S 190 0 min 0,000 mm 0,0 UV-I 12 W/m 9,4 C 9,5 C 6,4 km/h (2 Bft) 100,00 %
09.11.2015 07:42 9,4 C 99 % 1025,2 hPa 0,0 l/m 5,0 km/h (1 Bft) SW 216 0 min 0,000 mm 0,0 UV-I 12 W/m 9,3 C 9,4 C 6,4 km/h (2 Bft) 100,00 %
09.11.2015 07:43 9,4 C 99 % 1025,3 hPa 0,0 l/m 3,9 km/h (1 Bft) S-SW 196 0 min 0,000 mm 0,0 UV-I 12 W/m 9,3 C 9,4 C 4,8 km/h (1 Bft) 100,00 %
09.11.2015 07:44 9,4 C 99 % 1025,2 hPa 0,0 l/m 3,8 km/h (1 Bft) SW 217 0 min 0,000 mm 0,0 UV-I 14 W/m 9,3 C 9,4 C 4,8 km/h (1 Bft) 100,00 %
09.11.2015 07:45 9,4 C 99 % 1025,2 hPa 0,0 l/m 4,5 km/h (1 Bft) S 189 0 min 0,000 mm 0,0 UV-I 20 W/m 9,3 C 9,4 C 6,4 km/h (2 Bft) 100,00 %
09.11.2015 07:46 9,3 C 99 % 1025,2 hPa 0,0 l/m 4,6 km/h (1 Bft) W-SW 241 0 min 0,000 mm 0,0 UV-I 24 W/m 9,2 C 9,3 C 6,4 km/h (2 Bft) 95,65 %
09.11.2015 07:47 9,3 C 99 % 1025,2 hPa 0,0 l/m 5,8 km/h (2 Bft) S-SW 202 0 min 0,000 mm 0,0 UV-I 30 W/m 9,2 C 9,3 C 6,4 km/h (2 Bft) 100,00 %
09.11.2015 07:48 9,3 C 99 % 1025,2 hPa 0,0 l/m 3,2 km/h (1 Bft) S 188 0 min 0,000 mm 0,0 UV-I 31 W/m 9,2 C 9,3 C 6,4 km/h (2 Bft) 96,00 %
09.11.2015 07:49 9,3 C 99 % 1025,2 hPa 0,0 l/m 2,8 km/h (1 Bft) SW 219 0 min 0,000 mm 0,0 UV-I 32 W/m 9,2 C 9,3 C 4,8 km/h (1 Bft) 95,83 %
09.11.2015 07:50 9,3 C 99 % 1025,2 hPa 0,0 l/m 3,0 km/h (1 Bft) W-SW 244 0 min 0,000 mm 0,0 UV-I 34 W/m 9,2 C 9,3 C 4,8 km/h (1 Bft) 100,00 %
09.11.2015 07:51 9,3 C 99 % 1025,2 hPa 0,0 l/m 3,1 km/h (1 Bft) SW 217 0 min 0,000 mm 0,0 UV-I 37 W/m 9,2 C 9,3 C 4,8 km/h (1 Bft) 100,00 %
09.11.2015 07:52 9,3 C 99 % 1025,2 hPa 0,0 l/m 4,8 km/h (1 Bft) S-SW 213 0 min 0,000 mm 0,0 UV-I 48 W/m 9,2 C 9,3 C 6,4 km/h (2 Bft) 95,65 %
09.11.2015 07:53 9,3 C 99 % 1025,3 hPa 0,0 l/m 3,4 km/h (1 Bft) SW 236 0 min 0,000 mm 0,0 UV-I 50 W/m 9,2 C 9,3 C 4,8 km/h (1 Bft) 100,00 %
09.11.2015 07:54 9,3 C 99 % 1025,3 hPa 0,0 l/m 2,5 km/h (1 Bft) W-SW 256 0 min 0,000 mm 0,0 UV-I 56 W/m 9,2 C 9,3 C 3,2 km/h (1 Bft) 100,00 %
09.11.2015 07:55 9,3 C 99 % 1025,3 hPa 0,0 l/m 1,3 km/h (1 Bft) W 265 1 min 0,000 mm 0,0 UV-I 70 W/m 9,2 C 9,3 C 3,2 km/h (1 Bft) 100,00 %
09.11.2015 07:56 9,3 C 99 % 1025,3 hPa 0,0 l/m 2,8 km/h (1 Bft) SW 220 1 min 0,000 mm 0,0 UV-I 73 W/m 9,2 C 9,3 C 4,8 km/h (1 Bft) 95,65 %
09.11.2015 07:57 9,3 C 99 % 1025,3 hPa 0,0 l/m 2,5 km/h (1 Bft) S-SW 211 0 min 0,000 mm 0,0 UV-I 70 W/m 9,2 C 9,3 C 4,8 km/h (1 Bft) 100,00 %
09.11.2015 07:58 9,4 C 99 % 1025,3 hPa 0,0 l/m 3,4 km/h (1 Bft) SW 218 0 min 0,000 mm 0,0 UV-I 70 W/m 9,3 C 9,4 C 4,8 km/h (1 Bft) 91,30 %
09.11.2015 07:59 9,4 C 99 % 1025,3 hPa 0,0 l/m 2,9 km/h (1 Bft) S-SW 207 0 min 0,000 mm 0,0 UV-I 67 W/m 9,3 C 9,4 C 4,8 km/h (1 Bft) 95,83 %
09.11.2015 08:00 9,3 C 99 % 1025,3 hPa 0,0 l/m 4,7 km/h (1 Bft) S-SW 205 0 min 0,000 mm 0,0 UV-I 66 W/m 9,2 C 9,3 C 6,4 km/h (2 Bft) 100,00 %
09.11.2015 08:01 9,3 C 99 % 1025,3 hPa 0,0 l/m 4,8 km/h (1 Bft) W-SW 258 0 min 0,000 mm 0,0 UV-I 71 W/m 9,2 C 9,3 C 6,4 km/h (2 Bft) 100,00 %
09.11.2015 08:02 9,3 C 99 % 1025,3 hPa 0,0 l/m 3,0 km/h (1 Bft) W-SW 246 0 min 0,000 mm 0,0 UV-I 70 W/m 9,2 C 9,3 C 4,8 km/h (1 Bft) 100,00 %
09.11.2015 08:03 9,3 C 99 % 1025,4 hPa 0,0 l/m 3,4 km/h (1 Bft) W-SW 250 0 min 0,000 mm 0,0 UV-I 67 W/m 9,2 C 9,3 C 4,8 km/h (1 Bft) 95,83 %
09.11.2015 08:04 9,3 C 99 % 1025,4 hPa 0,0 l/m 2,8 km/h (1 Bft) W-SW 244 0 min 0,000 mm 0,0 UV-I 63 W/m 9,2 C 9,3 C 4,8 km/h (1 Bft) 100,00 %
09.11.2015 08:05 9,3 C 99 % 1025,4 hPa 0,0 l/m 4,1 km/h (1 Bft) W-SW 257 0 min 0,000 mm 0,0 UV-I 68 W/m 9,2 C 9,3 C 6,4 km/h (2 Bft) 100,00 %
09.11.2015 08:06 9,3 C 99 % 1025,4 hPa 0,0 l/m 3,4 km/h (1 Bft) W 279 0 min 0,000 mm 0,0 UV-I 70 W/m 9,2 C 9,3 C 6,4 km/h (2 Bft) 100,00 %
09.11.2015 08:07 9,3 C 99 % 1025,4 hPa 0,0 l/m 1,3 km/h (1 Bft) W 280 0 min 0,000 mm 0,0 UV-I 73 W/m 9,2 C 9,3 C 1,6 km/h (1 Bft) 100,00 %
09.11.2015 08:08 9,3 C 99 % 1025,5 hPa 0,0 l/m 2,1 km/h (1 Bft) W-NW 286 0 min 0,000 mm 0,0 UV-I 66 W/m 9,2 C 9,3 C 3,2 km/h (1 Bft) 100,00 %
09.11.2015 08:09 9,3 C 99 % 1025,5 hPa 0,0 l/m 2,5 km/h (1 Bft) W 272 0 min 0,000 mm 0,0 UV-I 66 W/m 9,2 C 9,3 C 3,2 km/h (1 Bft) 100,00 %
09.11.2015 08:10 9,3 C 99 % 1025,5 hPa 0,0 l/m 1,4 km/h (1 Bft) W 259 0 min 0,000 mm 0,0 UV-I 56 W/m 9,2 C 9,3 C 3,2 km/h (1 Bft) 100,00 %
09.11.2015 08:11 9,3 C 99 % 1025,6 hPa 0,0 l/m 2,3 km/h (1 Bft) SW 231 0 min 0,000 mm 0,0 UV-I 44 W/m 9,2 C 9,3 C 4,8 km/h (1 Bft) 100,00 %
09.11.2015 08:12 9,3 C 99 % 1025,5 hPa 0,0 l/m 3,6 km/h (1 Bft) W-SW 250 0 min 0,000 mm 0,0 UV-I 44 W/m 9,2 C 9,3 C 4,8 km/h (1 Bft) 100,00 %
09.11.2015 08:13 9,3 C 99 % 1025,5 hPa 0,0 l/m 3,9 km/h (1 Bft) W-SW 257 0 min 0,000 mm 0,0 UV-I 44 W/m 9,2 C 9,3 C 4,8 km/h (1 Bft) 100,00 %
09.11.2015 08:14 9,3 C 99 % 1025,5 hPa 0,0 l/m 2,6 km/h (1 Bft) W-SW 244 0 min 0,000 mm 0,0 UV-I 42 W/m 9,2 C 9,3 C 4,8 km/h (1 Bft) 100,00 %
09.11.2015 08:15 9,3 C 99 % 1025,5 hPa 0,0 l/m 2,5 km/h (1 Bft) W 264 0 min 0,000 mm 0,0 UV-I 37 W/m 9,2 C 9,3 C 4,8 km/h (1 Bft) 95,65 %
09.11.2015 08:16 9,3 C 99 % 1025,5 hPa 0,0 l/m 4,2 km/h (1 Bft) SW 227 0 min 0,000 mm 0,0 UV-I 38 W/m 9,2 C 9,3 C 6,4 km/h (2 Bft) 100,00 %
09.11.2015 08:17 9,3 C 99 % 1025,5 hPa 0,0 l/m 2,5 km/h (1 Bft) W 274 0 min 0,000 mm 0,0 UV-I 45 W/m 9,2 C 9,3 C 4,8 km/h (1 Bft) 100,00 %
09.11.2015 08:18 9,2 C 99 % 1025,5 hPa 0,0 l/m 1,9 km/h (1 Bft) S-SW 207 0 min 0,000 mm 0,0 UV-I 51 W/m 9,1 C 9,2 C 3,2 km/h (1 Bft) 100,00 %
09.11.2015 08:19 9,3 C 99 % 1025,4 hPa 0,0 l/m 5,4 km/h (1 Bft) S-SW 209 0 min 0,000 mm 0,0 UV-I 54 W/m 9,2 C 9,3 C 6,4 km/h (2 Bft) 100,00 %
09.11.2015 08:20 9,3 C 99 % 1025,4 hPa 0,0 l/m 4,7 km/h (1 Bft) SW 223 0 min 0,000 mm 0,0 UV-I 43 W/m 9,2 C 9,3 C 6,4 km/h (2 Bft) 100,00 %
09.11.2015 08:21 9,2 C 99 % 1025,4 hPa 0,0 l/m 4,5 km/h (1 Bft) SW 235 0 min 0,000 mm 0,0 UV-I 40 W/m 9,1 C 9,2 C 6,4 km/h (2 Bft) 100,00 %
09.11.2015 08:22 9,2 C 99 % 1025,4 hPa 0,0 l/m 3,2 km/h (1 Bft) SW 214 0 min 0,000 mm 0,0 UV-I 45 W/m 9,1 C 9,2 C 4,8 km/h (1 Bft) 100,00 %
09.11.2015 08:23 9,3 C 99 % 1025,4 hPa 0,0 l/m 2,8 km/h (1 Bft) SW 230 0 min 0,000 mm 0,0 UV-I 48 W/m 9,2 C 9,3 C 4,8 km/h (1 Bft) 100,00 %
09.11.2015 08:24 9,3 C 99 % 1025,5 hPa 0,0 l/m 2,7 km/h (1 Bft) W-NW 291 0 min 0,000 mm 0,0 UV-I 44 W/m 9,2 C 9,3 C 4,8 km/h (1 Bft) 100,00 %
09.11.2015 08:25 9,3 C 99 % 1025,5 hPa 0,0 l/m 2,7 km/h (1 Bft) SW 223 0 min 0,000 mm 0,0 UV-I 49 W/m 9,2 C 9,3 C 4,8 km/h (1 Bft) 100,00 %
09.11.2015 08:26 9,3 C 99 % 1025,5 hPa 0,0 l/m 2,1 km/h (1 Bft) SW 225 0 min 0,000 mm 0,0 UV-I 65 W/m 9,2 C 9,3 C 3,2 km/h (1 Bft) 100,00 %
09.11.2015 08:27 9,3 C 99 % 1025,5 hPa 0,0 l/m 2,5 km/h (1 Bft) W-NW 289 0 min 0,000 mm 0,0 UV-I 68 W/m 9,2 C 9,3 C 3,2 km/h (1 Bft) 100,00 %
09.11.2015 08:28 9,3 C 99 % 1025,5 hPa 0,0 l/m 2,4 km/h (1 Bft) W 275 0 min 0,000 mm 0,0 UV-I 72 W/m 9,2 C 9,3 C 3,2 km/h (1 Bft) 95,65 %
09.11.2015 08:29 9,3 C 99 % 1025,5 hPa 0,0 l/m 1,5 km/h (1 Bft) W 275 0 min 0,000 mm 0,0 UV-I 63 W/m 9,2 C 9,3 C 3,2 km/h (1 Bft) 100,00 %
09.11.2015 08:30 9,3 C 99 % 1025,5 hPa 0,0 l/m 2,1 km/h (1 Bft) W 276 0 min 0,000 mm 0,0 UV-I 56 W/m 9,2 C 9,3 C 3,2 km/h (1 Bft) 100,00 %
09.11.2015 08:31 9,3 C 99 % 1025,5 hPa 0,0 l/m 3,0 km/h (1 Bft) S-SW 209 0 min 0,000 mm 0,0 UV-I 54 W/m 9,2 C 9,3 C 4,8 km/h (1 Bft) 100,00 %
09.11.2015 08:32 9,3 C 99 % 1025,5 hPa 0,0 l/m 2,9 km/h (1 Bft) W-SW 240 0 min 0,000 mm 0,0 UV-I 54 W/m 9,2 C 9,3 C 4,8 km/h (1 Bft) 96,15 %
09.11.2015 08:33 9,3 C 99 % 1025,5 hPa 0,0 l/m 2,1 km/h (1 Bft) S-SW 204 0 min 0,000 mm 0,0 UV-I 58 W/m 9,2 C 9,3 C 3,2 km/h (1 Bft) 100,00 %
09.11.2015 08:34 9,3 C 99 % 1025,5 hPa 0,0 l/m 2,1 km/h (1 Bft) W-SW 241 0 min 0,000 mm 0,0 UV-I 60 W/m 9,2 C 9,3 C 4,8 km/h (1 Bft) 100,00 %
09.11.2015 08:35 9,4 C 99 % 1025,5 hPa 0,0 l/m 1,8 km/h (1 Bft) W-SW 243 0 min 0,000 mm 0,0 UV-I 61 W/m 9,3 C 9,4 C 3,2 km/h (1 Bft) 100,00 %
09.11.2015 08:36 9,4 C 99 % 1025,5 hPa 0,0 l/m 3,4 km/h (1 Bft) W-SW 243 0 min 0,000 mm 0,0 UV-I 54 W/m 9,3 C 9,4 C 4,8 km/h (1 Bft) 95,65 %
09.11.2015 08:37 9,3 C 99 % 1025,4 hPa 0,0 l/m 2,4 km/h (1 Bft) SW 214 0 min 0,000 mm 0,0 UV-I 58 W/m 9,2 C 9,3 C 4,8 km/h (1 Bft) 100,00 %
09.11.2015 08:38 9,3 C 99 % 1025,4 hPa 0,0 l/m 1,2 km/h (1 Bft) W-SW 242 0 min 0,000 mm 0,0 UV-I 60 W/m 9,2 C 9,3 C 3,2 km/h (1 Bft) 100,00 %
09.11.2015 08:39 9,3 C 99 % 1025,4 hPa 0,0 l/m 2,5 km/h (1 Bft) S-SW 209 0 min 0,000 mm 0,0 UV-I 68 W/m 9,2 C 9,3 C 4,8 km/h (1 Bft) 100,00 %
09.11.2015 08:40 9,3 C 99 % 1025,4 hPa 0,0 l/m 2,0 km/h (1 Bft) SW 230 0 min 0,000 mm 0,0 UV-I 79 W/m 9,2 C 9,3 C 4,8 km/h (1 Bft) 100,00 %
09.11.2015 08:41 9,4 C 99 % 1025,4 hPa 0,0 l/m 2,2 km/h (1 Bft) SW 236 0 min 0,000 mm 0,0 UV-I 85 W/m 9,3 C 9,4 C 3,2 km/h (1 Bft) 100,00 %
09.11.2015 08:42 9,4 C 99 % 1025,4 hPa 0,0 l/m 2,6 km/h (1 Bft) SW 236 0 min 0,000 mm 0,0 UV-I 90 W/m 9,3 C 9,4 C 4,8 km/h (1 Bft) 100,00 %
09.11.2015 08:43 9,3 C 99 % 1025,4 hPa 0,0 l/m 3,2 km/h (1 Bft) SW 229 0 min 0,000 mm 0,0 UV-I 92 W/m 9,2 C 9,3 C 4,8 km/h (1 Bft) 91,30 %
09.11.2015 08:44 9,3 C 99 % 1025,4 hPa 0,0 l/m 3,2 km/h (1 Bft) W 267 0 min 0,000 mm 0,0 UV-I 87 W/m 9,2 C 9,3 C 4,8 km/h (1 Bft) 100,00 %
09.11.2015 08:45 9,3 C 99 % 1025,4 hPa 0,0 l/m 2,1 km/h (1 Bft) W-SW 254 0 min 0,000 mm 0,0 UV-I 108 W/m 9,2 C 9,3 C 4,8 km/h (1 Bft) 95,65 %
09.11.2015 08:46 9,3 C 99 % 1025,3 hPa 0,0 l/m 1,7 km/h (1 Bft) W-SW 242 0 min 0,000 mm 0,0 UV-I 114 W/m 9,2 C 9,3 C 3,2 km/h (1 Bft) 100,00 %
09.11.2015 08:47 9,4 C 99 % 1025,4 hPa 0,0 l/m 3,5 km/h (1 Bft) SW 236 0 min 0,000 mm 0,0 UV-I 117 W/m 9,3 C 9,4 C 4,8 km/h (1 Bft) 100,00 %
09.11.2015 08:48 9,4 C 99 % 1025,4 hPa 0,0 l/m 2,7 km/h (1 Bft) W-NW 290 0 min 0,000 mm 0,0 UV-I 119 W/m 9,3 C 9,4 C 3,2 km/h (1 Bft) 100,00 %
09.11.2015 08:49 9,4 C 99 % 1025,4 hPa 0,0 l/m 1,7 km/h (1 Bft) W-SW 254 0 min 0,000 mm 0,0 UV-I 104 W/m 9,3 C 9,4 C 3,2 km/h (1 Bft) 95,65 %
09.11.2015 08:50 9,4 C 99 % 1025,4 hPa 0,0 l/m 3,2 km/h (1 Bft) SW 235 0 min 0,000 mm 0,0 UV-I 87 W/m 9,3 C 9,4 C 4,8 km/h (1 Bft) 100,00 %
09.11.2015 08:51 9,4 C 99 % 1025,4 hPa 0,0 l/m 3,0 km/h (1 Bft) SW 230 0 min 0,000 mm 0,0 UV-I 72 W/m 9,3 C 9,4 C 6,4 km/h (2 Bft) 95,65 %
09.11.2015 08:52 9,4 C 99 % 1025,4 hPa 0,0 l/m 1,7 km/h (1 Bft) W 267 0 min 0,000 mm 0,0 UV-I 66 W/m 9,3 C 9,4 C 3,2 km/h (1 Bft) 100,00 %
09.11.2015 08:53 9,4 C 99 % 1025,3 hPa 0,0 l/m 3,0 km/h (1 Bft) W-NW 290 0 min 0,000 mm 0,0 UV-I 61 W/m 9,3 C 9,4 C 4,8 km/h (1 Bft) 91,30 %
09.11.2015 08:54 9,3 C 99 % 1025,4 hPa 0,0 l/m 3,5 km/h (1 Bft) W 267 0 min 0,000 mm 0,0 UV-I 67 W/m 9,2 C 9,3 C 4,8 km/h (1 Bft) 100,00 %
09.11.2015 08:55 9,3 C 99 % 1025,4 hPa 0,0 l/m 1,5 km/h (1 Bft) W 268 0 min 0,000 mm 0,0 UV-I 51 W/m 9,2 C 9,3 C 3,2 km/h (1 Bft) 95,65 %
09.11.2015 08:56 9,3 C 99 % 1025,4 hPa 0,0 l/m 1,4 km/h (1 Bft) NW 309 0 min 0,000 mm 0,0 UV-I 94 W/m 9,2 C 9,3 C 3,2 km/h (1 Bft) 100,00 %
09.11.2015 08:57 9,3 C 99 % 1025,4 hPa 0,0 l/m 2,5 km/h (1 Bft) W 273 0 min 0,000 mm 0,0 UV-I 87 W/m 9,2 C 9,3 C 3,2 km/h (1 Bft) 100,00 %
09.11.2015 08:58 9,3 C 99 % 1025,5 hPa 0,0 l/m 2,7 km/h (1 Bft) W-NW 287 0 min 0,000 mm 0,0 UV-I 91 W/m 9,2 C 9,3 C 4,8 km/h (1 Bft) 100,00 %
09.11.2015 08:59 9,3 C 99 % 1025,5 hPa 0,0 l/m 3,5 km/h (1 Bft) W-NW 299 0 min 0,000 mm 0,0 UV-I 85 W/m 9,2 C 9,3 C 4,8 km/h (1 Bft) 95,65 %
09.11.2015 09:00 9,4 C 99 % 1025,5 hPa 0,0 l/m 2,6 km/h (1 Bft) W 273 0 min 0,000 mm 0,0 UV-I 95 W/m 9,3 C 9,4 C 3,2 km/h (1 Bft) 100,00 %
09.11.2015 09:02 9,4 C 99 % 1025,5 hPa 0,0 l/m 2,6 km/h (1 Bft) W-NW 296 0 min 0,025 mm 0,0 UV-I 92 W/m 9,3 C 9,4 C 4,8 km/h (1 Bft) 97,87 %
09.11.2015 09:03 9,4 C 99 % 1025,5 hPa 0,0 l/m 3,5 km/h (1 Bft) NW 311 0 min 0,000 mm 0,0 UV-I 71 W/m 9,3 C 9,4 C 4,8 km/h (1 Bft) 100,00 %
09.11.2015 09:04 9,4 C 99 % 1025,6 hPa 0,0 l/m 1,9 km/h (1 Bft) W 271 0 min 0,000 mm 0,0 UV-I 107 W/m 9,3 C 9,4 C 3,2 km/h (1 Bft) 100,00 %
09.11.2015 09:05 9,4 C 99 % 1025,6 hPa 0,0 l/m 1,1 km/h (1 Bft) N 11 0 min 0,000 mm 0,0 UV-I 112 W/m 9,3 C 9,4 C 1,6 km/h (1 Bft) 100,00 %
09.11.2015 09:06 9,5 C 99 % 1025,7 hPa 0,0 l/m 0,5 km/h (0 Bft) N-NW 340 0 min 0,000 mm 0,0 UV-I 94 W/m 9,4 C 9,5 C 1,6 km/h (1 Bft) 100,00 %
09.11.2015 09:07 9,6 C 99 % 1025,7 hPa 0,0 l/m 3,4 km/h (1 Bft) W-SW 240 0 min 0,000 mm 0,0 UV-I 110 W/m 9,5 C 9,6 C 4,8 km/h (1 Bft) 96,15 %
09.11.2015 09:08 9,6 C 99 % 1025,7 hPa 0,0 l/m 2,6 km/h (1 Bft) W-NW 282 0 min 0,000 mm 0,0 UV-I 99 W/m 9,5 C 9,6 C 4,8 km/h (1 Bft) 95,65 %
09.11.2015 09:09 9,5 C 99 % 1025,7 hPa 0,0 l/m 4,6 km/h (1 Bft) W 260 0 min 0,000 mm 0,0 UV-I 117 W/m 9,4 C 9,5 C 6,4 km/h (2 Bft) 100,00 %
09.11.2015 09:10 9,5 C 99 % 1025,7 hPa 0,0 l/m 2,2 km/h (1 Bft) W-SW 248 1 min 0,000 mm 0,0 UV-I 165 W/m 9,4 C 9,5 C 3,2 km/h (1 Bft) 100,00 %
09.11.2015 09:11 9,5 C 99 % 1025,7 hPa 0,0 l/m 2,5 km/h (1 Bft) W 272 0 min 0,000 mm 0,2 UV-I 147 W/m 9,4 C 9,5 C 4,8 km/h (1 Bft) 100,00 %
09.11.2015 09:12 9,6 C 99 % 1025,6 hPa 0,0 l/m 1,5 km/h (1 Bft) W 272 0 min 0,000 mm 0,5 UV-I 153 W/m 9,5 C 9,6 C 3,2 km/h (1 Bft) 100,00 %
09.11.2015 09:13 9,7 C 99 % 1025,7 hPa 0,0 l/m 2,1 km/h (1 Bft) W 270 1 min 0,000 mm 0,5 UV-I 179 W/m 9,6 C 9,7 C 3,2 km/h (1 Bft) 100,00 %
09.11.2015 09:14 9,7 C 99 % 1025,6 hPa 0,0 l/m 3,4 km/h (1 Bft) W 273 1 min 0,000 mm 0,5 UV-I 207 W/m 9,6 C 9,7 C 4,8 km/h (1 Bft) 100,00 %
09.11.2015 09:15 9,7 C 99 % 1025,6 hPa 0,0 l/m 4,4 km/h (1 Bft) W 274 1 min 0,000 mm 0,5 UV-I 233 W/m 9,6 C 9,7 C 6,4 km/h (2 Bft) 100,00 %
09.11.2015 09:16 9,7 C 99 % 1025,6 hPa 0,0 l/m 3,7 km/h (1 Bft) W 277 1 min 0,000 mm 0,5 UV-I 257 W/m 9,6 C 9,7 C 6,4 km/h (2 Bft) 100,00 %
09.11.2015 09:17 9,7 C 99 % 1025,6 hPa 0,0 l/m 3,2 km/h (1 Bft) W-NW 302 1 min 0,000 mm 0,5 UV-I 266 W/m 9,6 C 9,7 C 4,8 km/h (1 Bft) 100,00 %
09.11.2015 09:18 9,8 C 99 % 1025,6 hPa 0,0 l/m 3,7 km/h (1 Bft) W-NW 301 1 min 0,000 mm 0,5 UV-I 244 W/m 9,7 C 9,8 C 6,4 km/h (2 Bft) 100,00 %
09.11.2015 09:19 9,8 C 99 % 1025,6 hPa 0,0 l/m 2,1 km/h (1 Bft) W 280 1 min 0,000 mm 0,5 UV-I 230 W/m 9,7 C 9,8 C 4,8 km/h (1 Bft) 100,00 %
09.11.2015 09:20 9,9 C 99 % 1025,6 hPa 0,0 l/m 2,0 km/h (1 Bft) NW 305 1 min 0,000 mm 0,5 UV-I 285 W/m 9,8 C 9,9 C 4,8 km/h (1 Bft) 95,83 %
09.11.2015 09:21 9,9 C 99 % 1025,5 hPa 0,0 l/m 1,9 km/h (1 Bft) S-SW 205 1 min 0,000 mm 0,0 UV-I 287 W/m 9,8 C 9,9 C 3,2 km/h (1 Bft) 91,30 %
09.11.2015 09:22 9,9 C 99 % 1025,4 hPa 0,0 l/m 3,5 km/h (1 Bft) SW 227 1 min 0,000 mm 0,0 UV-I 235 W/m 9,8 C 9,9 C 4,8 km/h (1 Bft) 100,00 %
09.11.2015 09:23 9,8 C 99 % 1025,3 hPa 0,0 l/m 4,4 km/h (1 Bft) S-SW 201 0 min 0,000 mm 0,2 UV-I 167 W/m 9,7 C 9,8 C 6,4 km/h (2 Bft) 100,00 %
09.11.2015 09:24 9,8 C 99 % 1025,3 hPa 0,0 l/m 5,8 km/h (2 Bft) S-SW 202 0 min 0,000 mm 0,5 UV-I 168 W/m 9,7 C 9,8 C 8,0 km/h (2 Bft) 100,00 %
09.11.2015 09:25 9,8 C 99 % 1025,3 hPa 0,0 l/m 3,9 km/h (1 Bft) S-SW 213 0 min 0,000 mm 0,2 UV-I 153 W/m 9,7 C 9,8 C 4,8 km/h (1 Bft) 100,00 %
09.11.2015 09:26 9,8 C 99 % 1025,3 hPa 0,0 l/m 2,6 km/h (1 Bft) S-SW 200 0 min 0,000 mm 0,0 UV-I 162 W/m 9,7 C 9,8 C 4,8 km/h (1 Bft) 100,00 %
09.11.2015 09:27 9,9 C 99 % 1025,3 hPa 0,0 l/m 3,3 km/h (1 Bft) W-SW 240 0 min 0,000 mm 0,0 UV-I 139 W/m 9,8 C 9,9 C 4,8 km/h (1 Bft) 100,00 %
09.11.2015 09:28 9,9 C 99 % 1025,3 hPa 0,0 l/m 3,8 km/h (1 Bft) S-SW 211 0 min 0,000 mm 0,0 UV-I 138 W/m 9,8 C 9,9 C 4,8 km/h (1 Bft) 100,00 %
09.11.2015 09:29 9,8 C 99 % 1025,3 hPa 0,0 l/m 6,0 km/h (2 Bft) S-SW 207 0 min 0,000 mm 0,0 UV-I 132 W/m 9,7 C 9,8 C 8,0 km/h (2 Bft) 100,00 %
09.11.2015 09:30 9,8 C 99 % 1025,4 hPa 0,0 l/m 4,8 km/h (1 Bft) SW 224 0 min 0,000 mm 0,0 UV-I 122 W/m 9,7 C 9,8 C 6,4 km/h (2 Bft) 100,00 %
09.11.2015 09:31 9,8 C 99 % 1025,4 hPa 0,0 l/m 4,6 km/h (1 Bft) SW 214 0 min 0,000 mm 0,0 UV-I 107 W/m 9,7 C 9,8 C 4,8 km/h (1 Bft) 95,65 %
09.11.2015 09:32 9,8 C 99 % 1025,4 hPa 0,0 l/m 4,7 km/h (1 Bft) SW 214 0 min 0,000 mm 0,0 UV-I 123 W/m 9,7 C 9,8 C 6,4 km/h (2 Bft) 100,00 %
09.11.2015 09:33 9,8 C 99 % 1025,4 hPa 0,0 l/m 5,0 km/h (1 Bft) SW 229 0 min 0,000 mm 0,0 UV-I 126 W/m 9,7 C 9,8 C 6,4 km/h (2 Bft) 100,00 %
09.11.2015 09:34 9,7 C 99 % 1025,4 hPa 0,0 l/m 3,6 km/h (1 Bft) SW 230 0 min 0,000 mm 0,0 UV-I 112 W/m 9,6 C 9,7 C 4,8 km/h (1 Bft) 100,00 %
09.11.2015 09:35 9,8 C 99 % 1025,4 hPa 0,0 l/m 2,6 km/h (1 Bft) W-SW 252 0 min 0,000 mm 0,0 UV-I 109 W/m 9,7 C 9,8 C 4,8 km/h (1 Bft) 95,65 %
09.11.2015 09:36 9,8 C 99 % 1025,4 hPa 0,0 l/m 2,1 km/h (1 Bft) W-SW 246 0 min 0,000 mm 0,0 UV-I 111 W/m 9,7 C 9,8 C 3,2 km/h (1 Bft) 100,00 %
09.11.2015 09:37 9,8 C 99 % 1025,4 hPa 0,0 l/m 2,1 km/h (1 Bft) W-NW 298 0 min 0,000 mm 0,0 UV-I 113 W/m 9,7 C 9,8 C 3,2 km/h (1 Bft) 100,00 %
09.11.2015 09:38 9,8 C 99 % 1025,5 hPa 0,0 l/m 3,1 km/h (1 Bft) W 275 0 min 0,000 mm 0,4 UV-I 120 W/m 9,7 C 9,8 C 6,4 km/h (2 Bft) 100,00 %
09.11.2015 09:39 9,8 C 99 % 1025,6 hPa 0,0 l/m 1,8 km/h (1 Bft) W 275 0 min 0,000 mm 0,5 UV-I 129 W/m 9,7 C 9,8 C 3,2 km/h (1 Bft) 100,00 %
09.11.2015 09:40 9,8 C 99 % 1025,6 hPa 0,0 l/m 2,6 km/h (1 Bft) W-NW 291 0 min 0,000 mm 0,5 UV-I 131 W/m 9,7 C 9,8 C 3,2 km/h (1 Bft) 100,00 %
09.11.2015 09:41 9,8 C 99 % 1025,7 hPa 0,0 l/m 2,1 km/h (1 Bft) W-NW 289 0 min 0,000 mm 0,5 UV-I 130 W/m 9,7 C 9,8 C 3,2 km/h (1 Bft) 100,00 %
09.11.2015 09:42 9,8 C 99 % 1025,6 hPa 0,0 l/m 2,3 km/h (1 Bft) W 265 0 min 0,000 mm 0,5 UV-I 133 W/m 9,7 C 9,8 C 3,2 km/h (1 Bft) 100,00 %
09.11.2015 09:43 9,8 C 99 % 1025,6 hPa 0,0 l/m 0,9 km/h (0 Bft) W 265 0 min 0,000 mm 0,5 UV-I 139 W/m 9,7 C 9,8 C 3,2 km/h (1 Bft) 100,00 %
09.11.2015 09:44 9,8 C 99 % 1025,6 hPa 0,0 l/m 0,6 km/h (0 Bft) W 265 0 min 0,000 mm 0,6 UV-I 151 W/m 9,7 C 9,8 C 1,6 km/h (1 Bft) 100,00 %
09.11.2015 09:45 9,9 C 99 % 1025,4 hPa 0,0 l/m 0,0 km/h (0 Bft) W 265 0 min 0,000 mm 0,6 UV-I 161 W/m 9,8 C 9,9 C 0,0 km/h (0 Bft) 92,31 %
09.11.2015 09:46 9,9 C 99 % 1025,4 hPa 0,0 l/m 0,6 km/h (0 Bft) W 265 0 min 0,000 mm 0,6 UV-I 165 W/m 9,8 C 9,9 C 1,6 km/h (1 Bft) 100,00 %
09.11.2015 09:47 9,9 C 99 % 1025,5 hPa 0,0 l/m 0,5 km/h (0 Bft) W 267 0 min 0,000 mm 0,6 UV-I 170 W/m 9,8 C 9,9 C 1,6 km/h (1 Bft) 100,00 %
09.11.2015 09:48 10,1 C 99 % 1025,5 hPa 0,0 l/m 0,1 km/h (0 Bft) W 267 0 min 0,000 mm 0,6 UV-I 177 W/m 9,9 C 10,1 C 1,6 km/h (1 Bft) 95,65 %
09.11.2015 09:49 10,2 C 99 % 1025,6 hPa 0,0 l/m 1,1 km/h (1 Bft) W 267 0 min 0,000 mm 0,6 UV-I 188 W/m 10,0 C 10,2 C 1,6 km/h (1 Bft) 100,00 %
09.11.2015 09:50 10,2 C 99 % 1025,6 hPa 0,0 l/m 1,4 km/h (1 Bft) W 275 1 min 0,000 mm 0,6 UV-I 232 W/m 10,0 C 10,2 C 3,2 km/h (1 Bft) 100,00 %
09.11.2015 09:51 10,2 C 99 % 1025,6 hPa 0,0 l/m 0,3 km/h (0 Bft) W 275 1 min 0,000 mm 0,7 UV-I 259 W/m 10,0 C 10,2 C 1,6 km/h (1 Bft) 100,00 %
09.11.2015 09:52 10,3 C 99 % 1025,6 hPa 0,0 l/m 0,8 km/h (0 Bft) W-NW 284 1 min 0,000 mm 0,6 UV-I 234 W/m 10,1 C 10,3 C 3,2 km/h (1 Bft) 95,65 %
09.11.2015 09:53 10,3 C 99 % 1025,6 hPa 0,0 l/m 1,9 km/h (1 Bft) N 11 1 min 0,000 mm 0,6 UV-I 205 W/m 10,1 C 10,3 C 3,2 km/h (1 Bft) 100,00 %
09.11.2015 09:54 10,3 C 99 % 1025,6 hPa 0,0 l/m 2,2 km/h (1 Bft) N-NW 347 0 min 0,000 mm 0,6 UV-I 181 W/m 10,1 C 10,3 C 3,2 km/h (1 Bft) 100,00 %
09.11.2015 09:55 10,3 C 99 % 1025,6 hPa 0,0 l/m 2,3 km/h (1 Bft) N-NO 17 0 min 0,000 mm 0,6 UV-I 172 W/m 10,1 C 10,3 C 3,2 km/h (1 Bft) 100,00 %
09.11.2015 09:56 10,3 C 99 % 1025,7 hPa 0,0 l/m 1,9 km/h (1 Bft) N 350 0 min 0,000 mm 0,6 UV-I 176 W/m 10,1 C 10,3 C 6,4 km/h (2 Bft) 100,00 %
09.11.2015 09:57 10,3 C 99 % 1025,6 hPa 0,0 l/m 1,1 km/h (1 Bft) N 355 0 min 0,000 mm 0,6 UV-I 180 W/m 10,1 C 10,3 C 3,2 km/h (1 Bft) 100,00 %
09.11.2015 09:58 10,4 C 99 % 1025,6 hPa 0,0 l/m 0,8 km/h (0 Bft) N-NW 329 0 min 0,000 mm 0,6 UV-I 183 W/m 10,2 C 10,4 C 1,6 km/h (1 Bft) 100,00 %
09.11.2015 09:59 10,4 C 99 % 1025,5 hPa 0,0 l/m 0,8 km/h (0 Bft) N-NW 327 0 min 0,000 mm 0,6 UV-I 178 W/m 10,2 C 10,4 C 1,6 km/h (1 Bft) 100,00 %
09.11.2015 10:00 10,3 C 99 % 1025,5 hPa 0,0 l/m 1,3 km/h (1 Bft) N 350 0 min 0,077 mm 0,6 UV-I 169 W/m 10,1 C 10,3 C 3,2 km/h (1 Bft) 100,00 %
09.11.2015 10:01 10,3 C 99 % 1025,5 hPa 0,0 l/m 1,5 km/h (1 Bft) NW 323 0 min 0,000 mm 0,6 UV-I 159 W/m 10,1 C 10,3 C 3,2 km/h (1 Bft) 100,00 %
09.11.2015 10:02 10,3 C 99 % 1025,5 hPa 0,0 l/m 0,6 km/h (0 Bft) N 350 0 min 0,000 mm 0,5 UV-I 148 W/m 10,1 C 10,3 C 1,6 km/h (1 Bft) 100,00 %
09.11.2015 10:03 10,3 C 99 % 1025,4 hPa 0,0 l/m 1,0 km/h (0 Bft) N 350 0 min 0,000 mm 0,5 UV-I 143 W/m 10,1 C 10,3 C 1,6 km/h (1 Bft) 100,00 %
09.11.2015 10:04 10,3 C 99 % 1025,4 hPa 0,0 l/m 0,5 km/h (0 Bft) N 350 0 min 0,000 mm 0,5 UV-I 132 W/m 10,1 C 10,3 C 1,6 km/h (1 Bft) 95,83 %
09.11.2015 10:05 10,3 C 99 % 1025,3 hPa 0,0 l/m 0,5 km/h (0 Bft) N 350 0 min 0,000 mm 0,5 UV-I 129 W/m 10,1 C 10,3 C 1,6 km/h (1 Bft) 100,00 %
09.11.2015 10:06 10,3 C 99 % 1025,3 hPa 0,0 l/m 0,7 km/h (0 Bft) W-NW 296 0 min 0,000 mm 0,5 UV-I 128 W/m 10,1 C 10,3 C 1,6 km/h (1 Bft) 100,00 %
09.11.2015 10:07 10,3 C 99 % 1025,3 hPa 0,0 l/m 0,4 km/h (0 Bft) W-NW 296 0 min 0,000 mm 0,5 UV-I 122 W/m 10,1 C 10,3 C 1,6 km/h (1 Bft) 95,65 %
09.11.2015 10:08 10,3 C 99 % 1025,2 hPa 0,0 l/m 1,0 km/h (0 Bft) W-NW 295 0 min 0,000 mm 0,5 UV-I 117 W/m 10,1 C 10,3 C 3,2 km/h (1 Bft) 100,00 %
09.11.2015 10:09 10,3 C 99 % 1025,3 hPa 0,0 l/m 1,2 km/h (1 Bft) W-NW 296 0 min 0,000 mm 0,5 UV-I 111 W/m 10,1 C 10,3 C 3,2 km/h (1 Bft) 95,65 %
09.11.2015 10:10 10,3 C 99 % 1025,2 hPa 0,0 l/m 0,5 km/h (0 Bft) NW 314 0 min 0,000 mm 0,5 UV-I 105 W/m 10,1 C 10,3 C 1,6 km/h (1 Bft) 100,00 %
09.11.2015 10:11 10,3 C 99 % 1025,1 hPa 0,0 l/m 1,5 km/h (1 Bft) NW 314 0 min 0,000 mm 0,5 UV-I 95 W/m 10,1 C 10,3 C 1,6 km/h (1 Bft) 95,65 %
09.11.2015 10:12 10,3 C 99 % 1025,1 hPa 0,0 l/m 0,6 km/h (0 Bft) NW 314 0 min 0,000 mm 0,5 UV-I 90 W/m 10,1 C 10,3 C 1,6 km/h (1 Bft) 100,00 %
09.11.2015 10:13 10,2 C 99 % 1025,1 hPa 0,0 l/m 0,1 km/h (0 Bft) NW 314 0 min 0,000 mm 0,5 UV-I 86 W/m 10,0 C 10,2 C 1,6 km/h (1 Bft) 100,00 %
09.11.2015 10:14 10,2 C 99 % 1025,1 hPa 0,0 l/m 0,1 km/h (0 Bft) NW 314 0 min 0,000 mm 0,5 UV-I 84 W/m 10,0 C 10,2 C 1,6 km/h (1 Bft) 100,00 %
09.11.2015 10:15 10,3 C 99 % 1025,0 hPa 0,0 l/m 0,0 km/h (0 Bft) NW 314 0 min 0,000 mm 0,6 UV-I 87 W/m 10,1 C 10,3 C 0,0 km/h (0 Bft) 100,00 %
09.11.2015 10:16 10,3 C 99 % 1024,9 hPa 0,0 l/m 0,7 km/h (0 Bft) NW 314 0 min 0,000 mm 0,6 UV-I 94 W/m 10,1 C 10,3 C 1,6 km/h (1 Bft) 100,00 %
09.11.2015 10:17 10,2 C 99 % 1024,9 hPa 0,0 l/m 0,5 km/h (0 Bft) NW 314 0 min 0,000 mm 0,6 UV-I 103 W/m 10,0 C 10,2 C 1,6 km/h (1 Bft) 95,65 %
09.11.2015 10:18 10,2 C 99 % 1024,9 hPa 0,0 l/m 0,5 km/h (0 Bft) NW 314 0 min 0,000 mm 0,7 UV-I 113 W/m 10,0 C 10,2 C 1,6 km/h (1 Bft) 100,00 %
09.11.2015 10:19 10,2 C 99 % 1025,0 hPa 0,0 l/m 0,5 km/h (0 Bft) NW 314 0 min 0,000 mm 0,7 UV-I 124 W/m 10,0 C 10,2 C 1,6 km/h (1 Bft) 100,00 %
09.11.2015 10:20 10,3 C 99 % 1025,0 hPa 0,0 l/m 1,0 km/h (0 Bft) NW 316 0 min 0,000 mm 0,7 UV-I 129 W/m 10,1 C 10,3 C 3,2 km/h (1 Bft) 100,00 %
09.11.2015 10:21 10,3 C 99 % 1025,0 hPa 0,0 l/m 2,1 km/h (1 Bft) N 360 0 min 0,000 mm 0,7 UV-I 130 W/m 10,1 C 10,3 C 3,2 km/h (1 Bft) 100,00 %
09.11.2015 10:22 10,3 C 99 % 1025,1 hPa 0,0 l/m 0,3 km/h (0 Bft) N 360 0 min 0,000 mm 0,7 UV-I 127 W/m 10,1 C 10,3 C 1,6 km/h (1 Bft) 100,00 %
09.11.2015 10:23 10,4 C 99 % 1025,1 hPa 0,0 l/m 0,0 km/h (0 Bft) N 360 0 min 0,000 mm 0,7 UV-I 122 W/m 10,2 C 10,4 C 0,0 km/h (0 Bft) 100,00 %
09.11.2015 10:24 10,4 C 99 % 1025,1 hPa 0,0 l/m 0,8 km/h (0 Bft) N 355 0 min 0,000 mm 0,7 UV-I 118 W/m 10,2 C 10,4 C 1,6 km/h (1 Bft) 100,00 %
09.11.2015 10:25 10,4 C 99 % 1025,1 hPa 0,0 l/m 0,0 km/h (0 Bft) N 355 0 min 0,000 mm 0,7 UV-I 114 W/m 10,2 C 10,4 C 0,0 km/h (0 Bft) 100,00 %
09.11.2015 10:26 10,4 C 99 % 1025,1 hPa 0,0 l/m 0,2 km/h (0 Bft) N 355 0 min 0,000 mm 0,7 UV-I 114 W/m 10,2 C 10,4 C 1,6 km/h (1 Bft) 100,00 %
09.11.2015 10:27 10,5 C 99 % 1025,1 hPa 0,0 l/m 1,4 km/h (1 Bft) N 355 0 min 0,000 mm 0,7 UV-I 114 W/m 10,3 C 10,5 C 3,2 km/h (1 Bft) 100,00 %
09.11.2015 10:28 10,5 C 99 % 1025,1 hPa 0,0 l/m 0,9 km/h (0 Bft) N 355 0 min 0,000 mm 0,7 UV-I 132 W/m 10,3 C 10,5 C 1,6 km/h (1 Bft) 100,00 %
09.11.2015 10:29 10,6 C 99 % 1025,1 hPa 0,0 l/m 0,9 km/h (0 Bft) N 355 0 min 0,000 mm 0,7 UV-I 136 W/m 10,4 C 10,6 C 1,6 km/h (1 Bft) 95,83 %
09.11.2015 10:30 10,6 C 99 % 1025,1 hPa 0,0 l/m 1,9 km/h (1 Bft) W-NW 288 0 min 0,000 mm 0,7 UV-I 132 W/m 10,4 C 10,6 C 3,2 km/h (1 Bft) 100,00 %
09.11.2015 10:31 10,6 C 99 % 1025,0 hPa 0,0 l/m 0,8 km/h (0 Bft) W-NW 288 0 min 0,000 mm 0,7 UV-I 135 W/m 10,4 C 10,6 C 1,6 km/h (1 Bft) 100,00 %
09.11.2015 10:32 10,6 C 99 % 1025,0 hPa 0,0 l/m 1,6 km/h (1 Bft) W 261 0 min 0,000 mm 0,7 UV-I 139 W/m 10,4 C 10,6 C 3,2 km/h (1 Bft) 100,00 %
09.11.2015 10:33 10,6 C 99 % 1025,0 hPa 0,0 l/m 0,2 km/h (0 Bft) W 261 0 min 0,000 mm 0,7 UV-I 141 W/m 10,4 C 10,6 C 1,6 km/h (1 Bft) 100,00 %
09.11.2015 10:34 10,7 C 99 % 1025,0 hPa 0,0 l/m 1,1 km/h (1 Bft) W 261 0 min 0,000 mm 0,8 UV-I 151 W/m 10,5 C 10,7 C 1,6 km/h (1 Bft) 100,00 %
09.11.2015 10:35 10,6 C 99 % 1025,0 hPa 0,0 l/m 0,2 km/h (0 Bft) W 261 0 min 0,000 mm 0,8 UV-I 159 W/m 10,4 C 10,6 C 1,6 km/h (1 Bft) 100,00 %
09.11.2015 10:36 10,7 C 99 % 1025,1 hPa 0,0 l/m 1,0 km/h (0 Bft) W 261 0 min 0,000 mm 0,8 UV-I 186 W/m 10,5 C 10,7 C 1,6 km/h (1 Bft) 100,00 %
09.11.2015 10:37 10,7 C 99 % 1025,1 hPa 0,0 l/m 0,1 km/h (0 Bft) W 261 0 min 0,000 mm 0,7 UV-I 181 W/m 10,5 C 10,7 C 1,6 km/h (1 Bft) 100,00 %
09.11.2015 10:38 10,8 C 99 % 1025,1 hPa 0,0 l/m 1,5 km/h (1 Bft) N-NO 15 0 min 0,000 mm 0,7 UV-I 151 W/m 10,6 C 10,8 C 3,2 km/h (1 Bft) 100,00 %
09.11.2015 10:39 10,8 C 99 % 1025,1 hPa 0,0 l/m 1,1 km/h (1 Bft) N 5 0 min 0,000 mm 0,4 UV-I 114 W/m 10,6 C 10,8 C 3,2 km/h (1 Bft) 95,83 %
09.11.2015 10:40 10,8 C 99 % 1025,1 hPa 0,0 l/m 1,0 km/h (0 Bft) N 5 0 min 0,000 mm 0,0 UV-I 73 W/m 10,6 C 10,8 C 1,6 km/h (1 Bft) 95,65 %
09.11.2015 10:41 10,8 C 99 % 1025,2 hPa 0,0 l/m 1,1 km/h (1 Bft) N 5 0 min 0,000 mm 0,0 UV-I 63 W/m 10,6 C 10,8 C 3,2 km/h (1 Bft) 100,00 %
09.11.2015 10:42 10,8 C 99 % 1025,1 hPa 0,0 l/m 0,3 km/h (0 Bft) N 5 0 min 0,000 mm 0,0 UV-I 71 W/m 10,6 C 10,8 C 1,6 km/h (1 Bft) 100,00 %
09.11.2015 10:43 10,8 C 99 % 1025,1 hPa 0,0 l/m 0,4 km/h (0 Bft) N 5 0 min 0,000 mm 0,0 UV-I 78 W/m 10,6 C 10,8 C 1,6 km/h (1 Bft) 100,00 %
09.11.2015 10:44 10,9 C 99 % 1025,1 hPa 0,0 l/m 0,1 km/h (0 Bft) N 5 0 min 0,000 mm 0,0 UV-I 78 W/m 10,7 C 10,9 C 1,6 km/h (1 Bft) 100,00 %
09.11.2015 10:45 10,9 C 99 % 1025,0 hPa 0,0 l/m 0,0 km/h (0 Bft) N 5 0 min 0,000 mm 0,0 UV-I 74 W/m 10,7 C 10,9 C 0,0 km/h (0 Bft) 100,00 %
09.11.2015 10:46 10,9 C 99 % 1025,0 hPa 0,0 l/m 0,5 km/h (0 Bft) N 5 0 min 0,000 mm 0,0 UV-I 73 W/m 10,7 C 10,9 C 1,6 km/h (1 Bft) 100,00 %
09.11.2015 10:47 10,9 C 99 % 1025,0 hPa 0,0 l/m 1,0 km/h (0 Bft) N 5 0 min 0,000 mm 0,3 UV-I 80 W/m 10,7 C 10,9 C 1,6 km/h (1 Bft) 95,65 %
09.11.2015 10:48 10,8 C 99 % 1024,9 hPa 0,0 l/m 0,2 km/h (0 Bft) N 5 0 min 0,000 mm 0,5 UV-I 91 W/m 10,6 C 10,8 C 1,6 km/h (1 Bft) 100,00 %
09.11.2015 10:49 10,9 C 99 % 1024,9 hPa 0,0 l/m 0,0 km/h (0 Bft) N 5 0 min 0,000 mm 0,6 UV-I 106 W/m 10,7 C 10,9 C 0,0 km/h (0 Bft) 100,00 %
09.11.2015 10:50 10,9 C 99 % 1024,9 hPa 0,0 l/m 0,0 km/h (0 Bft) N 5 0 min 0,000 mm 0,7 UV-I 121 W/m 10,7 C 10,9 C 0,0 km/h (0 Bft) 100,00 %
09.11.2015 10:51 10,9 C 99 % 1024,9 hPa 0,0 l/m 0,1 km/h (0 Bft) N 5 0 min 0,000 mm 0,7 UV-I 132 W/m 10,7 C 10,9 C 1,6 km/h (1 Bft) 100,00 %
09.11.2015 10:52 10,9 C 99 % 1024,9 hPa 0,0 l/m 0,2 km/h (0 Bft) N 5 0 min 0,000 mm 0,7 UV-I 137 W/m 10,7 C 10,9 C 1,6 km/h (1 Bft) 96,30 %
09.11.2015 10:53 10,9 C 99 % 1024,8 hPa 0,0 l/m 0,0 km/h (0 Bft) N 5 0 min 0,000 mm 0,8 UV-I 137 W/m 10,7 C 10,9 C 0,0 km/h (0 Bft) 100,00 %
09.11.2015 10:54 10,9 C 99 % 1024,7 hPa 0,0 l/m 0,0 km/h (0 Bft) N 5 0 min 0,000 mm 0,8 UV-I 147 W/m 10,7 C 10,9 C 0,0 km/h (0 Bft) 100,00 %
09.11.2015 10:55 10,9 C 99 % 1024,7 hPa 0,0 l/m 0,1 km/h (0 Bft) N 5 0 min 0,000 mm 0,8 UV-I 150 W/m 10,7 C 10,9 C 1,6 km/h (1 Bft) 95,83 %
09.11.2015 10:56 10,9 C 99 % 1024,6 hPa 0,0 l/m 0,4 km/h (0 Bft) N 5 0 min 0,000 mm 0,8 UV-I 136 W/m 10,7 C 10,9 C 1,6 km/h (1 Bft) 100,00 %
09.11.2015 10:57 11,0 C 99 % 1024,6 hPa 0,0 l/m 0,0 km/h (0 Bft) N 5 0 min 0,000 mm 0,8 UV-I 116 W/m 10,8 C 11,0 C 0,0 km/h (0 Bft) 95,83 %
09.11.2015 10:58 11,0 C 99 % 1024,6 hPa 0,0 l/m 0,2 km/h (0 Bft) N 5 0 min 0,000 mm 0,8 UV-I 117 W/m 10,8 C 11,0 C 1,6 km/h (1 Bft) 100,00 %
09.11.2015 10:59 11,1 C 99 % 1024,6 hPa 0,0 l/m 2,3 km/h (1 Bft) N 5 0 min 0,000 mm 0,9 UV-I 152 W/m 10,9 C 11,1 C 3,2 km/h (1 Bft) 95,83 %
09.11.2015 11:00 11,1 C 99 % 1024,7 hPa 0,0 l/m 0,8 km/h (0 Bft) N 5 0 min 0,050 mm 0,9 UV-I 176 W/m 10,9 C 11,1 C 1,6 km/h (1 Bft) 100,00 %
09.11.2015 11:01 11,2 C 99 % 1024,6 hPa 0,0 l/m 1,0 km/h (0 Bft) N 5 1 min 0,000 mm 0,9 UV-I 254 W/m 11,0 C 11,2 C 1,6 km/h (1 Bft) 100,00 %
09.11.2015 11:02 11,3 C 99 % 1024,6 hPa 0,0 l/m 1,4 km/h (1 Bft) N 9 0 min 0,000 mm 0,9 UV-I 223 W/m 11,1 C 11,3 C 3,2 km/h (1 Bft) 95,65 %
09.11.2015 11:03 11,4 C 99 % 1024,6 hPa 0,0 l/m 0,7 km/h (0 Bft) N 9 0 min 0,000 mm 0,8 UV-I 223 W/m 11,2 C 11,4 C 1,6 km/h (1 Bft) 100,00 %
09.11.2015 11:04 11,5 C 99 % 1024,6 hPa 0,0 l/m 2,3 km/h (1 Bft) N-NO 15 0 min 0,000 mm 0,6 UV-I 158 W/m 11,3 C 11,5 C 3,2 km/h (1 Bft) 100,00 %
09.11.2015 11:05 11,6 C 99 % 1024,6 hPa 0,0 l/m 2,0 km/h (1 Bft) N 9 0 min 0,000 mm 0,5 UV-I 123 W/m 11,4 C 11,6 C 3,2 km/h (1 Bft) 100,00 %
09.11.2015 11:06 11,6 C 99 % 1024,6 hPa 0,0 l/m 1,5 km/h (1 Bft) N-NW 333 0 min 0,000 mm 0,5 UV-I 107 W/m 11,4 C 11,6 C 1,6 km/h (1 Bft) 100,00 %
09.11.2015 11:07 11,6 C 99 % 1024,6 hPa 0,0 l/m 1,2 km/h (1 Bft) N-NW 342 0 min 0,000 mm 0,4 UV-I 98 W/m 11,4 C 11,6 C 3,2 km/h (1 Bft) 100,00 %
09.11.2015 11:08 11,6 C 99 % 1024,6 hPa 0,0 l/m 0,6 km/h (0 Bft) N 9 0 min 0,000 mm 0,0 UV-I 93 W/m 11,4 C 11,6 C 1,6 km/h (1 Bft) 100,00 %
09.11.2015 11:09 11,6 C 99 % 1024,6 hPa 0,0 l/m 1,8 km/h (1 Bft) N 11 0 min 0,000 mm 0,0 UV-I 85 W/m 11,4 C 11,6 C 3,2 km/h (1 Bft) 100,00 %
09.11.2015 11:10 11,5 C 99 % 1024,6 hPa 0,0 l/m 1,5 km/h (1 Bft) N 11 0 min 0,000 mm 0,0 UV-I 87 W/m 11,3 C 11,5 C 3,2 km/h (1 Bft) 100,00 %
09.11.2015 11:11 11,4 C 99 % 1024,5 hPa 0,0 l/m 1,4 km/h (1 Bft) N 11 0 min 0,000 mm 0,4 UV-I 100 W/m 11,2 C 11,4 C 3,2 km/h (1 Bft) 100,00 %
09.11.2015 11:12 11,4 C 99 % 1024,4 hPa 0,0 l/m 1,5 km/h (1 Bft) O 80 0 min 0,000 mm 0,5 UV-I 108 W/m 11,2 C 11,4 C 3,2 km/h (1 Bft) 100,00 %
09.11.2015 11:13 11,5 C 99 % 1024,4 hPa 0,0 l/m 1,7 km/h (1 Bft) N-NO 27 0 min 0,000 mm 0,5 UV-I 105 W/m 11,3 C 11,5 C 3,2 km/h (1 Bft) 100,00 %
09.11.2015 11:14 11,5 C 99 % 1024,5 hPa 0,0 l/m 1,9 km/h (1 Bft) N-NO 22 0 min 0,000 mm 0,3 UV-I 95 W/m 11,3 C 11,5 C 3,2 km/h (1 Bft) 100,00 %
09.11.2015 11:15 11,5 C 99 % 1024,5 hPa 0,0 l/m 2,5 km/h (1 Bft) N 11 0 min 0,000 mm 0,0 UV-I 85 W/m 11,3 C 11,5 C 4,8 km/h (1 Bft) 100,00 %
09.11.2015 11:16 11,5 C 99 % 1024,5 hPa 0,0 l/m 2,0 km/h (1 Bft) NO 35 0 min 0,000 mm 0,0 UV-I 69 W/m 11,3 C 11,5 C 3,2 km/h (1 Bft) 100,00 %
09.11.2015 11:17 11,5 C 99 % 1024,6 hPa 0,0 l/m 2,1 km/h (1 Bft) N-NO 23 0 min 0,000 mm 0,0 UV-I 52 W/m 11,3 C 11,5 C 3,2 km/h (1 Bft) 100,00 %
09.11.2015 11:18 11,6 C 99 % 1024,6 hPa 0,0 l/m 2,5 km/h (1 Bft) N-NO 22 0 min 0,000 mm 0,0 UV-I 43 W/m 11,4 C 11,6 C 3,2 km/h (1 Bft) 100,00 %
09.11.2015 11:19 11,6 C 99 % 1024,7 hPa 0,0 l/m 1,2 km/h (1 Bft) N-NO 22 0 min 0,000 mm 0,0 UV-I 34 W/m 11,4 C 11,6 C 1,6 km/h (1 Bft) 95,65 %
09.11.2015 11:20 11,5 C 99 % 1024,7 hPa 0,0 l/m 2,4 km/h (1 Bft) N 9 0 min 0,000 mm 0,0 UV-I 24 W/m 11,3 C 11,5 C 3,2 km/h (1 Bft) 95,83 %
09.11.2015 11:21 11,5 C 99 % 1024,7 hPa 0,0 l/m 2,9 km/h (1 Bft) N-NO 17 0 min 0,000 mm 0,0 UV-I 23 W/m 11,3 C 11,5 C 4,8 km/h (1 Bft) 100,00 %
09.11.2015 11:22 11,5 C 99 % 1024,7 hPa 0,0 l/m 2,5 km/h (1 Bft) N 11 0 min 0,000 mm 0,0 UV-I 21 W/m 11,3 C 11,5 C 4,8 km/h (1 Bft) 95,83 %
09.11.2015 11:23 11,4 C 99 % 1024,8 hPa 0,0 l/m 4,8 km/h (1 Bft) N 5 0 min 0,000 mm 0,0 UV-I 19 W/m 11,2 C 11,4 C 8,0 km/h (2 Bft) 100,00 %
09.11.2015 11:24 11,4 C 99 % 1025,0 hPa 0,0 l/m 4,9 km/h (1 Bft) N-NW 347 0 min 0,000 mm 0,0 UV-I 20 W/m 11,2 C 11,4 C 6,4 km/h (2 Bft) 100,00 %
09.11.2015 11:25 11,4 C 99 % 1025,0 hPa 0,0 l/m 5,5 km/h (1 Bft) N-NW 344 0 min 0,000 mm 0,0 UV-I 20 W/m 11,2 C 11,4 C 9,7 km/h (2 Bft) 91,30 %
09.11.2015 11:26 11,4 C 99 % 1025,1 hPa 0,2 l/m 5,3 km/h (1 Bft) N-NW 348 0 min 0,000 mm 0,0 UV-I 20 W/m 11,2 C 11,4 C 9,7 km/h (2 Bft) 100,00 %
09.11.2015 11:27 11,4 C 99 % 1025,2 hPa 0,0 l/m 6,3 km/h (2 Bft) N 355 0 min 0,000 mm 0,0 UV-I 21 W/m 11,2 C 11,4 C 9,7 km/h (2 Bft) 100,00 %
09.11.2015 11:28 11,4 C 99 % 1025,3 hPa 0,0 l/m 4,3 km/h (1 Bft) NW 315 0 min 0,000 mm 0,0 UV-I 19 W/m 11,2 C 11,4 C 8,0 km/h (2 Bft) 95,83 %
09.11.2015 11:29 11,4 C 98 % 1025,4 hPa 0,0 l/m 3,3 km/h (1 Bft) N 11 0 min 0,000 mm 0,0 UV-I 19 W/m 11,1 C 11,4 C 6,4 km/h (2 Bft) 100,00 %
09.11.2015 11:30 11,3 C 98 % 1025,4 hPa 0,2 l/m 5,0 km/h (1 Bft) N-NW 332 0 min 0,000 mm 0,0 UV-I 22 W/m 11,0 C 11,3 C 6,4 km/h (2 Bft) 100,00 %
09.11.2015 11:31 11,3 C 98 % 1025,3 hPa 0,4 l/m 5,4 km/h (1 Bft) N-NW 346 0 min 0,000 mm 0,0 UV-I 24 W/m 11,0 C 11,3 C 8,0 km/h (2 Bft) 100,00 %
09.11.2015 11:32 11,3 C 98 % 1025,3 hPa 0,0 l/m 4,1 km/h (1 Bft) N-NO 27 0 min 0,000 mm 0,0 UV-I 27 W/m 11,0 C 11,3 C 6,4 km/h (2 Bft) 100,00 %
09.11.2015 11:33 11,2 C 98 % 1025,2 hPa 0,2 l/m 4,0 km/h (1 Bft) N 351 0 min 0,000 mm 0,0 UV-I 31 W/m 10,9 C 11,2 C 6,4 km/h (2 Bft) 100,00 %
09.11.2015 11:34 11,2 C 98 % 1025,2 hPa 0,0 l/m 5,7 km/h (1 Bft) N 11 0 min 0,000 mm 0,0 UV-I 33 W/m 10,9 C 11,2 C 8,0 km/h (2 Bft) 100,00 %
09.11.2015 11:35 11,2 C 98 % 1025,2 hPa 0,2 l/m 4,7 km/h (1 Bft) N 5 0 min 0,000 mm 0,0 UV-I 32 W/m 10,9 C 11,2 C 8,0 km/h (2 Bft) 100,00 %
09.11.2015 11:36 11,1 C 98 % 1025,2 hPa 0,0 l/m 3,8 km/h (1 Bft) N 351 0 min 0,000 mm 0,0 UV-I 34 W/m 10,8 C 11,1 C 6,4 km/h (2 Bft) 100,00 %
09.11.2015 11:37 11,1 C 98 % 1025,1 hPa 0,0 l/m 4,2 km/h (1 Bft) N 355 0 min 0,000 mm 0,0 UV-I 36 W/m 10,8 C 11,1 C 6,4 km/h (2 Bft) 100,00 %
09.11.2015 11:38 11,1 C 98 % 1025,1 hPa 0,0 l/m 2,7 km/h (1 Bft) N 11 0 min 0,000 mm 0,0 UV-I 31 W/m 10,8 C 11,1 C 4,8 km/h (1 Bft) 100,00 %
09.11.2015 11:39 11,1 C 98 % 1025,1 hPa 0,2 l/m 2,3 km/h (1 Bft) N 355 0 min 0,000 mm 0,0 UV-I 26 W/m 10,8 C 11,1 C 3,2 km/h (1 Bft) 100,00 %
09.11.2015 11:40 11,1 C 98 % 1025,1 hPa 0,2 l/m 1,3 km/h (1 Bft) N 355 0 min 0,000 mm 0,0 UV-I 23 W/m 10,8 C 11,1 C 3,2 km/h (1 Bft) 96,30 %
09.11.2015 11:41 11,1 C 98 % 1025,0 hPa 0,0 l/m 0,1 km/h (0 Bft) N 355 0 min 0,000 mm 0,0 UV-I 21 W/m 10,8 C 11,1 C 1,6 km/h (1 Bft) 100,00 %
09.11.2015 11:42 11,1 C 98 % 1024,9 hPa 0,2 l/m 0,1 km/h (0 Bft) N 355 0 min 0,000 mm 0,0 UV-I 23 W/m 10,8 C 11,1 C 1,6 km/h (1 Bft) 100,00 %
09.11.2015 11:43 11,1 C 98 % 1024,9 hPa 0,0 l/m 0,1 km/h (0 Bft) N 355 0 min 0,000 mm 0,0 UV-I 30 W/m 10,8 C 11,1 C 1,6 km/h (1 Bft) 100,00 %
09.11.2015 11:44 11,1 C 99 % 1024,8 hPa 0,0 l/m 0,7 km/h (0 Bft) NW 305 0 min 0,000 mm 0,0 UV-I 40 W/m 10,9 C 11,1 C 3,2 km/h (1 Bft) 100,00 %
09.11.2015 11:45 11,1 C 99 % 1024,7 hPa 0,2 l/m 0,3 km/h (0 Bft) NW 305 0 min 0,000 mm 0,0 UV-I 46 W/m 10,9 C 11,1 C 1,6 km/h (1 Bft) 100,00 %
09.11.2015 11:46 11,1 C 99 % 1024,6 hPa 0,0 l/m 0,1 km/h (0 Bft) NW 305 0 min 0,000 mm 0,0 UV-I 53 W/m 10,9 C 11,1 C 1,6 km/h (1 Bft) 100,00 %
09.11.2015 11:47 11,1 C 99 % 1024,6 hPa 0,0 l/m 0,0 km/h (0 Bft) NW 305 0 min 0,000 mm 0,4 UV-I 65 W/m 10,9 C 11,1 C 0,0 km/h (0 Bft) 100,00 %
09.11.2015 11:48 11,1 C 99 % 1024,6 hPa 0,0 l/m 0,0 km/h (0 Bft) NW 305 0 min 0,000 mm 0,6 UV-I 82 W/m 10,9 C 11,1 C 0,0 km/h (0 Bft) 95,65 %
09.11.2015 11:49 11,2 C 99 % 1024,4 hPa 0,0 l/m 0,7 km/h (0 Bft) S 189 0 min 0,000 mm 0,6 UV-I 101 W/m 11,0 C 11,2 C 1,6 km/h (1 Bft) 100,00 %
09.11.2015 11:50 11,2 C 99 % 1024,4 hPa 0,0 l/m 1,7 km/h (1 Bft) S 188 0 min 0,000 mm 0,7 UV-I 118 W/m 11,0 C 11,2 C 3,2 km/h (1 Bft) 95,65 %
09.11.2015 11:51 11,2 C 98 % 1024,4 hPa 0,0 l/m 1,7 km/h (1 Bft) S-SW 207 0 min 0,000 mm 0,7 UV-I 127 W/m 10,9 C 11,2 C 3,2 km/h (1 Bft) 100,00 %
09.11.2015 11:52 11,3 C 99 % 1024,4 hPa 0,0 l/m 1,7 km/h (1 Bft) SW 222 0 min 0,000 mm 0,7 UV-I 121 W/m 11,1 C 11,3 C 3,2 km/h (1 Bft) 100,00 %
09.11.2015 11:53 11,3 C 99 % 1024,3 hPa 0,0 l/m 2,1 km/h (1 Bft) S-SW 212 0 min 0,000 mm 0,7 UV-I 119 W/m 11,1 C 11,3 C 3,2 km/h (1 Bft) 100,00 %
09.11.2015 11:54 11,4 C 99 % 1024,3 hPa 0,0 l/m 3,2 km/h (1 Bft) S-SW 207 0 min 0,000 mm 0,8 UV-I 126 W/m 11,2 C 11,4 C 4,8 km/h (1 Bft) 100,00 %
09.11.2015 11:55 11,4 C 99 % 1024,2 hPa 0,0 l/m 3,9 km/h (1 Bft) SW 219 0 min 0,000 mm 0,8 UV-I 128 W/m 11,2 C 11,4 C 6,4 km/h (2 Bft) 100,00 %
09.11.2015 11:56 11,4 C 99 % 1024,1 hPa 0,0 l/m 3,8 km/h (1 Bft) S-SW 194 0 min 0,000 mm 0,7 UV-I 124 W/m 11,2 C 11,4 C 6,4 km/h (2 Bft) 100,00 %
09.11.2015 11:57 11,5 C 99 % 1024,1 hPa 0,0 l/m 4,3 km/h (1 Bft) SW 214 0 min 0,000 mm 0,7 UV-I 138 W/m 11,3 C 11,5 C 6,4 km/h (2 Bft) 96,15 %
09.11.2015 11:58 11,6 C 99 % 1024,0 hPa 0,0 l/m 1,8 km/h (1 Bft) SW 214 0 min 0,000 mm 0,8 UV-I 161 W/m 11,4 C 11,6 C 3,2 km/h (1 Bft) 100,00 %
09.11.2015 11:59 11,6 C 99 % 1024,1 hPa 0,0 l/m 2,2 km/h (1 Bft) SW 236 0 min 0,000 mm 0,9 UV-I 204 W/m 11,4 C 11,6 C 3,2 km/h (1 Bft) 96,15 %
09.11.2015 12:00 11,7 C 99 % 1024,1 hPa 0,0 l/m 1,5 km/h (1 Bft) SW 236 1 min 0,000 mm 0,9 UV-I 243 W/m 11,5 C 11,7 C 3,2 km/h (1 Bft) 100,00 %
09.11.2015 12:01 11,7 C 99 % 1024,1 hPa 0,0 l/m 1,3 km/h (1 Bft) W-SW 247 0 min 0,025 mm 0,9 UV-I 178 W/m 11,5 C 11,7 C 3,2 km/h (1 Bft) 100,00 %
09.11.2015 12:02 11,7 C 98 % 1024,1 hPa 0,0 l/m 0,8 km/h (0 Bft) W-SW 247 0 min 0,001 mm 0,8 UV-I 166 W/m 11,4 C 11,7 C 1,6 km/h (1 Bft) 100,00 %
09.11.2015 12:03 11,8 C 99 % 1024,1 hPa 0,0 l/m 0,7 km/h (0 Bft) W 268 0 min 0,000 mm 0,8 UV-I 168 W/m 11,6 C 11,8 C 1,6 km/h (1 Bft) 91,30 %
09.11.2015 12:04 11,8 C 99 % 1024,1 hPa 0,0 l/m 0,7 km/h (0 Bft) W 268 0 min 0,000 mm 0,7 UV-I 165 W/m 11,6 C 11,8 C 1,6 km/h (1 Bft) 100,00 %
09.11.2015 12:05 11,8 C 98 % 1024,1 hPa 0,0 l/m 1,4 km/h (1 Bft) W 268 0 min 0,000 mm 0,7 UV-I 145 W/m 11,5 C 11,8 C 3,2 km/h (1 Bft) 96,15 %
09.11.2015 12:06 11,8 C 98 % 1024,1 hPa 0,0 l/m 1,7 km/h (1 Bft) W 266 0 min 0,000 mm 0,6 UV-I 125 W/m 11,5 C 11,8 C 3,2 km/h (1 Bft) 100,00 %
09.11.2015 12:07 11,8 C 98 % 1024,2 hPa 0,0 l/m 1,5 km/h (1 Bft) W 266 0 min 0,000 mm 0,5 UV-I 108 W/m 11,5 C 11,8 C 3,2 km/h (1 Bft) 100,00 %
09.11.2015 12:08 11,8 C 98 % 1024,2 hPa 0,0 l/m 0,1 km/h (0 Bft) W 266 0 min 0,000 mm 0,2 UV-I 94 W/m 11,5 C 11,8 C 1,6 km/h (1 Bft) 100,00 %
09.11.2015 12:09 11,8 C 98 % 1024,2 hPa 0,0 l/m 0,6 km/h (0 Bft) W 266 0 min 0,000 mm 0,3 UV-I 96 W/m 11,5 C 11,8 C 1,6 km/h (1 Bft) 91,30 %
09.11.2015 12:10 11,9 C 98 % 1024,3 hPa 0,0 l/m 0,1 km/h (0 Bft) W 266 0 min 0,000 mm 0,6 UV-I 116 W/m 11,6 C 11,9 C 1,6 km/h (1 Bft) 100,00 %
09.11.2015 12:11 11,9 C 98 % 1024,3 hPa 0,0 l/m 0,0 km/h (0 Bft) W 266 0 min 0,000 mm 0,6 UV-I 123 W/m 11,6 C 11,9 C 0,0 km/h (0 Bft) 91,30 %
09.11.2015 12:12 12,0 C 98 % 1024,3 hPa 0,0 l/m 0,0 km/h (0 Bft) W 266 0 min 0,000 mm 0,6 UV-I 133 W/m 11,7 C 12,0 C 0,0 km/h (0 Bft) 100,00 %
09.11.2015 12:13 12,1 C 98 % 1024,3 hPa 0,0 l/m 0,6 km/h (0 Bft) W 266 0 min 0,000 mm 0,6 UV-I 131 W/m 11,8 C 12,1 C 1,6 km/h (1 Bft) 100,00 %
09.11.2015 12:14 12,1 C 98 % 1024,2 hPa 0,0 l/m 0,7 km/h (0 Bft) W 266 0 min 0,000 mm 0,5 UV-I 111 W/m 11,8 C 12,1 C 1,6 km/h (1 Bft) 100,00 %
09.11.2015 12:15 12,1 C 98 % 1024,2 hPa 0,0 l/m 0,1 km/h (0 Bft) W 266 0 min 0,000 mm 0,1 UV-I 84 W/m 11,8 C 12,1 C 1,6 km/h (1 Bft) 95,83 %
09.11.2015 12:16 12,2 C 98 % 1024,2 hPa 0,0 l/m 0,6 km/h (0 Bft) W 266 0 min 0,000 mm 0,0 UV-I 80 W/m 11,9 C 12,2 C 1,6 km/h (1 Bft) 91,30 %
09.11.2015 12:17 12,2 C 98 % 1024,2 hPa 0,0 l/m 0,1 km/h (0 Bft) W 266 0 min 0,000 mm 0,0 UV-I 71 W/m 11,9 C 12,2 C 1,6 km/h (1 Bft) 100,00 %
09.11.2015 12:18 12,2 C 98 % 1024,2 hPa 0,0 l/m 0,0 km/h (0 Bft) W 266 0 min 0,000 mm 0,0 UV-I 70 W/m 11,9 C 12,2 C 0,0 km/h (0 Bft) 100,00 %
09.11.2015 12:19 12,2 C 98 % 1024,2 hPa 0,0 l/m 0,1 km/h (0 Bft) W 266 0 min 0,000 mm 0,0 UV-I 70 W/m 11,9 C 12,2 C 1,6 km/h (1 Bft) 95,83 %
09.11.2015 12:20 12,2 C 98 % 1024,2 hPa 0,0 l/m 0,2 km/h (0 Bft) W 266 0 min 0,000 mm 0,0 UV-I 70 W/m 11,9 C 12,2 C 1,6 km/h (1 Bft) 95,65 %
09.11.2015 12:21 12,2 C 98 % 1024,1 hPa 0,0 l/m 0,5 km/h (0 Bft) W 266 0 min 0,000 mm 0,0 UV-I 65 W/m 11,9 C 12,2 C 1,6 km/h (1 Bft) 100,00 %
09.11.2015 12:22 12,2 C 98 % 1024,1 hPa 0,0 l/m 0,5 km/h (0 Bft) W 266 0 min 0,000 mm 0,0 UV-I 57 W/m 11,9 C 12,2 C 1,6 km/h (1 Bft) 95,65 %
09.11.2015 12:23 12,2 C 98 % 1024,1 hPa 0,0 l/m 1,3 km/h (1 Bft) S-SW 210 0 min 0,000 mm 0,0 UV-I 54 W/m 11,9 C 12,2 C 3,2 km/h (1 Bft) 100,00 %
09.11.2015 12:24 12,2 C 98 % 1024,0 hPa 0,0 l/m 3,4 km/h (1 Bft) S 191 0 min 0,000 mm 0,0 UV-I 53 W/m 11,9 C 12,2 C 4,8 km/h (1 Bft) 100,00 %
09.11.2015 12:25 12,2 C 97 % 1024,0 hPa 0,0 l/m 3,6 km/h (1 Bft) S 175 0 min 0,000 mm 0,0 UV-I 48 W/m 11,7 C 12,2 C 6,4 km/h (2 Bft) 100,00 %
09.11.2015 12:26 12,2 C 97 % 1024,0 hPa 0,0 l/m 3,8 km/h (1 Bft) S-SW 200 0 min 0,000 mm 0,0 UV-I 42 W/m 11,7 C 12,2 C 4,8 km/h (1 Bft) 100,00 %
09.11.2015 12:27 12,2 C 97 % 1024,0 hPa 0,0 l/m 4,3 km/h (1 Bft) S 180 0 min 0,000 mm 0,0 UV-I 34 W/m 11,7 C 12,2 C 6,4 km/h (2 Bft) 100,00 %
09.11.2015 12:28 12,2 C 97 % 1024,0 hPa 0,0 l/m 2,4 km/h (1 Bft) SW 215 0 min 0,000 mm 0,0 UV-I 28 W/m 11,7 C 12,2 C 3,2 km/h (1 Bft) 95,65 %
09.11.2015 12:29 12,2 C 97 % 1024,1 hPa 0,0 l/m 2,6 km/h (1 Bft) S-SW 213 0 min 0,000 mm 0,0 UV-I 32 W/m 11,7 C 12,2 C 4,8 km/h (1 Bft) 95,83 %
09.11.2015 12:30 12,3 C 98 % 1024,1 hPa 0,0 l/m 2,3 km/h (1 Bft) S 185 0 min 0,000 mm 0,0 UV-I 38 W/m 12,0 C 12,3 C 4,8 km/h (1 Bft) 100,00 %
09.11.2015 12:31 12,2 C 98 % 1024,2 hPa 0,0 l/m 2,0 km/h (1 Bft) S 188 0 min 0,000 mm 0,0 UV-I 43 W/m 11,9 C 12,2 C 4,8 km/h (1 Bft) 100,00 %
09.11.2015 12:32 12,2 C 97 % 1024,2 hPa 0,0 l/m 1,7 km/h (1 Bft) W 263 0 min 0,000 mm 0,0 UV-I 41 W/m 11,7 C 12,2 C 3,2 km/h (1 Bft) 95,65 %
09.11.2015 12:33 12,2 C 97 % 1024,2 hPa 0,0 l/m 0,7 km/h (0 Bft) W 263 0 min 0,000 mm 0,0 UV-I 42 W/m 11,7 C 12,2 C 1,6 km/h (1 Bft) 100,00 %
09.11.2015 12:34 12,2 C 97 % 1024,2 hPa 0,0 l/m 0,3 km/h (0 Bft) W 263 0 min 0,000 mm 0,0 UV-I 42 W/m 11,7 C 12,2 C 1,6 km/h (1 Bft) 95,65 %
09.11.2015 12:35 12,3 C 97 % 1024,2 hPa 0,0 l/m 0,8 km/h (0 Bft) W-NW 296 0 min 0,000 mm 0,0 UV-I 40 W/m 11,8 C 12,3 C 1,6 km/h (1 Bft) 100,00 %
09.11.2015 12:36 12,3 C 97 % 1024,3 hPa 0,0 l/m 0,7 km/h (0 Bft) N 349 0 min 0,000 mm 0,0 UV-I 36 W/m 11,8 C 12,3 C 3,2 km/h (1 Bft) 100,00 %
09.11.2015 12:37 12,3 C 98 % 1024,3 hPa 0,0 l/m 1,9 km/h (1 Bft) N-NW 344 0 min 0,000 mm 0,0 UV-I 34 W/m 12,0 C 12,3 C 3,2 km/h (1 Bft) 96,30 %
09.11.2015 12:38 12,3 C 98 % 1024,4 hPa 0,0 l/m 2,1 km/h (1 Bft) N-NO 18 0 min 0,000 mm 0,0 UV-I 37 W/m 12,0 C 12,3 C 3,2 km/h (1 Bft) 100,00 %
09.11.2015 12:39 12,3 C 98 % 1024,3 hPa 0,0 l/m 0,9 km/h (0 Bft) N-NO 24 0 min 0,000 mm 0,0 UV-I 40 W/m 12,0 C 12,3 C 3,2 km/h (1 Bft) 95,83 %
09.11.2015 12:40 12,3 C 98 % 1024,4 hPa 0,0 l/m 0,5 km/h (0 Bft) N-NO 24 0 min 0,000 mm 0,0 UV-I 43 W/m 12,0 C 12,3 C 1,6 km/h (1 Bft) 100,00 %
09.11.2015 12:41 12,3 C 98 % 1024,4 hPa 0,0 l/m 0,0 km/h (0 Bft) N-NO 24 0 min 0,000 mm 0,0 UV-I 48 W/m 12,0 C 12,3 C 0,0 km/h (0 Bft) 95,65 %
09.11.2015 12:42 12,3 C 98 % 1024,6 hPa 0,0 l/m 0,1 km/h (0 Bft) N-NO 24 0 min 0,000 mm 0,0 UV-I 48 W/m 12,0 C 12,3 C 1,6 km/h (1 Bft) 100,00 %
09.11.2015 12:43 12,3 C 98 % 1024,5 hPa 0,0 l/m 0,7 km/h (0 Bft) N 5 0 min 0,000 mm 0,0 UV-I 42 W/m 12,0 C 12,3 C 1,6 km/h (1 Bft) 100,00 %
09.11.2015 12:44 12,3 C 98 % 1024,5 hPa 0,2 l/m 0,1 km/h (0 Bft) N 5 0 min 0,000 mm 0,0 UV-I 34 W/m 12,0 C 12,3 C 1,6 km/h (1 Bft) 100,00 %
09.11.2015 12:45 12,3 C 97 % 1024,4 hPa 0,0 l/m 0,2 km/h (0 Bft) N 5 0 min 0,000 mm 0,0 UV-I 34 W/m 11,8 C 12,3 C 1,6 km/h (1 Bft) 100,00 %
09.11.2015 12:46 12,3 C 97 % 1024,5 hPa 0,0 l/m 0,0 km/h (0 Bft) N 5 0 min 0,000 mm 0,0 UV-I 43 W/m 11,8 C 12,3 C 0,0 km/h (0 Bft) 100,00 %
09.11.2015 12:47 12,3 C 97 % 1024,4 hPa 0,2 l/m 0,0 km/h (0 Bft) N 5 0 min 0,000 mm 0,0 UV-I 56 W/m 11,8 C 12,3 C 0,0 km/h (0 Bft) 100,00 %
09.11.2015 12:48 12,3 C 97 % 1024,4 hPa 0,0 l/m 1,3 km/h (1 Bft) S 182 0 min 0,000 mm 0,0 UV-I 71 W/m 11,8 C 12,3 C 3,2 km/h (1 Bft) 100,00 %
09.11.2015 12:49 12,3 C 97 % 1024,4 hPa 0,0 l/m 2,5 km/h (1 Bft) S-SW 209 0 min 0,000 mm 0,0 UV-I 85 W/m 11,8 C 12,3 C 4,8 km/h (1 Bft) 100,00 %
09.11.2015 12:50 12,3 C 97 % 1024,4 hPa 0,0 l/m 1,3 km/h (1 Bft) S 190 0 min 0,000 mm 0,0 UV-I 82 W/m 11,8 C 12,3 C 3,2 km/h (1 Bft) 100,00 %
09.11.2015 12:51 12,3 C 97 % 1024,3 hPa 0,0 l/m 1,8 km/h (1 Bft) S 170 0 min 0,000 mm 0,0 UV-I 64 W/m 11,8 C 12,3 C 3,2 km/h (1 Bft) 96,15 %
09.11.2015 12:52 12,3 C 97 % 1024,3 hPa 0,0 l/m 2,2 km/h (1 Bft) SO 127 0 min 0,000 mm 0,0 UV-I 56 W/m 11,8 C 12,3 C 3,2 km/h (1 Bft) 91,67 %
09.11.2015 12:53 12,3 C 97 % 1024,2 hPa 0,0 l/m 2,4 km/h (1 Bft) O-SO 123 0 min 0,000 mm 0,0 UV-I 55 W/m 11,8 C 12,3 C 3,2 km/h (1 Bft) 95,65 %
09.11.2015 12:54 12,3 C 97 % 1024,2 hPa 0,0 l/m 2,4 km/h (1 Bft) SO 136 0 min 0,000 mm 0,0 UV-I 57 W/m 11,8 C 12,3 C 3,2 km/h (1 Bft) 100,00 %
09.11.2015 12:55 12,3 C 97 % 1024,2 hPa 0,0 l/m 3,1 km/h (1 Bft) S-SO 167 0 min 0,000 mm 0,0 UV-I 67 W/m 11,8 C 12,3 C 6,4 km/h (2 Bft) 100,00 %
09.11.2015 12:56 12,3 C 97 % 1024,3 hPa 0,0 l/m 2,3 km/h (1 Bft) S-SO 167 0 min 0,000 mm 0,0 UV-I 74 W/m 11,8 C 12,3 C 4,8 km/h (1 Bft) 100,00 %
09.11.2015 12:57 12,3 C 96 % 1024,3 hPa 0,0 l/m 1,1 km/h (1 Bft) S-SO 167 0 min 0,000 mm 0,0 UV-I 75 W/m 11,7 C 12,3 C 4,8 km/h (1 Bft) 95,83 %
09.11.2015 12:58 12,4 C 97 % 1024,3 hPa 0,0 l/m 2,3 km/h (1 Bft) S-SO 164 0 min 0,000 mm 0,0 UV-I 69 W/m 11,9 C 12,4 C 6,4 km/h (2 Bft) 100,00 %
09.11.2015 12:59 12,4 C 97 % 1024,2 hPa 0,0 l/m 1,0 km/h (0 Bft) S-SO 164 0 min 0,000 mm 0,0 UV-I 59 W/m 11,9 C 12,4 C 1,6 km/h (1 Bft) 100,00 %
09.11.2015 13:00 12,4 C 97 % 1024,2 hPa 0,0 l/m 1,9 km/h (1 Bft) S-SO 167 0 min 0,000 mm 0,0 UV-I 52 W/m 11,9 C 12,4 C 4,8 km/h (1 Bft) 100,00 %
09.11.2015 13:01 12,4 C 97 % 1024,2 hPa 0,0 l/m 1,4 km/h (1 Bft) S-SO 167 0 min 0,025 mm 0,0 UV-I 49 W/m 11,9 C 12,4 C 4,8 km/h (1 Bft) 96,15 %
09.11.2015 13:02 12,4 C 97 % 1024,2 hPa 0,0 l/m 2,3 km/h (1 Bft) S-SO 168 0 min 0,000 mm 0,0 UV-I 52 W/m 11,9 C 12,4 C 4,8 km/h (1 Bft) 100,00 %
09.11.2015 13:03 12,4 C 97 % 1024,2 hPa 0,0 l/m 2,1 km/h (1 Bft) S-SO 163 0 min 0,000 mm 0,0 UV-I 65 W/m 11,9 C 12,4 C 3,2 km/h (1 Bft) 100,00 %
09.11.2015 13:04 12,4 C 97 % 1024,1 hPa 0,0 l/m 2,7 km/h (1 Bft) S-SO 157 0 min 0,000 mm 0,1 UV-I 81 W/m 11,9 C 12,4 C 3,2 km/h (1 Bft) 100,00 %
09.11.2015 13:05 12,4 C 97 % 1024,1 hPa 0,0 l/m 3,4 km/h (1 Bft) S-SO 167 0 min 0,000 mm 0,5 UV-I 96 W/m 11,9 C 12,4 C 4,8 km/h (1 Bft) 95,83 %
09.11.2015 13:06 12,4 C 97 % 1024,1 hPa 0,0 l/m 2,3 km/h (1 Bft) S 173 0 min 0,000 mm 0,5 UV-I 111 W/m 11,9 C 12,4 C 4,8 km/h (1 Bft) 100,00 %
09.11.2015 13:07 12,5 C 97 % 1024,1 hPa 0,0 l/m 2,2 km/h (1 Bft) S-SO 168 0 min 0,000 mm 0,5 UV-I 127 W/m 12,0 C 12,5 C 3,2 km/h (1 Bft) 100,00 %
09.11.2015 13:08 12,6 C 97 % 1024,1 hPa 0,0 l/m 2,1 km/h (1 Bft) S 175 0 min 0,000 mm 0,5 UV-I 127 W/m 12,1 C 12,6 C 3,2 km/h (1 Bft) 100,00 %
09.11.2015 13:09 12,6 C 97 % 1024,0 hPa 0,0 l/m 3,0 km/h (1 Bft) S 184 0 min 0,000 mm 0,5 UV-I 106 W/m 12,1 C 12,6 C 4,8 km/h (1 Bft) 100,00 %
09.11.2015 13:10 12,6 C 97 % 1024,1 hPa 0,0 l/m 2,3 km/h (1 Bft) S 182 0 min 0,000 mm 0,5 UV-I 96 W/m 12,1 C 12,6 C 4,8 km/h (1 Bft) 100,00 %
09.11.2015 13:11 12,7 C 97 % 1024,1 hPa 0,0 l/m 1,9 km/h (1 Bft) S 178 0 min 0,000 mm 0,5 UV-I 94 W/m 12,2 C 12,7 C 3,2 km/h (1 Bft) 100,00 %
09.11.2015 13:12 12,7 C 97 % 1024,1 hPa 0,0 l/m 1,2 km/h (1 Bft) S 182 0 min 0,000 mm 0,5 UV-I 94 W/m 12,2 C 12,7 C 1,6 km/h (1 Bft) 100,00 %
09.11.2015 13:13 12,7 C 97 % 1024,1 hPa 0,0 l/m 1,9 km/h (1 Bft) S 188 0 min 0,000 mm 0,5 UV-I 91 W/m 12,2 C 12,7 C 3,2 km/h (1 Bft) 100,00 %
09.11.2015 13:14 12,7 C 97 % 1024,1 hPa 0,0 l/m 2,5 km/h (1 Bft) S-SW 192 0 min 0,000 mm 0,5 UV-I 93 W/m 12,2 C 12,7 C 4,8 km/h (1 Bft) 100,00 %
09.11.2015 13:15 12,7 C 97 % 1024,2 hPa 0,0 l/m 1,3 km/h (1 Bft) S-SW 203 0 min 0,000 mm 0,5 UV-I 95 W/m 12,2 C 12,7 C 3,2 km/h (1 Bft) 100,00 %
09.11.2015 13:16 12,7 C 97 % 1024,1 hPa 0,0 l/m 2,5 km/h (1 Bft) S 191 0 min 0,000 mm 0,1 UV-I 96 W/m 12,2 C 12,7 C 4,8 km/h (1 Bft) 100,00 %
09.11.2015 13:17 12,7 C 97 % 1024,1 hPa 0,0 l/m 2,7 km/h (1 Bft) S 191 0 min 0,000 mm 0,5 UV-I 98 W/m 12,2 C 12,7 C 4,8 km/h (1 Bft) 100,00 %
09.11.2015 13:18 12,7 C 97 % 1024,1 hPa 0,0 l/m 2,3 km/h (1 Bft) S-SW 213 0 min 0,000 mm 0,5 UV-I 100 W/m 12,2 C 12,7 C 3,2 km/h (1 Bft) 100,00 %
09.11.2015 13:19 12,7 C 97 % 1024,1 hPa 0,0 l/m 2,5 km/h (1 Bft) S 178 0 min 0,000 mm 0,5 UV-I 100 W/m 12,2 C 12,7 C 4,8 km/h (1 Bft) 100,00 %
09.11.2015 13:20 12,7 C 97 % 1024,1 hPa 0,0 l/m 2,4 km/h (1 Bft) SW 217 0 min 0,000 mm 0,5 UV-I 93 W/m 12,2 C 12,7 C 3,2 km/h (1 Bft) 100,00 %
09.11.2015 13:21 12,7 C 97 % 1024,2 hPa 0,0 l/m 1,9 km/h (1 Bft) SW 218 0 min 0,000 mm 0,5 UV-I 82 W/m 12,2 C 12,7 C 3,2 km/h (1 Bft) 100,00 %
09.11.2015 13:22 12,8 C 97 % 1024,1 hPa 0,0 l/m 2,9 km/h (1 Bft) W-SW 247 0 min 0,000 mm 0,0 UV-I 74 W/m 12,3 C 12,8 C 3,2 km/h (1 Bft) 100,00 %
09.11.2015 13:23 12,8 C 97 % 1024,2 hPa 0,0 l/m 3,3 km/h (1 Bft) SW 228 0 min 0,000 mm 0,0 UV-I 68 W/m 12,3 C 12,8 C 4,8 km/h (1 Bft) 100,00 %
09.11.2015 13:24 12,7 C 97 % 1024,1 hPa 0,0 l/m 3,2 km/h (1 Bft) SW 232 0 min 0,000 mm 0,0 UV-I 67 W/m 12,2 C 12,7 C 6,4 km/h (2 Bft) 100,00 %
09.11.2015 13:25 12,8 C 97 % 1024,1 hPa 0,0 l/m 3,5 km/h (1 Bft) SW 230 0 min 0,000 mm 0,0 UV-I 73 W/m 12,3 C 12,8 C 4,8 km/h (1 Bft) 100,00 %
09.11.2015 13:26 12,8 C 97 % 1024,0 hPa 0,0 l/m 4,0 km/h (1 Bft) SW 225 0 min 0,000 mm 0,4 UV-I 89 W/m 12,3 C 12,8 C 4,8 km/h (1 Bft) 100,00 %
09.11.2015 13:27 12,7 C 97 % 1024,0 hPa 0,0 l/m 4,2 km/h (1 Bft) S-SW 210 0 min 0,000 mm 0,5 UV-I 98 W/m 12,2 C 12,7 C 6,4 km/h (2 Bft) 100,00 %
09.11.2015 13:28 12,7 C 97 % 1024,0 hPa 0,0 l/m 4,2 km/h (1 Bft) S-SW 202 0 min 0,000 mm 0,5 UV-I 97 W/m 12,2 C 12,7 C 4,8 km/h (1 Bft) 100,00 %
09.11.2015 13:29 12,8 C 97 % 1023,9 hPa 0,0 l/m 4,3 km/h (1 Bft) SW 221 0 min 0,000 mm 0,5 UV-I 89 W/m 12,3 C 12,8 C 6,4 km/h (2 Bft) 100,00 %
09.11.2015 13:30 12,8 C 97 % 1024,0 hPa 0,0 l/m 3,7 km/h (1 Bft) S-SW 200 0 min 0,000 mm 0,2 UV-I 86 W/m 12,3 C 12,8 C 6,4 km/h (2 Bft) 100,00 %
09.11.2015 13:31 12,8 C 97 % 1023,9 hPa 0,0 l/m 2,9 km/h (1 Bft) S-SW 200 0 min 0,000 mm 0,0 UV-I 83 W/m 12,3 C 12,8 C 3,2 km/h (1 Bft) 100,00 %
09.11.2015 13:32 12,8 C 97 % 1023,9 hPa 0,0 l/m 3,2 km/h (1 Bft) S-SW 196 0 min 0,000 mm 0,0 UV-I 69 W/m 12,3 C 12,8 C 4,8 km/h (1 Bft) 100,00 %
09.11.2015 13:33 12,8 C 97 % 1023,9 hPa 0,0 l/m 2,5 km/h (1 Bft) S-SW 213 0 min 0,000 mm 0,0 UV-I 65 W/m 12,3 C 12,8 C 3,2 km/h (1 Bft) 100,00 %
09.11.2015 13:34 12,8 C 97 % 1023,9 hPa 0,0 l/m 2,1 km/h (1 Bft) SW 214 0 min 0,000 mm 0,0 UV-I 67 W/m 12,3 C 12,8 C 4,8 km/h (1 Bft) 100,00 %
09.11.2015 13:35 12,8 C 97 % 1024,0 hPa 0,0 l/m 2,7 km/h (1 Bft) S-SW 211 0 min 0,000 mm 0,0 UV-I 72 W/m 12,3 C 12,8 C 4,8 km/h (1 Bft) 100,00 %
09.11.2015 13:36 12,8 C 97 % 1024,0 hPa 0,0 l/m 3,8 km/h (1 Bft) SW 221 0 min 0,000 mm 0,0 UV-I 81 W/m 12,3 C 12,8 C 4,8 km/h (1 Bft) 100,00 %
09.11.2015 13:37 12,9 C 97 % 1024,0 hPa 0,0 l/m 3,2 km/h (1 Bft) SW 235 0 min 0,000 mm 0,0 UV-I 90 W/m 12,4 C 12,9 C 4,8 km/h (1 Bft) 100,00 %
09.11.2015 13:38 12,9 C 97 % 1024,0 hPa 0,0 l/m 3,1 km/h (1 Bft) SW 218 0 min 0,000 mm 0,0 UV-I 89 W/m 12,4 C 12,9 C 4,8 km/h (1 Bft) 100,00 %
09.11.2015 13:39 12,9 C 97 % 1024,1 hPa 0,0 l/m 2,7 km/h (1 Bft) W-SW 239 0 min 0,000 mm 0,0 UV-I 76 W/m 12,4 C 12,9 C 4,8 km/h (1 Bft) 100,00 %
09.11.2015 13:40 12,9 C 97 % 1024,1 hPa 0,0 l/m 1,6 km/h (1 Bft) W 281 0 min 0,000 mm 0,0 UV-I 61 W/m 12,4 C 12,9 C 3,2 km/h (1 Bft) 100,00 %
09.11.2015 13:41 12,9 C 97 % 1024,1 hPa 0,0 l/m 3,0 km/h (1 Bft) W 281 0 min 0,000 mm 0,0 UV-I 51 W/m 12,4 C 12,9 C 4,8 km/h (1 Bft) 100,00 %
09.11.2015 13:42 12,9 C 97 % 1024,1 hPa 0,0 l/m 2,2 km/h (1 Bft) W-NW 286 0 min 0,000 mm 0,0 UV-I 54 W/m 12,4 C 12,9 C 3,2 km/h (1 Bft) 100,00 %
09.11.2015 13:43 12,9 C 96 % 1024,2 hPa 0,0 l/m 2,3 km/h (1 Bft) W-NW 289 0 min 0,000 mm 0,0 UV-I 62 W/m 12,3 C 12,9 C 3,2 km/h (1 Bft) 100,00 %
09.11.2015 13:44 12,9 C 97 % 1024,1 hPa 0,0 l/m 0,7 km/h (0 Bft) W-NW 301 0 min 0,000 mm 0,0 UV-I 69 W/m 12,4 C 12,9 C 1,6 km/h (1 Bft) 100,00 %
09.11.2015 13:45 12,9 C 97 % 1024,1 hPa 0,0 l/m 0,0 km/h (0 Bft) W-NW 301 0 min 0,000 mm 0,0 UV-I 65 W/m 12,4 C 12,9 C 0,0 km/h (0 Bft) 100,00 %
09.11.2015 13:46 12,9 C 97 % 1024,1 hPa 0,0 l/m 0,4 km/h (0 Bft) W-NW 301 0 min 0,000 mm 0,0 UV-I 55 W/m 12,4 C 12,9 C 1,6 km/h (1 Bft) 100,00 %
09.11.2015 13:47 12,9 C 97 % 1024,1 hPa 0,0 l/m 0,2 km/h (0 Bft) W-NW 301 0 min 0,000 mm 0,0 UV-I 52 W/m 12,4 C 12,9 C 1,6 km/h (1 Bft) 100,00 %
09.11.2015 13:48 12,9 C 97 % 1024,1 hPa 0,0 l/m 0,0 km/h (0 Bft) W-NW 301 0 min 0,000 mm 0,0 UV-I 51 W/m 12,4 C 12,9 C 0,0 km/h (0 Bft) 100,00 %
09.11.2015 13:49 12,9 C 97 % 1024,0 hPa 0,0 l/m 0,4 km/h (0 Bft) W-NW 301 0 min 0,000 mm 0,0 UV-I 59 W/m 12,4 C 12,9 C 1,6 km/h (1 Bft) 100,00 %
09.11.2015 13:50 12,9 C 97 % 1024,1 hPa 0,0 l/m 0,7 km/h (0 Bft) W-NW 301 0 min 0,000 mm 0,0 UV-I 65 W/m 12,4 C 12,9 C 1,6 km/h (1 Bft) 100,00 %
09.11.2015 13:51 12,9 C 97 % 1024,1 hPa 0,0 l/m 0,0 km/h (0 Bft) W-NW 301 0 min 0,000 mm 0,0 UV-I 66 W/m 12,4 C 12,9 C 0,0 km/h (0 Bft) 100,00 %
09.11.2015 13:52 12,9 C 97 % 1024,1 hPa 0,0 l/m 0,0 km/h (0 Bft) W-NW 301 0 min 0,000 mm 0,0 UV-I 64 W/m 12,4 C 12,9 C 0,0 km/h (0 Bft) 100,00 %
09.11.2015 13:53 13,0 C 97 % 1024,1 hPa 0,0 l/m 0,0 km/h (0 Bft) W-NW 301 0 min 0,000 mm 0,0 UV-I 64 W/m 12,5 C 13,0 C 0,0 km/h (0 Bft) 100,00 %
09.11.2015 13:54 13,0 C 97 % 1024,1 hPa 0,0 l/m 0,0 km/h (0 Bft) W-NW 301 0 min 0,000 mm 0,0 UV-I 74 W/m 12,5 C 13,0 C 0,0 km/h (0 Bft) 95,83 %
09.11.2015 13:55 13,1 C 97 % 1024,1 hPa 0,0 l/m 0,0 km/h (0 Bft) W-NW 301 0 min 0,000 mm 0,0 UV-I 81 W/m 12,6 C 13,1 C 0,0 km/h (0 Bft) 100,00 %
09.11.2015 13:56 13,1 C 97 % 1024,1 hPa 0,0 l/m 0,2 km/h (0 Bft) W-NW 301 0 min 0,000 mm 0,0 UV-I 95 W/m 12,6 C 13,1 C 1,6 km/h (1 Bft) 100,00 %
09.11.2015 13:57 13,1 C 97 % 1024,1 hPa 0,0 l/m 1,0 km/h (0 Bft) NW 318 0 min 0,000 mm 0,0 UV-I 115 W/m 12,6 C 13,1 C 1,6 km/h (1 Bft) 100,00 %
09.11.2015 13:58 13,1 C 97 % 1024,0 hPa 0,0 l/m 1,3 km/h (1 Bft) N 360 0 min 0,000 mm 0,0 UV-I 115 W/m 12,6 C 13,1 C 3,2 km/h (1 Bft) 95,83 %
09.11.2015 13:59 13,1 C 97 % 1024,1 hPa 0,0 l/m 0,2 km/h (0 Bft) N 360 0 min 0,000 mm 0,0 UV-I 92 W/m 12,6 C 13,1 C 1,6 km/h (1 Bft) 100,00 %
09.11.2015 14:00 13,2 C 97 % 1024,1 hPa 0,0 l/m 1,3 km/h (1 Bft) N 360 0 min 0,000 mm 0,0 UV-I 73 W/m 12,7 C 13,2 C 3,2 km/h (1 Bft) 100,00 %
09.11.2015 14:01 13,2 C 97 % 1024,2 hPa 0,0 l/m 1,6 km/h (1 Bft) N 360 0 min 0,051 mm 0,0 UV-I 67 W/m 12,7 C 13,2 C 3,2 km/h (1 Bft) 100,00 %
09.11.2015 14:02 13,2 C 97 % 1024,1 hPa 0,0 l/m 1,5 km/h (1 Bft) N 360 0 min 0,000 mm 0,0 UV-I 68 W/m 12,7 C 13,2 C 3,2 km/h (1 Bft) 100,00 %
09.11.2015 14:03 13,2 C 96 % 1024,2 hPa 0,0 l/m 1,1 km/h (1 Bft) N 5 0 min 0,000 mm 0,0 UV-I 72 W/m 12,6 C 13,2 C 3,2 km/h (1 Bft) 100,00 %
09.11.2015 14:04 13,2 C 97 % 1024,2 hPa 0,0 l/m 2,0 km/h (1 Bft) N 5 0 min 0,000 mm 0,0 UV-I 79 W/m 12,7 C 13,2 C 3,2 km/h (1 Bft) 100,00 %
09.11.2015 14:05 13,3 C 97 % 1024,1 hPa 0,0 l/m 1,5 km/h (1 Bft) N-NO 22 0 min 0,000 mm 0,0 UV-I 82 W/m 12,8 C 13,3 C 3,2 km/h (1 Bft) 100,00 %
09.11.2015 14:06 13,3 C 97 % 1024,0 hPa 0,0 l/m 2,1 km/h (1 Bft) N-NO 14 0 min 0,000 mm 0,0 UV-I 84 W/m 12,8 C 13,3 C 3,2 km/h (1 Bft) 100,00 %
09.11.2015 14:07 13,3 C 97 % 1024,1 hPa 0,0 l/m 2,5 km/h (1 Bft) N-NO 25 0 min 0,000 mm 0,0 UV-I 81 W/m 12,8 C 13,3 C 3,2 km/h (1 Bft) 100,00 %
09.11.2015 14:08 13,3 C 97 % 1024,0 hPa 0,0 l/m 1,3 km/h (1 Bft) N-NO 25 0 min 0,000 mm 0,0 UV-I 86 W/m 12,8 C 13,3 C 3,2 km/h (1 Bft) 100,00 %
09.11.2015 14:09 13,3 C 97 % 1024,0 hPa 0,0 l/m 1,3 km/h (1 Bft) N-NO 32 0 min 0,000 mm 0,0 UV-I 99 W/m 12,8 C 13,3 C 3,2 km/h (1 Bft) 100,00 %
09.11.2015 14:10 13,3 C 97 % 1024,0 hPa 0,0 l/m 0,9 km/h (0 Bft) N-NO 32 0 min 0,000 mm 0,0 UV-I 105 W/m 12,8 C 13,3 C 1,6 km/h (1 Bft) 100,00 %
09.11.2015 14:11 13,4 C 97 % 1024,0 hPa 0,0 l/m 1,3 km/h (1 Bft) NO 55 0 min 0,000 mm 0,0 UV-I 96 W/m 12,9 C 13,4 C 3,2 km/h (1 Bft) 100,00 %
09.11.2015 14:12 13,4 C 96 % 1024,1 hPa 0,0 l/m 2,0 km/h (1 Bft) N-NO 26 0 min 0,000 mm 0,0 UV-I 87 W/m 12,8 C 13,4 C 3,2 km/h (1 Bft) 96,00 %
09.11.2015 14:13 13,4 C 97 % 1024,1 hPa 0,0 l/m 2,3 km/h (1 Bft) N-NO 23 0 min 0,000 mm 0,0 UV-I 84 W/m 12,9 C 13,4 C 3,2 km/h (1 Bft) 100,00 %
09.11.2015 14:14 13,4 C 96 % 1024,1 hPa 0,0 l/m 2,9 km/h (1 Bft) O 87 0 min 0,000 mm 0,0 UV-I 83 W/m 12,8 C 13,4 C 3,2 km/h (1 Bft) 95,65 %
09.11.2015 14:15 13,4 C 97 % 1024,1 hPa 0,0 l/m 1,3 km/h (1 Bft) NO 44 0 min 0,000 mm 0,0 UV-I 75 W/m 12,9 C 13,4 C 3,2 km/h (1 Bft) 100,00 %
09.11.2015 14:16 13,4 C 97 % 1024,2 hPa 0,0 l/m 1,4 km/h (1 Bft) O-NO 65 0 min 0,000 mm 0,0 UV-I 64 W/m 12,9 C 13,4 C 1,6 km/h (1 Bft) 100,00 %
09.11.2015 14:17 13,4 C 97 % 1024,1 hPa 0,0 l/m 1,3 km/h (1 Bft) NO 40 0 min 0,000 mm 0,0 UV-I 62 W/m 12,9 C 13,4 C 3,2 km/h (1 Bft) 100,00 %
09.11.2015 14:18 13,4 C 97 % 1024,1 hPa 0,0 l/m 1,7 km/h (1 Bft) NO 46 0 min 0,000 mm 0,0 UV-I 65 W/m 12,9 C 13,4 C 3,2 km/h (1 Bft) 95,65 %
09.11.2015 14:19 13,3 C 97 % 1024,1 hPa 0,0 l/m 1,0 km/h (0 Bft) O-NO 67 0 min 0,000 mm 0,0 UV-I 64 W/m 12,8 C 13,3 C 1,6 km/h (1 Bft) 95,83 %
09.11.2015 14:20 13,3 C 96 % 1024,1 hPa 0,0 l/m 0,7 km/h (0 Bft) O-NO 66 0 min 0,000 mm 0,0 UV-I 68 W/m 12,7 C 13,3 C 3,2 km/h (1 Bft) 95,65 %
09.11.2015 14:21 13,3 C 96 % 1024,1 hPa 0,0 l/m 0,8 km/h (0 Bft) NO 42 0 min 0,000 mm 0,0 UV-I 74 W/m 12,7 C 13,3 C 1,6 km/h (1 Bft) 100,00 %
09.11.2015 14:22 13,3 C 96 % 1024,2 hPa 0,0 l/m 2,3 km/h (1 Bft) NO 49 0 min 0,000 mm 0,0 UV-I 83 W/m 12,7 C 13,3 C 3,2 km/h (1 Bft) 100,00 %
09.11.2015 14:23 13,3 C 96 % 1024,2 hPa 0,0 l/m 1,0 km/h (0 Bft) NO 48 0 min 0,000 mm 0,0 UV-I 89 W/m 12,7 C 13,3 C 1,6 km/h (1 Bft) 100,00 %
09.11.2015 14:24 13,3 C 96 % 1024,2 hPa 0,0 l/m 1,7 km/h (1 Bft) NO 43 0 min 0,000 mm 0,0 UV-I 90 W/m 12,7 C 13,3 C 3,2 km/h (1 Bft) 100,00 %
09.11.2015 14:25 13,3 C 96 % 1024,2 hPa 0,0 l/m 1,2 km/h (1 Bft) NO 43 0 min 0,000 mm 0,0 UV-I 82 W/m 12,7 C 13,3 C 3,2 km/h (1 Bft) 100,00 %
09.11.2015 14:26 13,3 C 96 % 1024,2 hPa 0,0 l/m 0,9 km/h (0 Bft) NO 51 0 min 0,000 mm 0,0 UV-I 73 W/m 12,7 C 13,3 C 1,6 km/h (1 Bft) 100,00 %
09.11.2015 14:27 13,4 C 96 % 1024,2 hPa 0,0 l/m 2,5 km/h (1 Bft) N-NO 24 0 min 0,000 mm 0,0 UV-I 69 W/m 12,8 C 13,4 C 4,8 km/h (1 Bft) 95,65 %
09.11.2015 14:28 13,4 C 95 % 1024,2 hPa 0,0 l/m 0,7 km/h (0 Bft) N-NO 26 0 min 0,000 mm 0,0 UV-I 64 W/m 12,6 C 13,4 C 1,6 km/h (1 Bft) 95,83 %
09.11.2015 14:29 13,4 C 95 % 1024,2 hPa 0,0 l/m 0,1 km/h (0 Bft) N-NO 26 0 min 0,000 mm 0,0 UV-I 55 W/m 12,6 C 13,4 C 1,6 km/h (1 Bft) 96,00 %
09.11.2015 14:30 13,4 C 95 % 1024,2 hPa 0,0 l/m 0,0 km/h (0 Bft) N-NO 26 0 min 0,000 mm 0,0 UV-I 51 W/m 12,6 C 13,4 C 0,0 km/h (0 Bft) 100,00 %
09.11.2015 14:31 13,4 C 95 % 1024,2 hPa 0,0 l/m 0,1 km/h (0 Bft) N-NO 26 0 min 0,000 mm 0,0 UV-I 47 W/m 12,6 C 13,4 C 1,6 km/h (1 Bft) 100,00 %
09.11.2015 14:32 13,4 C 96 % 1024,2 hPa 0,0 l/m 0,3 km/h (0 Bft) N-NO 26 0 min 0,000 mm 0,0 UV-I 46 W/m 12,8 C 13,4 C 1,6 km/h (1 Bft) 100,00 %
09.11.2015 14:33 13,4 C 96 % 1024,2 hPa 0,0 l/m 0,1 km/h (0 Bft) N-NO 26 0 min 0,000 mm 0,0 UV-I 47 W/m 12,8 C 13,4 C 1,6 km/h (1 Bft) 100,00 %
09.11.2015 14:34 13,4 C 95 % 1024,3 hPa 0,0 l/m 0,6 km/h (0 Bft) N-NO 26 0 min 0,000 mm 0,0 UV-I 47 W/m 12,6 C 13,4 C 1,6 km/h (1 Bft) 95,83 %
09.11.2015 14:35 13,4 C 95 % 1024,3 hPa 0,0 l/m 0,1 km/h (0 Bft) N-NO 26 0 min 0,000 mm 0,0 UV-I 48 W/m 12,6 C 13,4 C 1,6 km/h (1 Bft) 95,83 %
09.11.2015 14:36 13,4 C 94 % 1024,3 hPa 0,0 l/m 0,0 km/h (0 Bft) N-NO 26 0 min 0,000 mm 0,0 UV-I 51 W/m 12,5 C 13,4 C 0,0 km/h (0 Bft) 100,00 %
09.11.2015 14:37 13,4 C 94 % 1024,3 hPa 0,0 l/m 0,0 km/h (0 Bft) N-NO 26 0 min 0,000 mm 0,0 UV-I 55 W/m 12,5 C 13,4 C 0,0 km/h (0 Bft) 100,00 %
09.11.2015 14:38 13,4 C 94 % 1024,3 hPa 0,0 l/m 0,0 km/h (0 Bft) N-NO 26 0 min 0,000 mm 0,0 UV-I 58 W/m 12,5 C 13,4 C 0,0 km/h (0 Bft) 100,00 %
09.11.2015 14:39 13,4 C 94 % 1024,3 hPa 0,0 l/m 0,0 km/h (0 Bft) N-NO 26 0 min 0,000 mm 0,0 UV-I 58 W/m 12,5 C 13,4 C 0,0 km/h (0 Bft) 100,00 %
09.11.2015 14:40 13,4 C 94 % 1024,3 hPa 0,0 l/m 0,0 km/h (0 Bft) N-NO 26 0 min 0,000 mm 0,0 UV-I 59 W/m 12,5 C 13,4 C 0,0 km/h (0 Bft) 100,00 %
09.11.2015 14:41 13,3 C 94 % 1024,3 hPa 0,0 l/m 0,0 km/h (0 Bft) N-NO 26 0 min 0,000 mm 0,0 UV-I 64 W/m 12,4 C 13,3 C 0,0 km/h (0 Bft) 100,00 %
09.11.2015 14:42 13,3 C 94 % 1024,2 hPa 0,0 l/m 0,0 km/h (0 Bft) N-NO 26 0 min 0,000 mm 0,0 UV-I 70 W/m 12,4 C 13,3 C 0,0 km/h (0 Bft) 100,00 %
09.11.2015 14:43 13,3 C 93 % 1024,2 hPa 0,0 l/m 0,0 km/h (0 Bft) N-NO 26 0 min 0,000 mm 0,0 UV-I 67 W/m 12,2 C 13,3 C 0,0 km/h (0 Bft) 100,00 %
09.11.2015 14:44 13,3 C 94 % 1024,3 hPa 0,0 l/m 0,2 km/h (0 Bft) N-NO 26 0 min 0,000 mm 0,0 UV-I 60 W/m 12,4 C 13,3 C 1,6 km/h (1 Bft) 100,00 %
09.11.2015 14:45 13,4 C 93 % 1024,3 hPa 0,0 l/m 0,1 km/h (0 Bft) N-NO 26 0 min 0,000 mm 0,0 UV-I 59 W/m 12,3 C 13,4 C 1,6 km/h (1 Bft) 95,83 %
09.11.2015 14:46 13,4 C 94 % 1024,3 hPa 0,0 l/m 0,0 km/h (0 Bft) N-NO 26 0 min 0,000 mm 0,0 UV-I 49 W/m 12,5 C 13,4 C 0,0 km/h (0 Bft) 92,86 %
09.11.2015 14:47 13,4 C 94 % 1024,3 hPa 0,0 l/m 0,0 km/h (0 Bft) N-NO 26 0 min 0,000 mm 0,0 UV-I 39 W/m 12,5 C 13,4 C 0,0 km/h (0 Bft) 100,00 %
09.11.2015 14:48 13,4 C 93 % 1024,3 hPa 0,0 l/m 0,0 km/h (0 Bft) N-NO 26 0 min 0,000 mm 0,0 UV-I 37 W/m 12,3 C 13,4 C 0,0 km/h (0 Bft) 100,00 %
09.11.2015 14:49 13,4 C 93 % 1024,3 hPa 0,0 l/m 0,0 km/h (0 Bft) N-NO 26 0 min 0,000 mm 0,0 UV-I 37 W/m 12,3 C 13,4 C 0,0 km/h (0 Bft) 100,00 %
09.11.2015 14:50 13,4 C 93 % 1024,3 hPa 0,0 l/m 0,0 km/h (0 Bft) N-NO 26 0 min 0,000 mm 0,0 UV-I 37 W/m 12,3 C 13,4 C 0,0 km/h (0 Bft) 95,65 %
09.11.2015 14:51 13,4 C 94 % 1024,3 hPa 0,0 l/m 0,0 km/h (0 Bft) N-NO 26 0 min 0,000 mm 0,0 UV-I 41 W/m 12,5 C 13,4 C 0,0 km/h (0 Bft) 100,00 %
09.11.2015 14:52 13,4 C 93 % 1024,3 hPa 0,0 l/m 0,0 km/h (0 Bft) N-NO 26 0 min 0,000 mm 0,0 UV-I 45 W/m 12,3 C 13,4 C 0,0 km/h (0 Bft) 100,00 %
09.11.2015 14:53 13,4 C 93 % 1024,3 hPa 0,0 l/m 0,0 km/h (0 Bft) N-NO 26 0 min 0,000 mm 0,0 UV-I 53 W/m 12,3 C 13,4 C 0,0 km/h (0 Bft) 95,65 %
09.11.2015 14:54 13,4 C 94 % 1024,3 hPa 0,0 l/m 0,0 km/h (0 Bft) N-NO 26 0 min 0,000 mm 0,0 UV-I 56 W/m 12,5 C 13,4 C 0,0 km/h (0 Bft) 100,00 %
09.11.2015 14:55 13,4 C 94 % 1024,3 hPa 0,0 l/m 0,0 km/h (0 Bft) N-NO 26 0 min 0,000 mm 0,0 UV-I 53 W/m 12,5 C 13,4 C 0,0 km/h (0 Bft) 95,65 %
09.11.2015 14:56 13,5 C 94 % 1024,3 hPa 0,0 l/m 0,0 km/h (0 Bft) N-NO 26 0 min 0,000 mm 0,0 UV-I 57 W/m 12,6 C 13,5 C 0,0 km/h (0 Bft) 96,15 %
09.11.2015 14:57 13,6 C 94 % 1024,3 hPa 0,0 l/m 0,0 km/h (0 Bft) N-NO 26 0 min 0,000 mm 0,0 UV-I 58 W/m 12,7 C 13,6 C 0,0 km/h (0 Bft) 91,30 %
09.11.2015 14:58 13,6 C 94 % 1024,3 hPa 0,0 l/m 0,0 km/h (0 Bft) N-NO 26 0 min 0,000 mm 0,0 UV-I 51 W/m 12,7 C 13,6 C 0,0 km/h (0 Bft) 100,00 %
09.11.2015 14:59 13,6 C 93 % 1024,3 hPa 0,0 l/m 0,1 km/h (0 Bft) N-NO 26 0 min 0,000 mm 0,0 UV-I 44 W/m 12,5 C 13,6 C 1,6 km/h (1 Bft) 100,00 %
09.11.2015 15:00 13,6 C 93 % 1024,3 hPa 0,0 l/m 0,0 km/h (0 Bft) N-NO 26 0 min 0,000 mm 0,0 UV-I 48 W/m 12,5 C 13,6 C 0,0 km/h (0 Bft) 100,00 %
09.11.2015 15:01 13,6 C 94 % 1024,3 hPa 0,0 l/m 1,1 km/h (1 Bft) NO 49 0 min 0,025 mm 0,0 UV-I 58 W/m 12,7 C 13,6 C 1,6 km/h (1 Bft) 100,00 %
09.11.2015 15:02 13,6 C 94 % 1024,3 hPa 0,0 l/m 0,3 km/h (0 Bft) NO 49 0 min 0,000 mm 0,0 UV-I 64 W/m 12,7 C 13,6 C 1,6 km/h (1 Bft) 100,00 %
09.11.2015 15:03 13,6 C 95 % 1024,3 hPa 0,0 l/m 0,4 km/h (0 Bft) NO 49 0 min 0,000 mm 0,0 UV-I 68 W/m 12,8 C 13,6 C 1,6 km/h (1 Bft) 95,65 %
09.11.2015 15:04 13,5 C 95 % 1024,3 hPa 0,0 l/m 1,1 km/h (1 Bft) NO 49 0 min 0,000 mm 0,0 UV-I 68 W/m 12,7 C 13,5 C 1,6 km/h (1 Bft) 100,00 %
09.11.2015 15:05 13,5 C 95 % 1024,3 hPa 0,0 l/m 0,9 km/h (0 Bft) NO 49 0 min 0,000 mm 0,0 UV-I 69 W/m 12,7 C 13,5 C 1,6 km/h (1 Bft) 91,30 %
09.11.2015 15:06 13,5 C 95 % 1024,3 hPa 0,0 l/m 1,5 km/h (1 Bft) O-NO 69 0 min 0,000 mm 0,0 UV-I 74 W/m 12,7 C 13,5 C 3,2 km/h (1 Bft) 100,00 %
09.11.2015 15:07 13,4 C 95 % 1024,3 hPa 0,0 l/m 2,4 km/h (1 Bft) O 82 0 min 0,000 mm 0,0 UV-I 75 W/m 12,6 C 13,4 C 3,2 km/h (1 Bft) 100,00 %
09.11.2015 15:08 13,4 C 96 % 1024,3 hPa 0,0 l/m 1,1 km/h (1 Bft) O 82 0 min 0,000 mm 0,0 UV-I 75 W/m 12,8 C 13,4 C 3,2 km/h (1 Bft) 100,00 %
09.11.2015 15:09 13,4 C 96 % 1024,3 hPa 0,0 l/m 0,3 km/h (0 Bft) O 82 0 min 0,000 mm 0,0 UV-I 75 W/m 12,8 C 13,4 C 1,6 km/h (1 Bft) 100,00 %
09.11.2015 15:10 13,4 C 96 % 1024,3 hPa 0,0 l/m 0,4 km/h (0 Bft) O 82 0 min 0,000 mm 0,0 UV-I 69 W/m 12,8 C 13,4 C 1,6 km/h (1 Bft) 100,00 %
09.11.2015 15:11 13,3 C 97 % 1024,4 hPa 0,0 l/m 0,3 km/h (0 Bft) O 82 0 min 0,000 mm 0,0 UV-I 59 W/m 12,8 C 13,3 C 1,6 km/h (1 Bft) 95,65 %
09.11.2015 15:12 13,3 C 96 % 1024,4 hPa 0,0 l/m 0,0 km/h (0 Bft) O 82 0 min 0,000 mm 0,0 UV-I 53 W/m 12,7 C 13,3 C 0,0 km/h (0 Bft) 100,00 %
09.11.2015 15:13 13,3 C 97 % 1024,4 hPa 0,0 l/m 0,0 km/h (0 Bft) O 82 0 min 0,000 mm 0,0 UV-I 50 W/m 12,8 C 13,3 C 0,0 km/h (0 Bft) 100,00 %
09.11.2015 15:14 13,4 C 96 % 1024,4 hPa 0,0 l/m 0,7 km/h (0 Bft) O 82 0 min 0,000 mm 0,0 UV-I 48 W/m 12,8 C 13,4 C 1,6 km/h (1 Bft) 100,00 %
09.11.2015 15:15 13,4 C 96 % 1024,4 hPa 0,0 l/m 0,5 km/h (0 Bft) O 82 0 min 0,000 mm 0,0 UV-I 52 W/m 12,8 C 13,4 C 1,6 km/h (1 Bft) 100,00 %
09.11.2015 15:16 13,4 C 97 % 1024,4 hPa 0,0 l/m 0,6 km/h (0 Bft) O 82 0 min 0,000 mm 0,0 UV-I 58 W/m 12,9 C 13,4 C 1,6 km/h (1 Bft) 100,00 %
09.11.2015 15:17 13,4 C 97 % 1024,4 hPa 0,0 l/m 0,1 km/h (0 Bft) O 82 0 min 0,000 mm 0,0 UV-I 60 W/m 12,9 C 13,4 C 1,6 km/h (1 Bft) 100,00 %
09.11.2015 15:18 13,4 C 97 % 1024,4 hPa 0,0 l/m 1,4 km/h (1 Bft) O 82 0 min 0,000 mm 0,0 UV-I 56 W/m 12,9 C 13,4 C 3,2 km/h (1 Bft) 95,65 %
09.11.2015 15:19 13,4 C 97 % 1024,4 hPa 0,0 l/m 1,4 km/h (1 Bft) O 82 0 min 0,000 mm 0,0 UV-I 52 W/m 12,9 C 13,4 C 1,6 km/h (1 Bft) 95,83 %
09.11.2015 15:20 13,3 C 97 % 1024,4 hPa 0,0 l/m 0,6 km/h (0 Bft) O 82 0 min 0,000 mm 0,0 UV-I 52 W/m 12,8 C 13,3 C 1,6 km/h (1 Bft) 100,00 %
09.11.2015 15:21 13,4 C 97 % 1024,4 hPa 0,0 l/m 0,0 km/h (0 Bft) O 82 0 min 0,000 mm 0,0 UV-I 61 W/m 12,9 C 13,4 C 0,0 km/h (0 Bft) 100,00 %
09.11.2015 15:22 13,4 C 97 % 1024,4 hPa 0,0 l/m 0,5 km/h (0 Bft) O 82 0 min 0,000 mm 0,0 UV-I 59 W/m 12,9 C 13,4 C 1,6 km/h (1 Bft) 100,00 %
09.11.2015 15:23 13,4 C 97 % 1024,4 hPa 0,0 l/m 1,7 km/h (1 Bft) O 86 0 min 0,000 mm 0,0 UV-I 53 W/m 12,9 C 13,4 C 3,2 km/h (1 Bft) 100,00 %
09.11.2015 15:24 13,4 C 97 % 1024,3 hPa 0,0 l/m 0,9 km/h (0 Bft) O 86 0 min 0,000 mm 0,0 UV-I 48 W/m 12,9 C 13,4 C 1,6 km/h (1 Bft) 95,83 %
09.11.2015 15:25 13,4 C 97 % 1024,3 hPa 0,0 l/m 0,3 km/h (0 Bft) O 86 0 min 0,000 mm 0,0 UV-I 52 W/m 12,9 C 13,4 C 1,6 km/h (1 Bft) 100,00 %
09.11.2015 15:26 13,4 C 97 % 1024,3 hPa 0,0 l/m 0,1 km/h (0 Bft) O 86 0 min 0,000 mm 0,0 UV-I 53 W/m 12,9 C 13,4 C 1,6 km/h (1 Bft) 100,00 %
09.11.2015 15:27 13,4 C 97 % 1024,3 hPa 0,0 l/m 0,0 km/h (0 Bft) O 86 0 min 0,000 mm 0,0 UV-I 48 W/m 12,9 C 13,4 C 0,0 km/h (0 Bft) 100,00 %
09.11.2015 15:28 13,4 C 97 % 1024,3 hPa 0,0 l/m 0,0 km/h (0 Bft) O 86 0 min 0,000 mm 0,0 UV-I 43 W/m 12,9 C 13,4 C 0,0 km/h (0 Bft) 100,00 %
09.11.2015 15:29 13,4 C 97 % 1024,2 hPa 0,0 l/m 0,3 km/h (0 Bft) O 86 0 min 0,000 mm 0,0 UV-I 39 W/m 12,9 C 13,4 C 1,6 km/h (1 Bft) 100,00 %
09.11.2015 15:30 13,4 C 97 % 1024,3 hPa 0,0 l/m 0,7 km/h (0 Bft) O 86 0 min 0,000 mm 0,0 UV-I 37 W/m 12,9 C 13,4 C 1,6 km/h (1 Bft) 95,83 %
09.11.2015 15:31 13,4 C 97 % 1024,3 hPa 0,0 l/m 0,7 km/h (0 Bft) O 86 0 min 0,000 mm 0,0 UV-I 37 W/m 12,9 C 13,4 C 1,6 km/h (1 Bft) 100,00 %
09.11.2015 15:32 13,4 C 97 % 1024,2 hPa 0,0 l/m 0,3 km/h (0 Bft) O 86 0 min 0,000 mm 0,0 UV-I 35 W/m 12,9 C 13,4 C 1,6 km/h (1 Bft) 100,00 %
09.11.2015 15:33 13,4 C 97 % 1024,2 hPa 0,0 l/m 1,5 km/h (1 Bft) SO 125 0 min 0,000 mm 0,0 UV-I 33 W/m 12,9 C 13,4 C 3,2 km/h (1 Bft) 100,00 %
09.11.2015 15:34 13,5 C 97 % 1024,2 hPa 0,0 l/m 2,0 km/h (1 Bft) S-SO 157 0 min 0,000 mm 0,0 UV-I 33 W/m 13,0 C 13,5 C 3,2 km/h (1 Bft) 100,00 %
09.11.2015 15:35 13,5 C 97 % 1024,2 hPa 0,0 l/m 0,6 km/h (0 Bft) S-SO 157 0 min 0,000 mm 0,0 UV-I 38 W/m 13,0 C 13,5 C 1,6 km/h (1 Bft) 100,00 %
09.11.2015 15:36 13,6 C 97 % 1024,2 hPa 0,0 l/m 1,1 km/h (1 Bft) S-SO 157 0 min 0,000 mm 0,0 UV-I 43 W/m 13,1 C 13,6 C 1,6 km/h (1 Bft) 100,00 %
09.11.2015 15:37 13,6 C 97 % 1024,2 hPa 0,0 l/m 0,8 km/h (0 Bft) S-SO 157 0 min 0,000 mm 0,0 UV-I 47 W/m 13,1 C 13,6 C 1,6 km/h (1 Bft) 86,96 %
09.11.2015 15:38 13,6 C 97 % 1024,2 hPa 0,0 l/m 1,0 km/h (0 Bft) S-SO 157 0 min 0,000 mm 0,0 UV-I 45 W/m 13,1 C 13,6 C 1,6 km/h (1 Bft) 96,15 %
09.11.2015 15:39 13,6 C 97 % 1024,1 hPa 0,0 l/m 0,4 km/h (0 Bft) S-SO 157 0 min 0,000 mm 0,0 UV-I 40 W/m 13,1 C 13,6 C 1,6 km/h (1 Bft) 95,65 %
09.11.2015 15:40 13,6 C 96 % 1024,1 hPa 0,0 l/m 0,5 km/h (0 Bft) S-SO 157 0 min 0,000 mm 0,0 UV-I 39 W/m 13,0 C 13,6 C 1,6 km/h (1 Bft) 100,00 %
09.11.2015 15:41 13,6 C 96 % 1024,1 hPa 0,0 l/m 0,0 km/h (0 Bft) S-SO 157 0 min 0,000 mm 0,0 UV-I 39 W/m 13,0 C 13,6 C 0,0 km/h (0 Bft) 100,00 %
09.11.2015 15:42 13,7 C 96 % 1024,1 hPa 0,0 l/m 0,4 km/h (0 Bft) S-SO 157 0 min 0,000 mm 0,0 UV-I 37 W/m 13,1 C 13,7 C 1,6 km/h (1 Bft) 100,00 %
09.11.2015 15:43 13,6 C 96 % 1024,1 hPa 0,0 l/m 1,6 km/h (1 Bft) S-SO 157 0 min 0,000 mm 0,0 UV-I 37 W/m 13,0 C 13,6 C 3,2 km/h (1 Bft) 100,00 %
09.11.2015 15:44 13,7 C 96 % 1024,1 hPa 0,0 l/m 2,3 km/h (1 Bft) S-SO 156 0 min 0,000 mm 0,0 UV-I 37 W/m 13,1 C 13,7 C 3,2 km/h (1 Bft) 100,00 %
09.11.2015 15:45 13,7 C 96 % 1024,1 hPa 0,0 l/m 2,3 km/h (1 Bft) S-SO 156 0 min 0,000 mm 0,0 UV-I 36 W/m 13,1 C 13,7 C 3,2 km/h (1 Bft) 100,00 %
09.11.2015 15:46 13,7 C 96 % 1024,1 hPa 0,0 l/m 2,1 km/h (1 Bft) S-SO 156 0 min 0,000 mm 0,0 UV-I 32 W/m 13,1 C 13,7 C 3,2 km/h (1 Bft) 100,00 %
09.11.2015 15:47 13,7 C 96 % 1024,1 hPa 0,0 l/m 1,1 km/h (1 Bft) S-SO 156 0 min 0,000 mm 0,0 UV-I 32 W/m 13,1 C 13,7 C 3,2 km/h (1 Bft) 100,00 %
09.11.2015 15:48 13,7 C 96 % 1024,1 hPa 0,0 l/m 1,2 km/h (1 Bft) S-SO 156 0 min 0,000 mm 0,0 UV-I 32 W/m 13,1 C 13,7 C 3,2 km/h (1 Bft) 100,00 %
09.11.2015 15:49 13,7 C 96 % 1024,0 hPa 0,0 l/m 1,2 km/h (1 Bft) S-SO 156 0 min 0,000 mm 0,0 UV-I 32 W/m 13,1 C 13,7 C 1,6 km/h (1 Bft) 100,00 %
09.11.2015 15:50 13,7 C 96 % 1024,0 hPa 0,0 l/m 0,5 km/h (0 Bft) S-SO 156 0 min 0,000 mm 0,0 UV-I 33 W/m 13,1 C 13,7 C 1,6 km/h (1 Bft) 100,00 %
09.11.2015 15:51 13,7 C 96 % 1024,1 hPa 0,0 l/m 1,8 km/h (1 Bft) S-SO 162 0 min 0,000 mm 0,0 UV-I 32 W/m 13,1 C 13,7 C 3,2 km/h (1 Bft) 95,65 %
09.11.2015 15:52 13,6 C 96 % 1024,1 hPa 0,0 l/m 1,3 km/h (1 Bft) S-SO 162 0 min 0,000 mm 0,0 UV-I 28 W/m 13,0 C 13,6 C 3,2 km/h (1 Bft) 100,00 %
09.11.2015 15:53 13,6 C 95 % 1024,1 hPa 0,0 l/m 1,4 km/h (1 Bft) S-SO 163 0 min 0,000 mm 0,0 UV-I 26 W/m 12,8 C 13,6 C 1,6 km/h (1 Bft) 96,00 %
09.11.2015 15:54 13,6 C 95 % 1024,1 hPa 0,0 l/m 1,9 km/h (1 Bft) S 169 0 min 0,000 mm 0,0 UV-I 26 W/m 12,8 C 13,6 C 3,2 km/h (1 Bft) 100,00 %
09.11.2015 15:55 13,6 C 95 % 1024,1 hPa 0,0 l/m 1,3 km/h (1 Bft) S 169 0 min 0,000 mm 0,0 UV-I 26 W/m 12,8 C 13,6 C 1,6 km/h (1 Bft) 100,00 %
09.11.2015 15:56 13,6 C 95 % 1024,1 hPa 0,0 l/m 1,3 km/h (1 Bft) S 169 0 min 0,000 mm 0,0 UV-I 25 W/m 12,8 C 13,6 C 1,6 km/h (1 Bft) 100,00 %
09.11.2015 15:57 13,6 C 95 % 1024,1 hPa 0,0 l/m 1,2 km/h (1 Bft) S 169 0 min 0,000 mm 0,0 UV-I 26 W/m 12,8 C 13,6 C 1,6 km/h (1 Bft) 100,00 %
09.11.2015 15:58 13,6 C 95 % 1024,1 hPa 0,0 l/m 1,1 km/h (1 Bft) S 169 0 min 0,000 mm 0,0 UV-I 26 W/m 12,8 C 13,6 C 1,6 km/h (1 Bft) 100,00 %
09.11.2015 15:59 13,5 C 95 % 1024,1 hPa 0,0 l/m 0,4 km/h (0 Bft) S 169 0 min 0,000 mm 0,0 UV-I 24 W/m 12,7 C 13,5 C 1,6 km/h (1 Bft) 100,00 %
09.11.2015 16:00 13,4 C 95 % 1024,1 hPa 0,0 l/m 0,1 km/h (0 Bft) S 169 0 min 0,000 mm 0,0 UV-I 20 W/m 12,6 C 13,4 C 1,6 km/h (1 Bft) 100,00 %
09.11.2015 16:01 13,4 C 95 % 1024,1 hPa 0,0 l/m 0,3 km/h (0 Bft) S 169 0 min 0,025 mm 0,0 UV-I 19 W/m 12,6 C 13,4 C 1,6 km/h (1 Bft) 100,00 %
09.11.2015 16:02 13,4 C 96 % 1024,1 hPa 0,0 l/m 2,1 km/h (1 Bft) S 175 0 min 0,001 mm 0,0 UV-I 18 W/m 12,8 C 13,4 C 3,2 km/h (1 Bft) 100,00 %
09.11.2015 16:03 13,4 C 96 % 1024,1 hPa 0,0 l/m 1,7 km/h (1 Bft) S 175 0 min 0,000 mm 0,0 UV-I 16 W/m 12,8 C 13,4 C 3,2 km/h (1 Bft) 100,00 %
09.11.2015 16:04 13,4 C 96 % 1024,2 hPa 0,0 l/m 0,2 km/h (0 Bft) S 175 0 min 0,000 mm 0,0 UV-I 16 W/m 12,8 C 13,4 C 1,6 km/h (1 Bft) 100,00 %
09.11.2015 16:05 13,3 C 96 % 1024,1 hPa 0,0 l/m 0,0 km/h (0 Bft) S 175 0 min 0,000 mm 0,0 UV-I 14 W/m 12,7 C 13,3 C 0,0 km/h (0 Bft) 100,00 %
09.11.2015 16:06 13,3 C 96 % 1024,1 hPa 0,0 l/m 0,0 km/h (0 Bft) S 175 0 min 0,000 mm 0,0 UV-I 12 W/m 12,7 C 13,3 C 0,0 km/h (0 Bft) 100,00 %
09.11.2015 16:07 13,3 C 96 % 1024,1 hPa 0,0 l/m 0,0 km/h (0 Bft) S 175 0 min 0,000 mm 0,0 UV-I 12 W/m 12,7 C 13,3 C 0,0 km/h (0 Bft) 96,15 %
09.11.2015 16:08 13,3 C 96 % 1024,1 hPa 0,0 l/m 0,0 km/h (0 Bft) S 175 0 min 0,000 mm 0,0 UV-I 12 W/m 12,7 C 13,3 C 0,0 km/h (0 Bft) 100,00 %
09.11.2015 16:09 13,3 C 96 % 1024,1 hPa 0,0 l/m 0,2 km/h (0 Bft) S 175 0 min 0,000 mm 0,0 UV-I 12 W/m 12,7 C 13,3 C 1,6 km/h (1 Bft) 100,00 %
09.11.2015 16:10 13,3 C 96 % 1024,1 hPa 0,0 l/m 1,1 km/h (1 Bft) S 175 0 min 0,000 mm 0,0 UV-I 12 W/m 12,7 C 13,3 C 1,6 km/h (1 Bft) 100,00 %
09.11.2015 16:11 13,3 C 96 % 1024,1 hPa 0,0 l/m 0,1 km/h (0 Bft) S 175 0 min 0,000 mm 0,0 UV-I 12 W/m 12,7 C 13,3 C 1,6 km/h (1 Bft) 100,00 %
09.11.2015 16:12 13,3 C 96 % 1024,1 hPa 0,0 l/m 0,0 km/h (0 Bft) S 175 0 min 0,000 mm 0,0 UV-I 10 W/m 12,7 C 13,3 C 0,0 km/h (0 Bft) 95,83 %
09.11.2015 16:13 13,2 C 96 % 1024,1 hPa 0,0 l/m 0,3 km/h (0 Bft) S 175 0 min 0,000 mm 0,0 UV-I 8 W/m 12,6 C 13,2 C 1,6 km/h (1 Bft) 100,00 %
09.11.2015 16:14 13,3 C 96 % 1024,1 hPa 0,0 l/m 0,0 km/h (0 Bft) S 175 0 min 0,000 mm 0,0 UV-I 7 W/m 12,7 C 13,3 C 0,0 km/h (0 Bft) 100,00 %
09.11.2015 16:15 13,2 C 96 % 1024,1 hPa 0,0 l/m 0,0 km/h (0 Bft) S 175 0 min 0,000 mm 0,0 UV-I 7 W/m 12,6 C 13,2 C 0,0 km/h (0 Bft) 100,00 %
09.11.2015 16:16 13,2 C 96 % 1024,1 hPa 0,0 l/m 0,0 km/h (0 Bft) S 175 0 min 0,000 mm 0,0 UV-I 7 W/m 12,6 C 13,2 C 0,0 km/h (0 Bft) 100,00 %
09.11.2015 16:17 13,3 C 96 % 1024,1 hPa 0,0 l/m 0,0 km/h (0 Bft) S 175 0 min 0,000 mm 0,0 UV-I 7 W/m 12,7 C 13,3 C 0,0 km/h (0 Bft) 100,00 %
09.11.2015 16:18 13,3 C 96 % 1024,1 hPa 0,0 l/m 0,0 km/h (0 Bft) S 175 0 min 0,000 mm 0,0 UV-I 7 W/m 12,7 C 13,3 C 0,0 km/h (0 Bft) 100,00 %
09.11.2015 16:19 13,3 C 96 % 1024,0 hPa 0,0 l/m 0,0 km/h (0 Bft) S 175 0 min 0,000 mm 0,0 UV-I 7 W/m 12,7 C 13,3 C 0,0 km/h (0 Bft) 100,00 %
09.11.2015 16:20 13,3 C 96 % 1024,0 hPa 0,0 l/m 0,0 km/h (0 Bft) S 175 0 min 0,000 mm 0,0 UV-I 7 W/m 12,7 C 13,3 C 0,0 km/h (0 Bft) 100,00 %
09.11.2015 16:21 13,3 C 96 % 1024,0 hPa 0,0 l/m 0,0 km/h (0 Bft) S 175 0 min 0,000 mm 0,0 UV-I 5 W/m 12,7 C 13,3 C 0,0 km/h (0 Bft) 100,00 %
09.11.2015 16:22 13,3 C 96 % 1024,0 hPa 0,0 l/m 0,7 km/h (0 Bft) S 175 0 min 0,000 mm 0,0 UV-I 5 W/m 12,7 C 13,3 C 1,6 km/h (1 Bft) 100,00 %
09.11.2015 16:23 13,4 C 96 % 1024,0 hPa 0,0 l/m 2,0 km/h (1 Bft) W-SW 255 0 min 0,000 mm 0,0 UV-I 4 W/m 12,8 C 13,4 C 3,2 km/h (1 Bft) 100,00 %
09.11.2015 16:24 13,4 C 96 % 1024,0 hPa 0,0 l/m 1,6 km/h (1 Bft) W-SW 255 0 min 0,000 mm 0,0 UV-I 0 W/m 12,8 C 13,4 C 3,2 km/h (1 Bft) 100,00 %
09.11.2015 16:25 13,5 C 96 % 1024,1 hPa 0,0 l/m 1,9 km/h (1 Bft) W-SW 242 0 min 0,000 mm 0,0 UV-I 0 W/m 12,9 C 13,5 C 3,2 km/h (1 Bft) 100,00 %
09.11.2015 16:26 13,6 C 95 % 1024,1 hPa 0,0 l/m 1,4 km/h (1 Bft) W-SW 247 0 min 0,000 mm 0,0 UV-I 0 W/m 12,8 C 13,6 C 4,8 km/h (1 Bft) 95,65 %
09.11.2015 16:27 13,6 C 95 % 1024,0 hPa 0,0 l/m 2,5 km/h (1 Bft) SW 224 0 min 0,000 mm 0,0 UV-I 0 W/m 12,8 C 13,6 C 4,8 km/h (1 Bft) 100,00 %
09.11.2015 16:28 13,7 C 95 % 1024,0 hPa 0,0 l/m 2,1 km/h (1 Bft) SW 224 0 min 0,000 mm 0,0 UV-I 0 W/m 12,9 C 13,7 C 3,2 km/h (1 Bft) 100,00 %
09.11.2015 16:29 13,7 C 95 % 1024,0 hPa 0,0 l/m 1,4 km/h (1 Bft) SW 224 0 min 0,000 mm 0,0 UV-I 0 W/m 12,9 C 13,7 C 3,2 km/h (1 Bft) 100,00 %
09.11.2015 16:30 13,7 C 95 % 1024,0 hPa 0,0 l/m 2,4 km/h (1 Bft) W 266 0 min 0,000 mm 0,0 UV-I 0 W/m 12,9 C 13,7 C 6,4 km/h (2 Bft) 95,65 %
09.11.2015 16:31 13,7 C 94 % 1024,0 hPa 0,0 l/m 4,6 km/h (1 Bft) W-SW 238 0 min 0,000 mm 0,0 UV-I 0 W/m 12,8 C 13,7 C 6,4 km/h (2 Bft) 100,00 %
09.11.2015 16:32 13,9 C 94 % 1024,0 hPa 0,0 l/m 2,9 km/h (1 Bft) W 273 0 min 0,000 mm 0,0 UV-I 0 W/m 12,9 C 13,9 C 4,8 km/h (1 Bft) 100,00 %
09.11.2015 16:33 14,1 C 93 % 1024,0 hPa 0,0 l/m 3,9 km/h (1 Bft) S-SW 209 0 min 0,000 mm 0,0 UV-I 0 W/m 13,0 C 14,1 C 4,8 km/h (1 Bft) 100,00 %
09.11.2015 16:34 14,2 C 92 % 1024,1 hPa 0,0 l/m 2,9 km/h (1 Bft) W-NW 286 0 min 0,000 mm 0,0 UV-I 0 W/m 12,9 C 14,2 C 4,8 km/h (1 Bft) 100,00 %
09.11.2015 16:35 14,3 C 92 % 1024,1 hPa 0,0 l/m 3,6 km/h (1 Bft) W-NW 296 0 min 0,000 mm 0,0 UV-I 0 W/m 13,0 C 14,3 C 4,8 km/h (1 Bft) 100,00 %
09.11.2015 16:36 14,5 C 92 % 1024,1 hPa 0,0 l/m 3,6 km/h (1 Bft) W-SW 249 0 min 0,000 mm 0,0 UV-I 0 W/m 13,2 C 14,5 C 4,8 km/h (1 Bft) 100,00 %
09.11.2015 16:37 14,6 C 91 % 1024,1 hPa 0,0 l/m 3,9 km/h (1 Bft) W 267 0 min 0,000 mm 0,0 UV-I 0 W/m 13,1 C 14,6 C 6,4 km/h (2 Bft) 100,00 %
09.11.2015 16:38 14,7 C 91 % 1024,1 hPa 0,0 l/m 4,2 km/h (1 Bft) W 263 0 min 0,000 mm 0,0 UV-I 0 W/m 13,2 C 14,7 C 8,0 km/h (2 Bft) 95,65 %
09.11.2015 16:39 14,8 C 90 % 1024,1 hPa 0,0 l/m 3,4 km/h (1 Bft) W-SW 256 0 min 0,000 mm 0,0 UV-I 0 W/m 13,2 C 14,8 C 4,8 km/h (1 Bft) 100,00 %
09.11.2015 16:40 14,8 C 90 % 1024,1 hPa 0,0 l/m 2,7 km/h (1 Bft) W 263 0 min 0,000 mm 0,0 UV-I 0 W/m 13,2 C 14,8 C 4,8 km/h (1 Bft) 91,30 %
09.11.2015 16:41 14,9 C 89 % 1024,1 hPa 0,0 l/m 2,9 km/h (1 Bft) W-SW 258 0 min 0,000 mm 0,0 UV-I 0 W/m 13,1 C 14,9 C 4,8 km/h (1 Bft) 100,00 %
09.11.2015 16:42 15,0 C 89 % 1024,0 hPa 0,0 l/m 3,4 km/h (1 Bft) SW 236 0 min 0,000 mm 0,0 UV-I 0 W/m 13,2 C 15,0 C 4,8 km/h (1 Bft) 93,33 %
09.11.2015 16:43 15,0 C 89 % 1024,1 hPa 0,0 l/m 4,2 km/h (1 Bft) SW 231 0 min 0,000 mm 0,0 UV-I 0 W/m 13,2 C 15,0 C 4,8 km/h (1 Bft) 100,00 %
09.11.2015 16:44 15,0 C 89 % 1024,1 hPa 0,0 l/m 3,2 km/h (1 Bft) W-SW 238 0 min 0,000 mm 0,0 UV-I 0 W/m 13,2 C 15,0 C 4,8 km/h (1 Bft) 100,00 %
09.11.2015 16:45 15,1 C 89 % 1024,1 hPa 0,0 l/m 4,1 km/h (1 Bft) SW 236 0 min 0,000 mm 0,0 UV-I 0 W/m 13,3 C 15,1 C 8,0 km/h (2 Bft) 95,65 %
09.11.2015 16:46 15,1 C 88 % 1024,2 hPa 0,0 l/m 5,6 km/h (1 Bft) W 281 0 min 0,000 mm 0,0 UV-I 0 W/m 13,1 C 15,1 C 11,3 km/h (2 Bft) 95,83 %
09.11.2015 16:47 15,1 C 88 % 1024,1 hPa 0,0 l/m 5,3 km/h (1 Bft) S-SW 192 0 min 0,000 mm 0,0 UV-I 0 W/m 13,1 C 15,1 C 9,7 km/h (2 Bft) 95,65 %
09.11.2015 16:48 15,2 C 88 % 1024,1 hPa 0,0 l/m 5,3 km/h (1 Bft) W-NW 285 0 min 0,000 mm 0,0 UV-I 0 W/m 13,2 C 15,2 C 9,7 km/h (2 Bft) 100,00 %
09.11.2015 16:49 15,2 C 88 % 1024,1 hPa 0,0 l/m 5,3 km/h (1 Bft) W-NW 288 0 min 0,000 mm 0,0 UV-I 0 W/m 13,2 C 15,2 C 6,4 km/h (2 Bft) 96,15 %
09.11.2015 16:50 15,3 C 87 % 1024,1 hPa 0,0 l/m 4,7 km/h (1 Bft) W-SW 252 0 min 0,000 mm 0,0 UV-I 0 W/m 13,1 C 15,3 C 9,7 km/h (2 Bft) 95,83 %
09.11.2015 16:51 15,3 C 87 % 1024,2 hPa 0,0 l/m 3,6 km/h (1 Bft) SW 229 0 min 0,000 mm 0,0 UV-I 0 W/m 13,1 C 15,3 C 6,4 km/h (2 Bft) 100,00 %
09.11.2015 16:52 15,3 C 87 % 1024,2 hPa 0,0 l/m 4,8 km/h (1 Bft) W-SW 258 0 min 0,000 mm 0,0 UV-I 0 W/m 13,1 C 15,3 C 6,4 km/h (2 Bft) 100,00 %
09.11.2015 16:53 15,4 C 87 % 1024,1 hPa 0,0 l/m 4,7 km/h (1 Bft) W 265 0 min 0,000 mm 0,0 UV-I 0 W/m 13,2 C 15,4 C 9,7 km/h (2 Bft) 100,00 %
09.11.2015 16:54 15,4 C 86 % 1024,1 hPa 0,0 l/m 7,4 km/h (2 Bft) W 275 0 min 0,000 mm 0,0 UV-I 0 W/m 13,1 C 14,8 C 11,3 km/h (2 Bft) 100,00 %
09.11.2015 16:55 15,5 C 86 % 1024,1 hPa 0,0 l/m 7,1 km/h (2 Bft) W-NW 282 0 min 0,000 mm 0,0 UV-I 0 W/m 13,2 C 15,1 C 14,5 km/h (3 Bft) 100,00 %
09.11.2015 16:56 15,6 C 85 % 1024,1 hPa 0,0 l/m 6,2 km/h (2 Bft) NW 308 0 min 0,000 mm 0,0 UV-I 0 W/m 13,1 C 15,6 C 9,7 km/h (2 Bft) 100,00 %
09.11.2015 16:57 15,6 C 85 % 1024,1 hPa 0,0 l/m 8,8 km/h (2 Bft) W-NW 286 0 min 0,000 mm 0,0 UV-I 0 W/m 13,1 C 14,3 C 12,9 km/h (3 Bft) 100,00 %
09.11.2015 16:58 15,7 C 85 % 1024,2 hPa 0,0 l/m 6,1 km/h (2 Bft) W-SW 243 0 min 0,000 mm 0,0 UV-I 0 W/m 13,2 C 15,7 C 11,3 km/h (2 Bft) 100,00 %
09.11.2015 16:59 15,8 C 85 % 1024,1 hPa 0,0 l/m 5,6 km/h (1 Bft) W-SW 258 0 min 0,000 mm 0,0 UV-I 0 W/m 13,3 C 15,8 C 11,3 km/h (2 Bft) 100,00 %
09.11.2015 17:00 15,8 C 84 % 1024,1 hPa 0,0 l/m 5,7 km/h (1 Bft) W-SW 242 0 min 0,000 mm 0,0 UV-I 0 W/m 13,1 C 15,8 C 9,7 km/h (2 Bft) 95,65 %
09.11.2015 17:01 15,8 C 84 % 1024,0 hPa 0,0 l/m 4,1 km/h (1 Bft) W 262 0 min 0,000 mm 0,0 UV-I 0 W/m 13,1 C 15,8 C 6,4 km/h (2 Bft) 100,00 %
09.11.2015 17:02 15,9 C 84 % 1024,1 hPa 0,0 l/m 5,3 km/h (1 Bft) W 273 0 min 0,000 mm 0,0 UV-I 0 W/m 13,2 C 15,9 C 9,7 km/h (2 Bft) 95,65 %
09.11.2015 17:03 15,9 C 84 % 1024,1 hPa 0,0 l/m 6,2 km/h (2 Bft) W-NW 284 0 min 0,000 mm 0,0 UV-I 0 W/m 13,2 C 15,9 C 9,7 km/h (2 Bft) 100,00 %
09.11.2015 17:04 15,9 C 83 % 1024,1 hPa 0,0 l/m 7,4 km/h (2 Bft) W-NW 296 0 min 0,000 mm 0,0 UV-I 0 W/m 13,0 C 15,4 C 11,3 km/h (2 Bft) 95,65 %
09.11.2015 17:05 15,9 C 83 % 1024,1 hPa 0,0 l/m 7,0 km/h (2 Bft) W 269 0 min 0,000 mm 0,0 UV-I 0 W/m 13,0 C 15,6 C 11,3 km/h (2 Bft) 100,00 %
09.11.2015 17:06 16,0 C 83 % 1024,1 hPa 0,0 l/m 5,3 km/h (1 Bft) W 262 0 min 0,000 mm 0,0 UV-I 0 W/m 13,1 C 16,0 C 11,3 km/h (2 Bft) 99,08 %
09.11.2015 17:07 16,0 C 83 % 1024,1 hPa 0,0 l/m 4,1 km/h (1 Bft) W 280 0 min 0,000 mm 0,0 UV-I 0 W/m 13,1 C 16,0 C 6,4 km/h (2 Bft) 100,00 %
09.11.2015 17:08 16,0 C 83 % 1024,1 hPa 0,0 l/m 6,2 km/h (2 Bft) W 275 0 min 0,000 mm 0,0 UV-I 0 W/m 13,1 C 16,0 C 11,3 km/h (2 Bft) 100,00 %
09.11.2015 17:09 16,0 C 83 % 1024,1 hPa 0,0 l/m 4,5 km/h (1 Bft) W 270 0 min 0,000 mm 0,0 UV-I 0 W/m 13,1 C 16,0 C 8,0 km/h (2 Bft) 100,00 %
09.11.2015 17:10 16,0 C 82 % 1024,1 hPa 0,0 l/m 5,9 km/h (2 Bft) W 275 0 min 0,000 mm 0,0 UV-I 0 W/m 12,9 C 16,0 C 9,7 km/h (2 Bft) 100,00 %
09.11.2015 17:11 16,1 C 82 % 1024,1 hPa 0,0 l/m 5,8 km/h (2 Bft) W-NW 282 0 min 0,000 mm 0,0 UV-I 0 W/m 13,0 C 16,1 C 9,7 km/h (2 Bft) 95,65 %
09.11.2015 17:12 16,1 C 82 % 1024,1 hPa 0,0 l/m 7,2 km/h (2 Bft) W-NW 293 0 min 0,000 mm 0,0 UV-I 0 W/m 13,0 C 15,7 C 12,9 km/h (3 Bft) 100,00 %
09.11.2015 17:13 16,1 C 82 % 1024,1 hPa 0,0 l/m 7,0 km/h (2 Bft) W-SW 242 0 min 0,000 mm 0,0 UV-I 0 W/m 13,0 C 15,8 C 11,3 km/h (2 Bft) 100,00 %
09.11.2015 17:14 16,1 C 82 % 1024,1 hPa 0,0 l/m 4,7 km/h (1 Bft) W-NW 284 0 min 0,000 mm 0,0 UV-I 0 W/m 13,0 C 16,1 C 6,4 km/h (2 Bft) 100,00 %
09.11.2015 17:15 16,1 C 82 % 1024,1 hPa 0,0 l/m 4,4 km/h (1 Bft) W 259 0 min 0,000 mm 0,0 UV-I 0 W/m 13,0 C 16,1 C 6,4 km/h (2 Bft) 100,00 %
09.11.2015 17:16 16,1 C 83 % 1024,2 hPa 0,0 l/m 4,8 km/h (1 Bft) W-NW 282 0 min 0,000 mm 0,0 UV-I 0 W/m 13,2 C 16,1 C 9,7 km/h (2 Bft) 95,83 %
09.11.2015 17:17 16,1 C 82 % 1024,2 hPa 0,0 l/m 4,0 km/h (1 Bft) W 260 0 min 0,000 mm 0,0 UV-I 0 W/m 13,0 C 16,1 C 4,8 km/h (1 Bft) 100,00 %
09.11.2015 17:18 16,0 C 83 % 1024,2 hPa 0,0 l/m 3,6 km/h (1 Bft) W-NW 290 0 min 0,000 mm 0,0 UV-I 0 W/m 13,1 C 16,0 C 4,8 km/h (1 Bft) 95,83 %
09.11.2015 17:19 16,0 C 83 % 1024,1 hPa 0,0 l/m 4,3 km/h (1 Bft) W-SW 258 0 min 0,000 mm 0,0 UV-I 0 W/m 13,1 C 16,0 C 6,4 km/h (2 Bft) 92,86 %
09.11.2015 17:20 15,9 C 82 % 1024,1 hPa 0,0 l/m 5,0 km/h (1 Bft) W 275 0 min 0,000 mm 0,0 UV-I 0 W/m 12,8 C 15,9 C 6,4 km/h (2 Bft) 100,00 %
09.11.2015 17:21 15,9 C 82 % 1024,2 hPa 0,0 l/m 6,0 km/h (2 Bft) W 270 0 min 0,000 mm 0,0 UV-I 0 W/m 12,8 C 15,9 C 8,0 km/h (2 Bft) 100,00 %
09.11.2015 17:22 16,0 C 82 % 1024,1 hPa 0,0 l/m 5,4 km/h (1 Bft) W 270 0 min 0,000 mm 0,0 UV-I 0 W/m 12,9 C 16,0 C 11,3 km/h (2 Bft) 100,00 %
09.11.2015 17:23 16,0 C 82 % 1024,1 hPa 0,0 l/m 4,4 km/h (1 Bft) W-NW 285 0 min 0,000 mm 0,0 UV-I 0 W/m 12,9 C 16,0 C 6,4 km/h (2 Bft) 95,65 %
09.11.2015 17:24 16,0 C 82 % 1024,2 hPa 0,0 l/m 6,1 km/h (2 Bft) W 262 0 min 0,000 mm 0,0 UV-I 0 W/m 12,9 C 16,0 C 11,3 km/h (2 Bft) 100,00 %
09.11.2015 17:25 16,0 C 82 % 1024,2 hPa 0,0 l/m 5,0 km/h (1 Bft) W-SW 244 0 min 0,000 mm 0,0 UV-I 0 W/m 12,9 C 16,0 C 8,0 km/h (2 Bft) 100,00 %
09.11.2015 17:26 16,1 C 82 % 1024,2 hPa 0,0 l/m 6,0 km/h (2 Bft) W 280 0 min 0,000 mm 0,0 UV-I 0 W/m 13,0 C 16,1 C 11,3 km/h (2 Bft) 100,00 %
09.11.2015 17:27 16,0 C 82 % 1024,2 hPa 0,0 l/m 6,0 km/h (2 Bft) W-SW 256 0 min 0,000 mm 0,0 UV-I 0 W/m 12,9 C 16,0 C 9,7 km/h (2 Bft) 100,00 %
09.11.2015 17:28 16,0 C 82 % 1024,2 hPa 0,0 l/m 3,8 km/h (1 Bft) W-SW 250 0 min 0,000 mm 0,0 UV-I 0 W/m 12,9 C 16,0 C 6,4 km/h (2 Bft) 100,00 %
09.11.2015 17:29 16,0 C 82 % 1024,2 hPa 0,0 l/m 5,8 km/h (2 Bft) W-NW 291 0 min 0,000 mm 0,0 UV-I 0 W/m 12,9 C 16,0 C 11,3 km/h (2 Bft) 95,65 %
09.11.2015 17:30 16,0 C 82 % 1024,1 hPa 0,0 l/m 5,3 km/h (1 Bft) W 259 0 min 0,000 mm 0,0 UV-I 0 W/m 12,9 C 16,0 C 11,3 km/h (2 Bft) 100,00 %
09.11.2015 17:31 16,1 C 81 % 1024,2 hPa 0,0 l/m 6,3 km/h (2 Bft) W 267 0 min 0,000 mm 0,0 UV-I 0 W/m 12,8 C 16,1 C 9,7 km/h (2 Bft) 100,00 %
09.11.2015 17:32 16,1 C 81 % 1024,1 hPa 0,0 l/m 8,4 km/h (2 Bft) W-SW 254 0 min 0,000 mm 0,0 UV-I 0 W/m 12,8 C 15,1 C 12,9 km/h (3 Bft) 100,00 %
09.11.2015 17:33 16,1 C 81 % 1024,1 hPa 0,0 l/m 9,1 km/h (2 Bft) W 278 0 min 0,000 mm 0,0 UV-I 0 W/m 12,8 C 14,7 C 12,9 km/h (3 Bft) 100,00 %
09.11.2015 17:34 16,1 C 81 % 1024,2 hPa 0,0 l/m 10,9 km/h (2 Bft) W 269 0 min 0,000 mm 0,0 UV-I 0 W/m 12,8 C 14,0 C 16,1 km/h (3 Bft) 100,00 %
09.11.2015 17:35 16,1 C 81 % 1024,1 hPa 0,2 l/m 9,9 km/h (2 Bft) W-SW 254 0 min 0,000 mm 0,0 UV-I 0 W/m 12,8 C 14,4 C 14,5 km/h (3 Bft) 100,00 %
09.11.2015 17:36 16,2 C 80 % 1024,1 hPa 0,0 l/m 8,9 km/h (2 Bft) W-NW 284 0 min 0,000 mm 0,0 UV-I 0 W/m 12,7 C 14,9 C 16,1 km/h (3 Bft) 100,00 %
09.11.2015 17:37 16,2 C 80 % 1024,1 hPa 0,0 l/m 10,1 km/h (2 Bft) W-SW 258 0 min 0,000 mm 0,0 UV-I 0 W/m 12,7 C 14,4 C 16,1 km/h (3 Bft) 100,00 %
09.11.2015 17:38 16,2 C 80 % 1024,1 hPa 0,0 l/m 5,6 km/h (1 Bft) W-NW 288 0 min 0,000 mm 0,0 UV-I 0 W/m 12,7 C 16,2 C 9,7 km/h (2 Bft) 100,00 %
09.11.2015 17:39 16,3 C 80 % 1024,1 hPa 0,0 l/m 8,6 km/h (2 Bft) SW 229 0 min 0,000 mm 0,0 UV-I 0 W/m 12,8 C 15,2 C 14,5 km/h (3 Bft) 100,00 %
09.11.2015 17:40 16,3 C 80 % 1024,1 hPa 0,0 l/m 8,7 km/h (2 Bft) W-NW 289 0 min 0,000 mm 0,0 UV-I 0 W/m 12,8 C 15,1 C 14,5 km/h (3 Bft) 100,00 %
09.11.2015 17:41 16,3 C 79 % 1024,1 hPa 0,0 l/m 13,8 km/h (3 Bft) W-SW 254 0 min 0,000 mm 0,0 UV-I 0 W/m 12,6 C 13,1 C 19,3 km/h (3 Bft) 95,83 %
09.11.2015 17:42 16,3 C 79 % 1024,1 hPa 0,0 l/m 11,1 km/h (2 Bft) W 271 0 min 0,000 mm 0,0 UV-I 0 W/m 12,6 C 14,1 C 20,9 km/h (4 Bft) 100,00 %
09.11.2015 17:43 16,4 C 79 % 1024,1 hPa 0,0 l/m 7,8 km/h (2 Bft) N-NW 332 0 min 0,000 mm 0,0 UV-I 0 W/m 12,7 C 15,7 C 11,3 km/h (2 Bft) 100,00 %
09.11.2015 17:44 16,4 C 79 % 1024,1 hPa 0,0 l/m 9,7 km/h (2 Bft) W 277 0 min 0,000 mm 0,0 UV-I 0 W/m 12,7 C 14,8 C 17,7 km/h (3 Bft) 100,00 %
09.11.2015 17:45 16,4 C 79 % 1024,1 hPa 0,0 l/m 9,5 km/h (2 Bft) W-NW 286 0 min 0,000 mm 0,0 UV-I 0 W/m 12,7 C 14,9 C 14,5 km/h (3 Bft) 100,00 %
09.11.2015 17:46 16,4 C 79 % 1024,1 hPa 0,0 l/m 11,1 km/h (2 Bft) W-NW 296 0 min 0,000 mm 0,0 UV-I 0 W/m 12,7 C 14,2 C 17,7 km/h (3 Bft) 100,00 %
09.11.2015 17:47 16,5 C 78 % 1024,1 hPa 0,0 l/m 12,2 km/h (2 Bft) W 276 0 min 0,000 mm 0,0 UV-I 0 W/m 12,6 C 13,9 C 19,3 km/h (3 Bft) 100,00 %
09.11.2015 17:48 16,5 C 79 % 1024,1 hPa 0,0 l/m 7,9 km/h (2 Bft) W-SW 255 0 min 0,000 mm 0,0 UV-I 0 W/m 12,8 C 15,7 C 11,3 km/h (2 Bft) 100,00 %
09.11.2015 17:49 16,6 C 78 % 1024,2 hPa 0,0 l/m 9,2 km/h (2 Bft) W 277 0 min 0,000 mm 0,0 UV-I 0 W/m 12,7 C 15,2 C 16,1 km/h (3 Bft) 100,00 %
09.11.2015 17:50 16,6 C 78 % 1024,1 hPa 0,0 l/m 9,6 km/h (2 Bft) W 269 0 min 0,000 mm 0,0 UV-I 0 W/m 12,7 C 15,1 C 12,9 km/h (3 Bft) 95,65 %
09.11.2015 17:51 16,6 C 78 % 1024,1 hPa 0,0 l/m 10,1 km/h (2 Bft) W 263 0 min 0,000 mm 0,0 UV-I 0 W/m 12,7 C 14,8 C 14,5 km/h (3 Bft) 100,00 %
09.11.2015 17:52 16,6 C 78 % 1024,1 hPa 0,0 l/m 7,7 km/h (2 Bft) SW 229 0 min 0,000 mm 0,0 UV-I 0 W/m 12,7 C 15,9 C 14,5 km/h (3 Bft) 95,65 %
09.11.2015 17:53 16,6 C 78 % 1024,1 hPa 0,0 l/m 12,4 km/h (3 Bft) W-NW 291 0 min 0,000 mm 0,0 UV-I 0 W/m 12,7 C 14,0 C 16,1 km/h (3 Bft) 100,00 %
09.11.2015 17:54 16,6 C 78 % 1024,2 hPa 0,0 l/m 9,3 km/h (2 Bft) W-NW 296 0 min 0,000 mm 0,0 UV-I 0 W/m 12,7 C 15,2 C 22,5 km/h (4 Bft) 100,00 %
09.11.2015 17:55 16,6 C 78 % 1024,1 hPa 0,0 l/m 6,0 km/h (2 Bft) W 277 0 min 0,000 mm 0,0 UV-I 0 W/m 12,7 C 16,6 C 12,9 km/h (3 Bft) 100,00 %
09.11.2015 17:56 16,5 C 78 % 1024,1 hPa 0,0 l/m 9,9 km/h (2 Bft) W-SW 255 0 min 0,000 mm 0,0 UV-I 0 W/m 12,6 C 14,8 C 14,5 km/h (3 Bft) 100,00 %
09.11.2015 17:57 16,5 C 78 % 1024,1 hPa 0,0 l/m 14,0 km/h (3 Bft) W 274 0 min 0,000 mm 0,0 UV-I 0 W/m 12,6 C 13,3 C 19,3 km/h (3 Bft) 91,30 %
09.11.2015 17:58 16,5 C 78 % 1024,1 hPa 0,0 l/m 13,9 km/h (3 Bft) W 278 0 min 0,000 mm 0,0 UV-I 0 W/m 12,6 C 13,4 C 19,3 km/h (3 Bft) 100,00 %
09.11.2015 17:59 16,5 C 77 % 1024,2 hPa 0,0 l/m 11,3 km/h (2 Bft) W 273 0 min 0,000 mm 0,0 UV-I 0 W/m 12,5 C 14,3 C 20,9 km/h (4 Bft) 92,86 %
09.11.2015 18:00 16,5 C 77 % 1024,2 hPa 0,0 l/m 12,7 km/h (3 Bft) NW 306 0 min 0,000 mm 0,0 UV-I 0 W/m 12,5 C 13,8 C 22,5 km/h (4 Bft) 100,00 %
09.11.2015 18:01 16,6 C 77 % 1024,1 hPa 0,0 l/m 8,5 km/h (2 Bft) W 270 0 min 0,025 mm 0,0 UV-I 0 W/m 12,5 C 15,5 C 12,9 km/h (3 Bft) 100,00 %
09.11.2015 18:02 16,6 C 77 % 1024,1 hPa 0,0 l/m 12,1 km/h (2 Bft) NW 311 0 min 0,000 mm 0,0 UV-I 0 W/m 12,5 C 14,1 C 17,7 km/h (3 Bft) 100,00 %
09.11.2015 18:03 16,6 C 77 % 1024,1 hPa 0,0 l/m 11,9 km/h (2 Bft) W-NW 289 0 min 0,000 mm 0,0 UV-I 0 W/m 12,5 C 14,2 C 16,1 km/h (3 Bft) 95,65 %
09.11.2015 18:04 16,6 C 77 % 1024,2 hPa 0,0 l/m 10,9 km/h (2 Bft) W 279 0 min 0,000 mm 0,0 UV-I 0 W/m 12,5 C 14,5 C 17,7 km/h (3 Bft) 100,00 %
09.11.2015 18:05 16,6 C 77 % 1024,2 hPa 0,0 l/m 10,6 km/h (2 Bft) W 281 0 min 0,000 mm 0,0 UV-I 0 W/m 12,5 C 14,6 C 22,5 km/h (4 Bft) 100,00 %
09.11.2015 18:06 16,6 C 76 % 1024,2 hPa 0,0 l/m 10,3 km/h (2 Bft) W 268 0 min 0,000 mm 0,0 UV-I 0 W/m 12,3 C 14,8 C 17,7 km/h (3 Bft) 95,83 %
09.11.2015 18:07 16,6 C 77 % 1024,2 hPa 0,0 l/m 7,2 km/h (2 Bft) W 269 0 min 0,000 mm 0,0 UV-I 0 W/m 12,5 C 16,2 C 11,3 km/h (2 Bft) 100,00 %
09.11.2015 18:08 16,6 C 77 % 1024,3 hPa 0,0 l/m 9,7 km/h (2 Bft) W 267 0 min 0,000 mm 0,0 UV-I 0 W/m 12,5 C 15,0 C 16,1 km/h (3 Bft) 100,00 %
09.11.2015 18:09 16,6 C 76 % 1024,3 hPa 0,0 l/m 9,8 km/h (2 Bft) W 272 0 min 0,000 mm 0,0 UV-I 0 W/m 12,3 C 15,0 C 14,5 km/h (3 Bft) 100,00 %
09.11.2015 18:10 16,6 C 76 % 1024,3 hPa 0,0 l/m 12,7 km/h (3 Bft) W 263 0 min 0,000 mm 0,0 UV-I 0 W/m 12,3 C 13,9 C 17,7 km/h (3 Bft) 95,83 %
09.11.2015 18:11 16,7 C 76 % 1024,3 hPa 0,0 l/m 10,8 km/h (2 Bft) W-NW 286 0 min 0,000 mm 0,0 UV-I 0 W/m 12,4 C 14,7 C 14,5 km/h (3 Bft) 100,00 %
09.11.2015 18:12 16,7 C 76 % 1024,3 hPa 0,0 l/m 12,6 km/h (3 Bft) W-SW 253 0 min 0,000 mm 0,0 UV-I 0 W/m 12,4 C 14,0 C 20,9 km/h (4 Bft) 100,00 %
09.11.2015 18:13 16,7 C 76 % 1024,4 hPa 0,0 l/m 7,6 km/h (2 Bft) W 278 0 min 0,000 mm 0,0 UV-I 0 W/m 12,4 C 16,1 C 11,3 km/h (2 Bft) 100,00 %
09.11.2015 18:14 16,7 C 76 % 1024,3 hPa 0,0 l/m 8,2 km/h (2 Bft) W-NW 292 0 min 0,000 mm 0,0 UV-I 0 W/m 12,4 C 15,8 C 14,5 km/h (3 Bft) 100,00 %
09.11.2015 18:15 16,7 C 76 % 1024,4 hPa 0,0 l/m 12,1 km/h (2 Bft) W 265 0 min 0,000 mm 0,0 UV-I 0 W/m 12,4 C 14,2 C 17,7 km/h (3 Bft) 100,00 %
09.11.2015 18:16 16,7 C 75 % 1024,3 hPa 0,0 l/m 13,3 km/h (3 Bft) W-NW 284 0 min 0,000 mm 0,0 UV-I 0 W/m 12,2 C 13,8 C 19,3 km/h (3 Bft) 95,65 %
09.11.2015 18:17 16,7 C 75 % 1024,3 hPa 0,0 l/m 12,3 km/h (3 Bft) W-NW 302 0 min 0,000 mm 0,0 UV-I 0 W/m 12,2 C 14,1 C 17,7 km/h (3 Bft) 100,00 %
09.11.2015 18:18 16,8 C 75 % 1024,3 hPa 0,0 l/m 10,1 km/h (2 Bft) W 274 0 min 0,000 mm 0,0 UV-I 0 W/m 12,3 C 15,1 C 20,9 km/h (4 Bft) 100,00 %
09.11.2015 18:19 16,8 C 75 % 1024,4 hPa 0,0 l/m 11,6 km/h (2 Bft) W 263 0 min 0,000 mm 0,0 UV-I 0 W/m 12,3 C 14,5 C 17,7 km/h (3 Bft) 100,00 %
09.11.2015 18:20 16,8 C 75 % 1024,4 hPa 0,0 l/m 10,4 km/h (2 Bft) NW 304 0 min 0,000 mm 0,0 UV-I 0 W/m 12,3 C 14,9 C 14,5 km/h (3 Bft) 100,00 %
09.11.2015 18:21 16,8 C 75 % 1024,4 hPa 0,0 l/m 7,5 km/h (2 Bft) W 273 0 min 0,000 mm 0,0 UV-I 0 W/m 12,3 C 16,2 C 9,7 km/h (2 Bft) 95,83 %
09.11.2015 18:22 16,8 C 75 % 1024,5 hPa 0,0 l/m 7,8 km/h (2 Bft) W 277 0 min 0,000 mm 0,0 UV-I 0 W/m 12,3 C 16,1 C 12,9 km/h (3 Bft) 100,00 %
09.11.2015 18:23 16,8 C 75 % 1024,4 hPa 0,0 l/m 9,5 km/h (2 Bft) W 270 0 min 0,000 mm 0,0 UV-I 0 W/m 12,3 C 15,3 C 12,9 km/h (3 Bft) 100,00 %
09.11.2015 18:24 16,8 C 75 % 1024,5 hPa 0,0 l/m 8,0 km/h (2 Bft) W-SW 253 0 min 0,000 mm 0,0 UV-I 0 W/m 12,3 C 16,0 C 16,1 km/h (3 Bft) 100,00 %
09.11.2015 18:25 16,8 C 74 % 1024,4 hPa 0,0 l/m 7,8 km/h (2 Bft) W-SW 258 0 min 0,000 mm 0,0 UV-I 0 W/m 12,1 C 16,1 C 11,3 km/h (2 Bft) 100,00 %
09.11.2015 18:26 16,8 C 75 % 1024,6 hPa 0,0 l/m 6,3 km/h (2 Bft) W 269 0 min 0,000 mm 0,0 UV-I 0 W/m 12,3 C 16,8 C 12,9 km/h (3 Bft) 100,00 %
09.11.2015 18:27 16,8 C 74 % 1024,5 hPa 0,0 l/m 10,6 km/h (2 Bft) W 261 0 min 0,000 mm 0,0 UV-I 0 W/m 12,1 C 14,9 C 17,7 km/h (3 Bft) 95,65 %
09.11.2015 18:28 16,8 C 74 % 1024,6 hPa 0,0 l/m 10,3 km/h (2 Bft) W-NW 296 0 min 0,000 mm 0,0 UV-I 0 W/m 12,1 C 15,0 C 16,1 km/h (3 Bft) 95,83 %
09.11.2015 18:29 16,8 C 74 % 1024,5 hPa 0,0 l/m 8,9 km/h (2 Bft) W 267 0 min 0,000 mm 0,0 UV-I 0 W/m 12,1 C 15,6 C 16,1 km/h (3 Bft) 100,00 %
09.11.2015 18:30 16,8 C 74 % 1024,6 hPa 0,0 l/m 6,3 km/h (2 Bft) W 261 0 min 0,000 mm 0,0 UV-I 0 W/m 12,1 C 16,8 C 11,3 km/h (2 Bft) 100,00 %
09.11.2015 18:31 16,8 C 75 % 1024,6 hPa 0,0 l/m 5,2 km/h (1 Bft) W-SW 250 0 min 0,000 mm 0,0 UV-I 0 W/m 12,3 C 16,8 C 6,4 km/h (2 Bft) 100,00 %
09.11.2015 18:32 16,8 C 75 % 1024,6 hPa 0,0 l/m 10,4 km/h (2 Bft) W-NW 285 0 min 0,000 mm 0,0 UV-I 0 W/m 12,3 C 14,9 C 17,7 km/h (3 Bft) 100,00 %
09.11.2015 18:33 16,8 C 75 % 1024,6 hPa 0,0 l/m 10,9 km/h (2 Bft) W-SW 238 0 min 0,000 mm 0,0 UV-I 0 W/m 12,3 C 14,8 C 14,5 km/h (3 Bft) 100,00 %
09.11.2015 18:34 16,8 C 74 % 1024,6 hPa 0,0 l/m 16,0 km/h (3 Bft) W-SW 253 0 min 0,000 mm 0,0 UV-I 0 W/m 12,1 C 13,1 C 24,1 km/h (4 Bft) 95,83 %
09.11.2015 18:35 16,8 C 74 % 1024,5 hPa 0,0 l/m 11,5 km/h (2 Bft) W-NW 283 0 min 0,000 mm 0,0 UV-I 0 W/m 12,1 C 14,5 C 19,3 km/h (3 Bft) 95,65 %
09.11.2015 18:36 16,8 C 74 % 1024,6 hPa 0,0 l/m 12,6 km/h (3 Bft) W-NW 289 0 min 0,000 mm 0,0 UV-I 0 W/m 12,1 C 14,1 C 24,1 km/h (4 Bft) 96,30 %
09.11.2015 18:37 16,8 C 74 % 1024,6 hPa 0,0 l/m 11,3 km/h (2 Bft) W-NW 290 0 min 0,000 mm 0,0 UV-I 0 W/m 12,1 C 14,6 C 19,3 km/h (3 Bft) 100,00 %
09.11.2015 18:38 16,8 C 74 % 1024,6 hPa 0,0 l/m 11,2 km/h (2 Bft) W 269 0 min 0,000 mm 0,0 UV-I 0 W/m 12,1 C 14,6 C 17,7 km/h (3 Bft) 100,00 %
09.11.2015 18:39 16,9 C 74 % 1024,6 hPa 0,0 l/m 8,7 km/h (2 Bft) W 263 0 min 0,000 mm 0,0 UV-I 0 W/m 12,2 C 15,8 C 12,9 km/h (3 Bft) 100,00 %
09.11.2015 18:40 16,9 C 74 % 1024,7 hPa 0,0 l/m 8,5 km/h (2 Bft) S-SW 207 0 min 0,000 mm 0,0 UV-I 0 W/m 12,2 C 15,9 C 14,5 km/h (3 Bft) 100,00 %
09.11.2015 18:41 16,8 C 74 % 1024,7 hPa 0,0 l/m 10,4 km/h (2 Bft) SW 236 0 min 0,000 mm 0,0 UV-I 0 W/m 12,1 C 14,9 C 17,7 km/h (3 Bft) 100,00 %
09.11.2015 18:42 16,8 C 74 % 1024,7 hPa 0,0 l/m 9,8 km/h (2 Bft) W 271 0 min 0,000 mm 0,0 UV-I 0 W/m 12,1 C 15,2 C 16,1 km/h (3 Bft) 100,00 %
09.11.2015 18:43 16,8 C 74 % 1024,7 hPa 0,0 l/m 11,1 km/h (2 Bft) W-SW 238 0 min 0,000 mm 0,0 UV-I 0 W/m 12,1 C 14,7 C 16,1 km/h (3 Bft) 100,00 %
09.11.2015 18:44 16,8 C 74 % 1024,7 hPa 0,0 l/m 7,7 km/h (2 Bft) W 259 0 min 0,000 mm 0,0 UV-I 0 W/m 12,1 C 16,1 C 12,9 km/h (3 Bft) 100,00 %
09.11.2015 18:45 16,8 C 74 % 1024,8 hPa 0,0 l/m 7,6 km/h (2 Bft) W 265 0 min 0,000 mm 0,0 UV-I 0 W/m 12,1 C 16,2 C 12,9 km/h (3 Bft) 100,00 %
09.11.2015 18:46 16,8 C 74 % 1024,8 hPa 0,0 l/m 9,3 km/h (2 Bft) W-SW 254 0 min 0,000 mm 0,0 UV-I 0 W/m 12,1 C 15,4 C 12,9 km/h (3 Bft) 100,00 %
09.11.2015 18:47 16,8 C 74 % 1024,7 hPa 0,0 l/m 11,7 km/h (2 Bft) W 269 0 min 0,000 mm 0,0 UV-I 0 W/m 12,1 C 14,5 C 19,3 km/h (3 Bft) 95,83 %
09.11.2015 18:48 16,8 C 74 % 1024,8 hPa 0,0 l/m 9,7 km/h (2 Bft) NW 309 0 min 0,000 mm 0,0 UV-I 0 W/m 12,1 C 15,2 C 17,7 km/h (3 Bft) 100,00 %
09.11.2015 18:49 16,8 C 74 % 1024,7 hPa 0,0 l/m 8,2 km/h (2 Bft) W 263 0 min 0,000 mm 0,0 UV-I 0 W/m 12,1 C 15,9 C 12,9 km/h (3 Bft) 100,00 %
09.11.2015 18:50 16,8 C 74 % 1024,7 hPa 0,0 l/m 8,5 km/h (2 Bft) W 274 0 min 0,000 mm 0,0 UV-I 0 W/m 12,1 C 15,8 C 11,3 km/h (2 Bft) 96,15 %
09.11.2015 18:51 16,7 C 74 % 1024,8 hPa 0,0 l/m 7,1 km/h (2 Bft) W 271 0 min 0,000 mm 0,0 UV-I 0 W/m 12,0 C 16,3 C 11,3 km/h (2 Bft) 100,00 %
09.11.2015 18:52 16,7 C 74 % 1024,8 hPa 0,0 l/m 8,9 km/h (2 Bft) W 265 0 min 0,000 mm 0,0 UV-I 0 W/m 12,0 C 15,5 C 14,5 km/h (3 Bft) 100,00 %
09.11.2015 18:53 16,7 C 74 % 1024,8 hPa 0,0 l/m 10,6 km/h (2 Bft) W-NW 288 0 min 0,000 mm 0,0 UV-I 0 W/m 12,0 C 14,8 C 24,1 km/h (4 Bft) 100,00 %
09.11.2015 18:54 16,7 C 74 % 1024,8 hPa 0,0 l/m 12,4 km/h (3 Bft) W 259 0 min 0,000 mm 0,0 UV-I 0 W/m 12,0 C 14,1 C 14,5 km/h (3 Bft) 100,00 %
09.11.2015 18:55 16,7 C 74 % 1024,8 hPa 0,0 l/m 6,8 km/h (2 Bft) W 266 0 min 0,000 mm 0,0 UV-I 0 W/m 12,0 C 16,5 C 12,9 km/h (3 Bft) 100,00 %
09.11.2015 18:56 16,7 C 74 % 1024,8 hPa 0,0 l/m 7,7 km/h (2 Bft) W 273 0 min 0,000 mm 0,0 UV-I 0 W/m 12,0 C 16,0 C 11,3 km/h (2 Bft) 95,65 %
09.11.2015 18:57 16,7 C 75 % 1024,8 hPa 0,0 l/m 6,2 km/h (2 Bft) W 259 0 min 0,000 mm 0,0 UV-I 0 W/m 12,2 C 16,7 C 11,3 km/h (2 Bft) 95,83 %
09.11.2015 18:58 16,7 C 75 % 1024,9 hPa 0,0 l/m 5,7 km/h (1 Bft) W 265 0 min 0,000 mm 0,0 UV-I 0 W/m 12,2 C 16,7 C 9,7 km/h (2 Bft) 100,00 %
09.11.2015 18:59 16,6 C 75 % 1024,9 hPa 0,0 l/m 9,2 km/h (2 Bft) W 267 0 min 0,000 mm 0,0 UV-I 0 W/m 12,1 C 15,2 C 12,9 km/h (3 Bft) 100,00 %
09.11.2015 19:00 16,6 C 75 % 1024,9 hPa 0,0 l/m 9,9 km/h (2 Bft) W 268 0 min 0,000 mm 0,0 UV-I 0 W/m 12,1 C 14,9 C 20,9 km/h (4 Bft) 91,30 %
09.11.2015 19:01 16,6 C 75 % 1024,9 hPa 0,0 l/m 12,0 km/h (2 Bft) W-SW 258 0 min 0,026 mm 0,0 UV-I 0 W/m 12,1 C 14,1 C 16,1 km/h (3 Bft) 100,00 %
09.11.2015 19:02 16,6 C 75 % 1024,9 hPa 0,0 l/m 8,5 km/h (2 Bft) W 271 0 min 0,000 mm 0,0 UV-I 0 W/m 12,1 C 15,5 C 12,9 km/h (3 Bft) 95,65 %
09.11.2015 19:03 16,6 C 75 % 1024,9 hPa 0,0 l/m 9,1 km/h (2 Bft) W 261 0 min 0,000 mm 0,0 UV-I 0 W/m 12,1 C 15,3 C 14,5 km/h (3 Bft) 100,00 %
09.11.2015 19:04 16,6 C 75 % 1024,9 hPa 0,0 l/m 8,9 km/h (2 Bft) W-NW 300 0 min 0,000 mm 0,0 UV-I 0 W/m 12,1 C 15,4 C 11,3 km/h (2 Bft) 100,00 %
09.11.2015 19:05 16,6 C 75 % 1024,9 hPa 0,0 l/m 8,9 km/h (2 Bft) W-SW 246 0 min 0,000 mm 0,0 UV-I 0 W/m 12,1 C 15,4 C 16,1 km/h (3 Bft) 95,83 %
09.11.2015 19:06 16,5 C 75 % 1025,0 hPa 0,0 l/m 7,3 km/h (2 Bft) W-SW 247 0 min 0,000 mm 0,0 UV-I 0 W/m 12,1 C 16,0 C 11,3 km/h (2 Bft) 100,00 %
09.11.2015 19:07 16,5 C 75 % 1025,0 hPa 0,0 l/m 7,6 km/h (2 Bft) W 263 0 min 0,000 mm 0,0 UV-I 0 W/m 12,1 C 15,9 C 16,1 km/h (3 Bft) 100,00 %
09.11.2015 19:08 16,5 C 75 % 1025,0 hPa 0,0 l/m 7,0 km/h (2 Bft) W 276 0 min 0,000 mm 0,0 UV-I 0 W/m 12,1 C 16,2 C 11,3 km/h (2 Bft) 100,00 %
09.11.2015 19:09 16,4 C 75 % 1025,0 hPa 0,0 l/m 9,0 km/h (2 Bft) W-NW 297 0 min 0,000 mm 0,0 UV-I 0 W/m 12,0 C 15,1 C 14,5 km/h (3 Bft) 100,00 %
09.11.2015 19:10 16,4 C 75 % 1024,9 hPa 0,0 l/m 6,6 km/h (2 Bft) W-SW 246 0 min 0,000 mm 0,0 UV-I 0 W/m 12,0 C 16,3 C 12,9 km/h (3 Bft) 100,00 %
09.11.2015 19:11 16,4 C 75 % 1024,9 hPa 0,0 l/m 5,9 km/h (2 Bft) W 275 0 min 0,000 mm 0,0 UV-I 0 W/m 12,0 C 16,4 C 9,7 km/h (2 Bft) 100,00 %
09.11.2015 19:12 16,4 C 76 % 1025,0 hPa 0,0 l/m 5,6 km/h (1 Bft) W-NW 284 0 min 0,000 mm 0,0 UV-I 0 W/m 12,2 C 16,4 C 9,7 km/h (2 Bft) 100,00 %
09.11.2015 19:13 16,4 C 76 % 1024,9 hPa 0,0 l/m 6,6 km/h (2 Bft) W-NW 298 0 min 0,000 mm 0,0 UV-I 0 W/m 12,2 C 16,3 C 9,7 km/h (2 Bft) 100,00 %
09.11.2015 19:14 16,3 C 76 % 1025,0 hPa 0,0 l/m 4,9 km/h (1 Bft) W 263 0 min 0,000 mm 0,0 UV-I 0 W/m 12,1 C 16,3 C 8,0 km/h (2 Bft) 95,83 %
09.11.2015 19:15 16,3 C 76 % 1024,9 hPa 0,0 l/m 6,2 km/h (2 Bft) W 261 0 min 0,000 mm 0,0 UV-I 0 W/m 12,1 C 16,3 C 11,3 km/h (2 Bft) 100,00 %
09.11.2015 19:16 16,3 C 76 % 1024,9 hPa 0,0 l/m 9,6 km/h (2 Bft) W 273 0 min 0,000 mm 0,0 UV-I 0 W/m 12,1 C 14,7 C 14,5 km/h (3 Bft) 95,83 %
09.11.2015 19:17 16,3 C 76 % 1024,9 hPa 0,0 l/m 4,8 km/h (1 Bft) NW 304 0 min 0,000 mm 0,0 UV-I 0 W/m 12,1 C 16,3 C 6,4 km/h (2 Bft) 100,00 %
09.11.2015 19:18 16,3 C 76 % 1024,9 hPa 0,0 l/m 5,1 km/h (1 Bft) W-NW 297 0 min 0,000 mm 0,0 UV-I 0 W/m 12,1 C 16,3 C 9,7 km/h (2 Bft) 91,67 %
09.11.2015 19:19 16,2 C 76 % 1024,9 hPa 0,0 l/m 7,6 km/h (2 Bft) W 264 0 min 0,000 mm 0,0 UV-I 0 W/m 12,0 C 15,6 C 12,9 km/h (3 Bft) 100,00 %
09.11.2015 19:20 16,3 C 76 % 1024,9 hPa 0,0 l/m 5,9 km/h (2 Bft) W 276 0 min 0,000 mm 0,0 UV-I 0 W/m 12,1 C 16,3 C 9,7 km/h (2 Bft) 100,00 %
09.11.2015 19:21 16,2 C 76 % 1025,0 hPa 0,0 l/m 4,6 km/h (1 Bft) W 271 0 min 0,000 mm 0,0 UV-I 0 W/m 12,0 C 16,2 C 9,7 km/h (2 Bft) 100,00 %
09.11.2015 19:22 16,2 C 76 % 1025,0 hPa 0,0 l/m 7,8 km/h (2 Bft) W-NW 284 0 min 0,000 mm 0,0 UV-I 0 W/m 12,0 C 15,5 C 12,9 km/h (3 Bft) 100,00 %
09.11.2015 19:23 16,2 C 76 % 1024,9 hPa 0,0 l/m 4,6 km/h (1 Bft) W-SW 253 0 min 0,000 mm 0,0 UV-I 0 W/m 12,0 C 16,2 C 11,3 km/h (2 Bft) 100,00 %
09.11.2015 19:24 16,2 C 76 % 1024,9 hPa 0,0 l/m 3,9 km/h (1 Bft) W 272 0 min 0,000 mm 0,0 UV-I 0 W/m 12,0 C 16,2 C 4,8 km/h (1 Bft) 100,00 %
09.11.2015 19:25 16,2 C 77 % 1024,8 hPa 0,0 l/m 4,5 km/h (1 Bft) W 269 0 min 0,000 mm 0,0 UV-I 0 W/m 12,2 C 16,2 C 11,3 km/h (2 Bft) 100,00 %
09.11.2015 19:26 16,2 C 77 % 1024,9 hPa 0,0 l/m 9,9 km/h (2 Bft) NW 306 0 min 0,000 mm 0,0 UV-I 0 W/m 12,2 C 14,5 C 12,9 km/h (3 Bft) 100,00 %
09.11.2015 19:27 16,1 C 77 % 1024,9 hPa 0,0 l/m 4,9 km/h (1 Bft) W 275 0 min 0,000 mm 0,0 UV-I 0 W/m 12,1 C 16,1 C 6,4 km/h (2 Bft) 95,83 %
09.11.2015 19:28 16,1 C 77 % 1024,9 hPa 0,0 l/m 4,5 km/h (1 Bft) W-NW 288 0 min 0,000 mm 0,0 UV-I 0 W/m 12,1 C 16,1 C 6,4 km/h (2 Bft) 100,00 %
09.11.2015 19:29 16,1 C 77 % 1024,9 hPa 0,0 l/m 6,2 km/h (2 Bft) W 262 0 min 0,000 mm 0,0 UV-I 0 W/m 12,1 C 16,1 C 11,3 km/h (2 Bft) 100,00 %
09.11.2015 19:30 16,1 C 77 % 1024,9 hPa 0,0 l/m 6,4 km/h (2 Bft) W-NW 295 0 min 0,000 mm 0,0 UV-I 0 W/m 12,1 C 16,1 C 9,7 km/h (2 Bft) 95,65 %
09.11.2015 19:31 16,1 C 77 % 1025,0 hPa 0,0 l/m 5,5 km/h (1 Bft) W-SW 254 0 min 0,000 mm 0,0 UV-I 0 W/m 12,1 C 16,1 C 9,7 km/h (2 Bft) 100,00 %
09.11.2015 19:32 16,0 C 77 % 1025,0 hPa 0,0 l/m 6,4 km/h (2 Bft) SW 217 0 min 0,000 mm 0,0 UV-I 0 W/m 12,0 C 16,0 C 12,9 km/h (3 Bft) 100,00 %
09.11.2015 19:33 16,0 C 78 % 1024,9 hPa 0,0 l/m 4,3 km/h (1 Bft) W-NW 302 0 min 0,000 mm 0,0 UV-I 0 W/m 12,2 C 16,0 C 9,7 km/h (2 Bft) 100,00 %
09.11.2015 19:34 15,9 C 78 % 1025,0 hPa 0,0 l/m 3,1 km/h (1 Bft) NW 309 0 min 0,000 mm 0,0 UV-I 0 W/m 12,1 C 15,9 C 6,4 km/h (2 Bft) 100,00 %
09.11.2015 19:35 15,9 C 78 % 1025,0 hPa 0,0 l/m 4,1 km/h (1 Bft) W-NW 286 0 min 0,000 mm 0,0 UV-I 0 W/m 12,1 C 15,9 C 4,8 km/h (1 Bft) 100,00 %
09.11.2015 19:36 15,9 C 78 % 1025,0 hPa 0,0 l/m 5,1 km/h (1 Bft) W 263 0 min 0,000 mm 0,0 UV-I 0 W/m 12,1 C 15,9 C 8,0 km/h (2 Bft) 95,65 %
09.11.2015 19:37 15,9 C 78 % 1025,1 hPa 0,0 l/m 5,3 km/h (1 Bft) W 274 0 min 0,000 mm 0,0 UV-I 0 W/m 12,1 C 15,9 C 11,3 km/h (2 Bft) 100,00 %
09.11.2015 19:38 15,8 C 78 % 1025,2 hPa 0,0 l/m 3,9 km/h (1 Bft) W-NW 286 0 min 0,000 mm 0,0 UV-I 0 W/m 12,0 C 15,8 C 11,3 km/h (2 Bft) 95,65 %
09.11.2015 19:39 15,8 C 78 % 1025,2 hPa 0,0 l/m 6,2 km/h (2 Bft) W-SW 244 0 min 0,000 mm 0,0 UV-I 0 W/m 12,0 C 15,8 C 12,9 km/h (3 Bft) 100,00 %
09.11.2015 19:40 15,8 C 78 % 1025,2 hPa 0,0 l/m 6,8 km/h (2 Bft) W 271 0 min 0,000 mm 0,0 UV-I 0 W/m 12,0 C 15,6 C 11,3 km/h (2 Bft) 96,00 %
09.11.2015 19:41 15,8 C 78 % 1025,2 hPa 0,0 l/m 6,5 km/h (2 Bft) W 278 0 min 0,000 mm 0,0 UV-I 0 W/m 12,0 C 15,8 C 11,3 km/h (2 Bft) 100,00 %
09.11.2015 19:42 15,8 C 78 % 1025,2 hPa 0,0 l/m 8,1 km/h (2 Bft) W-NW 290 0 min 0,000 mm 0,0 UV-I 0 W/m 12,0 C 14,9 C 11,3 km/h (2 Bft) 95,65 %
09.11.2015 19:43 15,8 C 78 % 1025,3 hPa 0,0 l/m 5,5 km/h (1 Bft) W 261 0 min 0,000 mm 0,0 UV-I 0 W/m 12,0 C 15,8 C 6,4 km/h (2 Bft) 100,00 %
09.11.2015 19:44 15,8 C 78 % 1025,2 hPa 0,0 l/m 4,6 km/h (1 Bft) SW 232 0 min 0,000 mm 0,0 UV-I 0 W/m 12,0 C 15,8 C 6,4 km/h (2 Bft) 100,00 %
09.11.2015 19:45 15,8 C 78 % 1025,3 hPa 0,0 l/m 5,5 km/h (1 Bft) W 275 0 min 0,000 mm 0,0 UV-I 0 W/m 12,0 C 15,8 C 11,3 km/h (2 Bft) 96,15 %
09.11.2015 19:46 15,8 C 78 % 1025,2 hPa 0,0 l/m 4,3 km/h (1 Bft) SW 227 0 min 0,000 mm 0,0 UV-I 0 W/m 12,0 C 15,8 C 6,4 km/h (2 Bft) 100,00 %
09.11.2015 19:47 15,8 C 78 % 1025,2 hPa 0,0 l/m 4,1 km/h (1 Bft) W 276 0 min 0,000 mm 0,0 UV-I 0 W/m 12,0 C 15,8 C 6,4 km/h (2 Bft) 95,65 %
09.11.2015 19:48 15,8 C 78 % 1025,2 hPa 0,0 l/m 7,3 km/h (2 Bft) NW 307 0 min 0,000 mm 0,0 UV-I 0 W/m 12,0 C 15,3 C 12,9 km/h (3 Bft) 100,00 %
09.11.2015 19:49 15,8 C 79 % 1025,2 hPa 0,0 l/m 10,7 km/h (2 Bft) W 276 0 min 0,000 mm 0,0 UV-I 0 W/m 12,2 C 13,7 C 14,5 km/h (3 Bft) 100,00 %
09.11.2015 19:50 15,8 C 79 % 1025,3 hPa 0,0 l/m 5,8 km/h (2 Bft) W-SW 244 0 min 0,000 mm 0,0 UV-I 0 W/m 12,2 C 15,8 C 11,3 km/h (2 Bft) 100,00 %
09.11.2015 19:51 15,8 C 78 % 1025,3 hPa 0,0 l/m 6,9 km/h (2 Bft) W 271 0 min 0,000 mm 0,0 UV-I 0 W/m 12,0 C 15,5 C 11,3 km/h (2 Bft) 100,00 %
09.11.2015 19:52 15,8 C 78 % 1025,3 hPa 0,0 l/m 6,5 km/h (2 Bft) W-NW 297 0 min 0,000 mm 0,0 UV-I 0 W/m 12,0 C 15,8 C 9,7 km/h (2 Bft) 100,00 %
09.11.2015 19:53 15,8 C 78 % 1025,3 hPa 0,0 l/m 8,0 km/h (2 Bft) W-SW 247 0 min 0,000 mm 0,0 UV-I 0 W/m 12,0 C 14,9 C 14,5 km/h (3 Bft) 95,65 %
09.11.2015 19:54 15,8 C 78 % 1025,3 hPa 0,0 l/m 7,6 km/h (2 Bft) W-NW 295 0 min 0,000 mm 0,0 UV-I 0 W/m 12,0 C 15,1 C 11,3 km/h (2 Bft) 100,00 %
09.11.2015 19:55 15,9 C 78 % 1025,3 hPa 0,0 l/m 7,0 km/h (2 Bft) W-SW 238 0 min 0,000 mm 0,0 UV-I 0 W/m 12,1 C 15,6 C 12,9 km/h (3 Bft) 95,65 %
09.11.2015 19:56 15,9 C 78 % 1025,3 hPa 0,0 l/m 6,6 km/h (2 Bft) NW 315 0 min 0,000 mm 0,0 UV-I 0 W/m 12,1 C 15,8 C 12,9 km/h (3 Bft) 100,00 %
09.11.2015 19:57 15,9 C 78 % 1025,3 hPa 0,0 l/m 10,3 km/h (2 Bft) W 266 0 min 0,000 mm 0,0 UV-I 0 W/m 12,1 C 14,0 C 17,7 km/h (3 Bft) 96,15 %
09.11.2015 19:58 15,9 C 78 % 1025,3 hPa 0,0 l/m 6,9 km/h (2 Bft) W 277 0 min 0,000 mm 0,0 UV-I 0 W/m 12,1 C 15,6 C 12,9 km/h (3 Bft) 100,00 %
09.11.2015 19:59 15,9 C 78 % 1025,4 hPa 0,0 l/m 11,5 km/h (2 Bft) W 272 0 min 0,000 mm 0,0 UV-I 0 W/m 12,1 C 13,5 C 16,1 km/h (3 Bft) 95,65 %
09.11.2015 20:00 15,9 C 78 % 1025,4 hPa 0,0 l/m 9,6 km/h (2 Bft) W-NW 286 0 min 0,000 mm 0,0 UV-I 0 W/m 12,1 C 14,3 C 16,1 km/h (3 Bft) 95,83 %
09.11.2015 20:01 15,9 C 78 % 1025,4 hPa 0,0 l/m 9,1 km/h (2 Bft) W 265 0 min 0,025 mm 0,0 UV-I 0 W/m 12,1 C 14,5 C 14,5 km/h (3 Bft) 95,65 %
09.11.2015 20:02 15,9 C 78 % 1025,4 hPa 0,0 l/m 9,1 km/h (2 Bft) W 273 0 min 0,000 mm 0,0 UV-I 0 W/m 12,1 C 14,5 C 16,1 km/h (3 Bft) 100,00 %
09.11.2015 20:03 15,9 C 78 % 1025,4 hPa 0,0 l/m 6,2 km/h (2 Bft) W 267 0 min 0,000 mm 0,0 UV-I 0 W/m 12,1 C 15,9 C 11,3 km/h (2 Bft) 100,00 %
09.11.2015 20:04 15,9 C 78 % 1025,4 hPa 0,0 l/m 8,2 km/h (2 Bft) W-SW 257 0 min 0,000 mm 0,0 UV-I 0 W/m 12,1 C 14,9 C 11,3 km/h (2 Bft) 100,00 %
09.11.2015 20:05 15,9 C 78 % 1025,4 hPa 0,0 l/m 7,1 km/h (2 Bft) W 261 0 min 0,000 mm 0,0 UV-I 0 W/m 12,1 C 15,5 C 11,3 km/h (2 Bft) 100,00 %
09.11.2015 20:06 15,8 C 78 % 1025,4 hPa 0,0 l/m 5,4 km/h (1 Bft) W 275 0 min 0,000 mm 0,0 UV-I 0 W/m 12,0 C 15,8 C 11,3 km/h (2 Bft) 92,31 %
09.11.2015 20:07 15,8 C 78 % 1025,4 hPa 0,0 l/m 7,0 km/h (2 Bft) W-SW 248 0 min 0,000 mm 0,0 UV-I 0 W/m 12,0 C 15,5 C 11,3 km/h (2 Bft) 100,00 %
09.11.2015 20:08 15,8 C 78 % 1025,4 hPa 0,0 l/m 5,3 km/h (1 Bft) W 267 0 min 0,000 mm 0,0 UV-I 0 W/m 12,0 C 15,8 C 9,7 km/h (2 Bft) 100,00 %
09.11.2015 20:09 15,8 C 78 % 1025,4 hPa 0,0 l/m 8,7 km/h (2 Bft) W 276 0 min 0,000 mm 0,0 UV-I 0 W/m 12,0 C 14,6 C 14,5 km/h (3 Bft) 100,00 %
09.11.2015 20:10 15,8 C 79 % 1025,3 hPa 0,0 l/m 5,2 km/h (1 Bft) W 269 0 min 0,000 mm 0,0 UV-I 0 W/m 12,2 C 15,8 C 9,7 km/h (2 Bft) 95,65 %
09.11.2015 20:11 15,8 C 78 % 1025,4 hPa 0,0 l/m 4,6 km/h (1 Bft) W-SW 250 0 min 0,000 mm 0,0 UV-I 0 W/m 12,0 C 15,8 C 6,4 km/h (2 Bft) 100,00 %
09.11.2015 20:12 15,8 C 79 % 1025,4 hPa 0,0 l/m 3,8 km/h (1 Bft) W 275 0 min 0,000 mm 0,0 UV-I 0 W/m 12,2 C 15,8 C 6,4 km/h (2 Bft) 95,65 %
09.11.2015 20:13 15,7 C 79 % 1025,3 hPa 0,0 l/m 4,9 km/h (1 Bft) SW 233 0 min 0,000 mm 0,0 UV-I 0 W/m 12,1 C 15,7 C 6,4 km/h (2 Bft) 100,00 %
09.11.2015 20:14 15,7 C 79 % 1025,4 hPa 0,0 l/m 3,6 km/h (1 Bft) W-NW 291 0 min 0,000 mm 0,0 UV-I 0 W/m 12,1 C 15,7 C 4,8 km/h (1 Bft) 100,00 %
09.11.2015 20:15 15,7 C 79 % 1025,4 hPa 0,0 l/m 6,2 km/h (2 Bft) W-NW 286 0 min 0,000 mm 0,0 UV-I 0 W/m 12,1 C 15,7 C 11,3 km/h (2 Bft) 95,83 %
09.11.2015 20:16 15,7 C 79 % 1025,4 hPa 0,0 l/m 8,3 km/h (2 Bft) W 279 0 min 0,000 mm 0,0 UV-I 0 W/m 12,1 C 14,7 C 12,9 km/h (3 Bft) 100,00 %
09.11.2015 20:17 15,7 C 79 % 1025,4 hPa 0,0 l/m 3,8 km/h (1 Bft) W 271 0 min 0,000 mm 0,0 UV-I 0 W/m 12,1 C 15,7 C 6,4 km/h (2 Bft) 100,00 %
09.11.2015 20:18 15,7 C 79 % 1025,4 hPa 0,0 l/m 5,5 km/h (1 Bft) W 278 0 min 0,000 mm 0,0 UV-I 0 W/m 12,1 C 15,7 C 9,7 km/h (2 Bft) 95,65 %
09.11.2015 20:19 15,7 C 79 % 1025,5 hPa 0,0 l/m 8,2 km/h (2 Bft) W-NW 294 0 min 0,000 mm 0,0 UV-I 0 W/m 12,1 C 14,7 C 12,9 km/h (3 Bft) 100,00 %
09.11.2015 20:20 15,7 C 79 % 1025,5 hPa 0,0 l/m 6,0 km/h (2 Bft) W 274 0 min 0,000 mm 0,0 UV-I 0 W/m 12,1 C 15,7 C 11,3 km/h (2 Bft) 95,65 %
09.11.2015 20:21 15,6 C 79 % 1025,5 hPa 0,0 l/m 6,6 km/h (2 Bft) W-SW 245 0 min 0,000 mm 0,0 UV-I 0 W/m 12,0 C 15,5 C 11,3 km/h (2 Bft) 100,00 %
09.11.2015 20:22 15,6 C 79 % 1025,5 hPa 0,0 l/m 6,6 km/h (2 Bft) W-NW 293 0 min 0,000 mm 0,0 UV-I 0 W/m 12,0 C 15,5 C 11,3 km/h (2 Bft) 100,00 %
09.11.2015 20:23 15,6 C 79 % 1025,5 hPa 0,0 l/m 6,3 km/h (2 Bft) W 278 0 min 0,000 mm 0,0 UV-I 0 W/m 12,0 C 15,6 C 9,7 km/h (2 Bft) 100,00 %
09.11.2015 20:24 15,6 C 79 % 1025,5 hPa 0,0 l/m 11,5 km/h (2 Bft) W-SW 249 0 min 0,000 mm 0,0 UV-I 0 W/m 12,0 C 13,2 C 17,7 km/h (3 Bft) 100,00 %
09.11.2015 20:25 15,6 C 79 % 1025,5 hPa 0,0 l/m 8,2 km/h (2 Bft) W-NW 283 0 min 0,000 mm 0,0 UV-I 0 W/m 12,0 C 14,6 C 12,9 km/h (3 Bft) 91,30 %
09.11.2015 20:26 15,6 C 79 % 1025,5 hPa 0,0 l/m 7,2 km/h (2 Bft) W-NW 284 0 min 0,000 mm 0,0 UV-I 0 W/m 12,0 C 15,2 C 9,7 km/h (2 Bft) 95,83 %
09.11.2015 20:27 15,6 C 79 % 1025,5 hPa 0,0 l/m 8,0 km/h (2 Bft) W 267 0 min 0,000 mm 0,0 UV-I 0 W/m 12,0 C 14,7 C 11,3 km/h (2 Bft) 100,00 %
09.11.2015 20:28 15,6 C 79 % 1025,5 hPa 0,0 l/m 7,2 km/h (2 Bft) W 274 0 min 0,000 mm 0,0 UV-I 0 W/m 12,0 C 15,2 C 9,7 km/h (2 Bft) 100,00 %
09.11.2015 20:29 15,6 C 79 % 1025,5 hPa 0,0 l/m 6,6 km/h (2 Bft) W 259 0 min 0,000 mm 0,0 UV-I 0 W/m 12,0 C 15,5 C 12,9 km/h (3 Bft) 95,65 %
09.11.2015 20:30 15,6 C 79 % 1025,4 hPa 0,0 l/m 11,7 km/h (2 Bft) W 271 0 min 0,000 mm 0,0 UV-I 0 W/m 12,0 C 13,1 C 14,5 km/h (3 Bft) 100,00 %
09.11.2015 20:31 15,6 C 79 % 1025,5 hPa 0,0 l/m 6,8 km/h (2 Bft) W-SW 250 0 min 0,000 mm 0,0 UV-I 0 W/m 12,0 C 15,4 C 9,7 km/h (2 Bft) 100,00 %
09.11.2015 20:32 15,7 C 79 % 1025,5 hPa 0,0 l/m 7,2 km/h (2 Bft) SW 221 0 min 0,000 mm 0,0 UV-I 0 W/m 12,1 C 15,3 C 12,9 km/h (3 Bft) 100,00 %
09.11.2015 20:33 15,7 C 79 % 1025,5 hPa 0,0 l/m 11,7 km/h (2 Bft) W 275 0 min 0,000 mm 0,0 UV-I 0 W/m 12,1 C 13,2 C 17,7 km/h (3 Bft) 100,00 %
09.11.2015 20:34 15,7 C 78 % 1025,5 hPa 0,0 l/m 7,9 km/h (2 Bft) W-SW 250 0 min 0,000 mm 0,0 UV-I 0 W/m 11,9 C 14,9 C 12,9 km/h (3 Bft) 100,00 %
09.11.2015 20:35 15,7 C 79 % 1025,5 hPa 0,0 l/m 8,6 km/h (2 Bft) W-SW 242 0 min 0,000 mm 0,0 UV-I 0 W/m 12,1 C 14,5 C 12,9 km/h (3 Bft) 100,00 %
09.11.2015 20:36 15,7 C 79 % 1025,5 hPa 0,0 l/m 10,5 km/h (2 Bft) W 269 0 min 0,000 mm 0,0 UV-I 0 W/m 12,1 C 13,7 C 16,1 km/h (3 Bft) 100,00 %
09.11.2015 20:37 15,7 C 78 % 1025,5 hPa 0,0 l/m 10,1 km/h (2 Bft) W 281 0 min 0,000 mm 0,0 UV-I 0 W/m 11,9 C 13,8 C 19,3 km/h (3 Bft) 100,00 %
09.11.2015 20:38 15,7 C 78 % 1025,5 hPa 0,0 l/m 7,9 km/h (2 Bft) W-NW 289 0 min 0,000 mm 0,0 UV-I 0 W/m 11,9 C 14,9 C 12,9 km/h (3 Bft) 100,00 %
09.11.2015 20:39 15,7 C 78 % 1025,5 hPa 0,0 l/m 9,2 km/h (2 Bft) W-SW 257 0 min 0,000 mm 0,0 UV-I 0 W/m 11,9 C 14,3 C 12,9 km/h (3 Bft) 100,00 %
09.11.2015 20:40 15,7 C 78 % 1025,5 hPa 0,0 l/m 6,4 km/h (2 Bft) SW 235 0 min 0,000 mm 0,0 UV-I 0 W/m 11,9 C 15,7 C 9,7 km/h (2 Bft) 100,00 %
09.11.2015 20:41 15,7 C 79 % 1025,5 hPa 0,0 l/m 7,4 km/h (2 Bft) W 274 0 min 0,000 mm 0,0 UV-I 0 W/m 12,1 C 15,2 C 14,5 km/h (3 Bft) 95,65 %
09.11.2015 20:42 15,7 C 78 % 1025,6 hPa 0,0 l/m 8,2 km/h (2 Bft) W-NW 294 0 min 0,000 mm 0,0 UV-I 0 W/m 11,9 C 14,7 C 12,9 km/h (3 Bft) 100,00 %
09.11.2015 20:43 15,7 C 78 % 1025,5 hPa 0,0 l/m 9,9 km/h (2 Bft) SW 221 0 min 0,000 mm 0,0 UV-I 0 W/m 11,9 C 13,9 C 16,1 km/h (3 Bft) 100,00 %
09.11.2015 20:44 15,7 C 79 % 1025,5 hPa 0,0 l/m 7,2 km/h (2 Bft) W 275 0 min 0,000 mm 0,0 UV-I 0 W/m 12,1 C 15,3 C 11,3 km/h (2 Bft) 96,15 %
09.11.2015 20:45 15,7 C 78 % 1025,5 hPa 0,0 l/m 7,3 km/h (2 Bft) W 261 0 min 0,000 mm 0,0 UV-I 0 W/m 11,9 C 15,2 C 12,9 km/h (3 Bft) 100,00 %
09.11.2015 20:46 15,7 C 78 % 1025,5 hPa 0,0 l/m 8,4 km/h (2 Bft) W-SW 254 0 min 0,000 mm 0,0 UV-I 0 W/m 11,9 C 14,6 C 12,9 km/h (3 Bft) 95,65 %
09.11.2015 20:47 15,7 C 78 % 1025,6 hPa 0,0 l/m 10,9 km/h (2 Bft) W-SW 247 0 min 0,000 mm 0,0 UV-I 0 W/m 11,9 C 13,5 C 17,7 km/h (3 Bft) 100,00 %
09.11.2015 20:48 15,7 C 78 % 1025,6 hPa 0,0 l/m 6,7 km/h (2 Bft) W-NW 300 0 min 0,000 mm 0,0 UV-I 0 W/m 11,9 C 15,5 C 12,9 km/h (3 Bft) 95,65 %
09.11.2015 20:49 15,7 C 78 % 1025,6 hPa 0,0 l/m 7,0 km/h (2 Bft) W-SW 248 0 min 0,000 mm 0,0 UV-I 0 W/m 11,9 C 15,4 C 12,9 km/h (3 Bft) 100,00 %
09.11.2015 20:50 15,7 C 78 % 1025,6 hPa 0,0 l/m 7,6 km/h (2 Bft) SW 229 0 min 0,000 mm 0,0 UV-I 0 W/m 11,9 C 15,0 C 11,3 km/h (2 Bft) 100,00 %
09.11.2015 20:51 15,7 C 78 % 1025,6 hPa 0,0 l/m 11,6 km/h (2 Bft) SW 230 0 min 0,000 mm 0,0 UV-I 0 W/m 11,9 C 13,2 C 16,1 km/h (3 Bft) 100,00 %
09.11.2015 20:52 15,7 C 78 % 1025,6 hPa 0,0 l/m 6,4 km/h (2 Bft) W-SW 254 0 min 0,000 mm 0,0 UV-I 0 W/m 11,9 C 15,7 C 11,3 km/h (2 Bft) 100,00 %
09.11.2015 20:53 15,7 C 78 % 1025,6 hPa 0,0 l/m 5,5 km/h (1 Bft) W-NW 294 0 min 0,000 mm 0,0 UV-I 0 W/m 11,9 C 15,7 C 9,7 km/h (2 Bft) 100,00 %
09.11.2015 20:54 15,7 C 78 % 1025,7 hPa 0,0 l/m 9,6 km/h (2 Bft) W 265 0 min 0,000 mm 0,0 UV-I 0 W/m 11,9 C 14,1 C 17,7 km/h (3 Bft) 95,65 %
09.11.2015 20:55 15,7 C 78 % 1025,7 hPa 0,0 l/m 9,3 km/h (2 Bft) W 266 0 min 0,000 mm 0,0 UV-I 0 W/m 11,9 C 14,2 C 16,1 km/h (3 Bft) 100,00 %
09.11.2015 20:56 15,7 C 78 % 1025,7 hPa 0,0 l/m 7,9 km/h (2 Bft) W-NW 290 0 min 0,000 mm 0,0 UV-I 0 W/m 11,9 C 14,9 C 11,3 km/h (2 Bft) 100,00 %
09.11.2015 20:57 15,7 C 78 % 1025,7 hPa 0,0 l/m 11,1 km/h (2 Bft) W 263 0 min 0,000 mm 0,0 UV-I 0 W/m 11,9 C 13,4 C 19,3 km/h (3 Bft) 95,83 %
09.11.2015 20:58 15,7 C 77 % 1025,7 hPa 0,0 l/m 8,6 km/h (2 Bft) W-NW 298 0 min 0,000 mm 0,0 UV-I 0 W/m 11,7 C 14,5 C 12,9 km/h (3 Bft) 100,00 %
09.11.2015 20:59 15,7 C 78 % 1025,7 hPa 0,0 l/m 6,5 km/h (2 Bft) W 273 0 min 0,000 mm 0,0 UV-I 0 W/m 11,9 C 15,7 C 11,3 km/h (2 Bft) 100,00 %
09.11.2015 21:00 15,7 C 78 % 1025,8 hPa 0,0 l/m 8,4 km/h (2 Bft) W-NW 288 0 min 0,000 mm 0,0 UV-I 0 W/m 11,9 C 14,6 C 11,3 km/h (2 Bft) 100,00 %
09.11.2015 21:01 15,7 C 77 % 1025,7 hPa 0,0 l/m 9,1 km/h (2 Bft) W-NW 298 0 min 0,025 mm 0,0 UV-I 0 W/m 11,7 C 14,3 C 16,1 km/h (3 Bft) 100,00 %
09.11.2015 21:02 15,7 C 77 % 1025,7 hPa 0,0 l/m 7,2 km/h (2 Bft) SW 224 0 min 0,000 mm 0,0 UV-I 0 W/m 11,7 C 15,3 C 16,1 km/h (3 Bft) 100,00 %
09.11.2015 21:03 15,7 C 77 % 1025,7 hPa 0,0 l/m 8,9 km/h (2 Bft) W-SW 237 0 min 0,000 mm 0,0 UV-I 0 W/m 11,7 C 14,4 C 12,9 km/h (3 Bft) 91,30 %
09.11.2015 21:04 15,7 C 77 % 1025,7 hPa 0,0 l/m 11,1 km/h (2 Bft) W 271 0 min 0,000 mm 0,0 UV-I 0 W/m 11,7 C 13,4 C 14,5 km/h (3 Bft) 100,00 %
09.11.2015 21:05 15,7 C 77 % 1025,8 hPa 0,0 l/m 8,0 km/h (2 Bft) W-SW 256 0 min 0,000 mm 0,0 UV-I 0 W/m 11,7 C 14,8 C 14,5 km/h (3 Bft) 95,65 %
09.11.2015 21:06 15,7 C 78 % 1025,8 hPa 0,0 l/m 7,1 km/h (2 Bft) W-SW 249 0 min 0,000 mm 0,0 UV-I 0 W/m 11,9 C 15,3 C 12,9 km/h (3 Bft) 100,00 %
09.11.2015 21:07 15,7 C 77 % 1025,8 hPa 0,0 l/m 8,6 km/h (2 Bft) W-SW 238 0 min 0,000 mm 0,0 UV-I 0 W/m 11,7 C 14,5 C 14,5 km/h (3 Bft) 100,00 %
09.11.2015 21:08 15,6 C 77 % 1025,8 hPa 0,0 l/m 6,9 km/h (2 Bft) W 279 0 min 0,000 mm 0,0 UV-I 0 W/m 11,6 C 15,3 C 11,3 km/h (2 Bft) 95,83 %
09.11.2015 21:09 15,6 C 77 % 1025,8 hPa 0,0 l/m 10,5 km/h (2 Bft) W 268 0 min 0,000 mm 0,0 UV-I 0 W/m 11,6 C 13,6 C 17,7 km/h (3 Bft) 100,00 %
09.11.2015 21:10 15,6 C 77 % 1025,8 hPa 0,0 l/m 9,7 km/h (2 Bft) W 274 0 min 0,000 mm 0,0 UV-I 0 W/m 11,6 C 13,9 C 14,5 km/h (3 Bft) 100,00 %
09.11.2015 21:11 15,7 C 77 % 1025,8 hPa 0,0 l/m 8,0 km/h (2 Bft) W 277 0 min 0,000 mm 0,0 UV-I 0 W/m 11,7 C 14,8 C 12,9 km/h (3 Bft) 95,65 %
09.11.2015 21:12 15,7 C 77 % 1025,8 hPa 0,0 l/m 7,6 km/h (2 Bft) W 273 0 min 0,000 mm 0,0 UV-I 0 W/m 11,7 C 15,0 C 11,3 km/h (2 Bft) 100,00 %
09.11.2015 21:13 15,6 C 77 % 1025,8 hPa 0,0 l/m 6,9 km/h (2 Bft) W-NW 289 0 min 0,000 mm 0,0 UV-I 0 W/m 11,6 C 15,3 C 9,7 km/h (2 Bft) 95,65 %
09.11.2015 21:14 15,6 C 77 % 1025,9 hPa 0,0 l/m 8,9 km/h (2 Bft) W 269 0 min 0,000 mm 0,0 UV-I 0 W/m 11,6 C 14,3 C 16,1 km/h (3 Bft) 100,00 %
09.11.2015 21:15 15,6 C 77 % 1025,8 hPa 0,0 l/m 7,7 km/h (2 Bft) W-SW 252 0 min 0,000 mm 0,0 UV-I 0 W/m 11,6 C 14,9 C 11,3 km/h (2 Bft) 100,00 %
09.11.2015 21:16 15,6 C 77 % 1025,8 hPa 0,0 l/m 7,3 km/h (2 Bft) W 271 0 min 0,000 mm 0,0 UV-I 0 W/m 11,6 C 15,1 C 12,9 km/h (3 Bft) 100,00 %
09.11.2015 21:17 15,6 C 77 % 1025,8 hPa 0,0 l/m 7,1 km/h (2 Bft) W-NW 291 0 min 0,000 mm 0,0 UV-I 0 W/m 11,6 C 15,2 C 11,3 km/h (2 Bft) 100,00 %
09.11.2015 21:18 15,6 C 77 % 1025,8 hPa 0,0 l/m 8,4 km/h (2 Bft) SW 224 0 min 0,000 mm 0,0 UV-I 0 W/m 11,6 C 14,5 C 14,5 km/h (3 Bft) 100,00 %
09.11.2015 21:19 15,6 C 77 % 1025,8 hPa 0,0 l/m 9,9 km/h (2 Bft) W 267 0 min 0,000 mm 0,0 UV-I 0 W/m 11,6 C 13,8 C 14,5 km/h (3 Bft) 95,65 %
09.11.2015 21:20 15,6 C 77 % 1025,8 hPa 0,0 l/m 8,7 km/h (2 Bft) W 272 0 min 0,000 mm 0,0 UV-I 0 W/m 11,6 C 14,4 C 14,5 km/h (3 Bft) 100,00 %
09.11.2015 21:21 15,6 C 76 % 1025,8 hPa 0,0 l/m 8,4 km/h (2 Bft) W-SW 249 0 min 0,000 mm 0,0 UV-I 0 W/m 11,4 C 14,5 C 16,1 km/h (3 Bft) 100,00 %
09.11.2015 21:22 15,6 C 77 % 1025,8 hPa 0,0 l/m 7,7 km/h (2 Bft) W 259 0 min 0,000 mm 0,0 UV-I 0 W/m 11,6 C 14,9 C 14,5 km/h (3 Bft) 100,00 %
09.11.2015 21:23 15,6 C 77 % 1025,8 hPa 0,0 l/m 6,7 km/h (2 Bft) W 274 0 min 0,000 mm 0,0 UV-I 0 W/m 11,6 C 15,4 C 9,7 km/h (2 Bft) 100,00 %
09.11.2015 21:24 15,6 C 76 % 1025,8 hPa 0,0 l/m 10,9 km/h (2 Bft) W-NW 286 0 min 0,000 mm 0,0 UV-I 0 W/m 11,4 C 13,4 C 17,7 km/h (3 Bft) 100,00 %
09.11.2015 21:25 15,7 C 76 % 1025,8 hPa 0,0 l/m 9,0 km/h (2 Bft) W 278 0 min 0,000 mm 0,0 UV-I 0 W/m 11,5 C 14,3 C 16,1 km/h (3 Bft) 100,00 %
09.11.2015 21:26 15,7 C 76 % 1025,8 hPa 0,0 l/m 8,4 km/h (2 Bft) SW 228 0 min 0,000 mm 0,0 UV-I 0 W/m 11,5 C 14,6 C 12,9 km/h (3 Bft) 100,00 %
09.11.2015 21:27 15,7 C 76 % 1025,8 hPa 0,0 l/m 6,9 km/h (2 Bft) W-SW 238 0 min 0,000 mm 0,0 UV-I 0 W/m 11,5 C 15,4 C 12,9 km/h (3 Bft) 100,00 %
09.11.2015 21:28 15,7 C 76 % 1025,8 hPa 0,0 l/m 9,3 km/h (2 Bft) SW 236 0 min 0,000 mm 0,0 UV-I 0 W/m 11,5 C 14,2 C 17,7 km/h (3 Bft) 95,65 %
09.11.2015 21:29 15,7 C 76 % 1025,8 hPa 0,0 l/m 9,9 km/h (2 Bft) SW 226 0 min 0,000 mm 0,0 UV-I 0 W/m 11,5 C 13,9 C 16,1 km/h (3 Bft) 100,00 %
09.11.2015 21:30 15,7 C 76 % 1025,7 hPa 0,0 l/m 7,9 km/h (2 Bft) S-SW 202 0 min 0,000 mm 0,0 UV-I 0 W/m 11,5 C 14,9 C 12,9 km/h (3 Bft) 100,00 %
09.11.2015 21:31 15,7 C 75 % 1025,7 hPa 0,0 l/m 11,6 km/h (2 Bft) W-NW 290 0 min 0,000 mm 0,0 UV-I 0 W/m 11,3 C 13,2 C 20,9 km/h (4 Bft) 100,00 %
09.11.2015 21:32 15,7 C 75 % 1025,7 hPa 0,0 l/m 13,5 km/h (3 Bft) SW 217 0 min 0,000 mm 0,0 UV-I 0 W/m 11,3 C 12,5 C 29,0 km/h (5 Bft) 100,00 %
09.11.2015 21:33 15,8 C 75 % 1025,7 hPa 0,0 l/m 12,5 km/h (3 Bft) W 266 0 min 0,000 mm 0,0 UV-I 0 W/m 11,4 C 13,0 C 17,7 km/h (3 Bft) 95,83 %
09.11.2015 21:34 15,8 C 74 % 1025,7 hPa 0,0 l/m 11,7 km/h (2 Bft) W-NW 294 0 min 0,000 mm 0,0 UV-I 0 W/m 11,2 C 13,3 C 17,7 km/h (3 Bft) 95,65 %
09.11.2015 21:35 15,8 C 74 % 1025,7 hPa 0,0 l/m 9,9 km/h (2 Bft) SW 232 0 min 0,000 mm 0,0 UV-I 0 W/m 11,2 C 14,0 C 16,1 km/h (3 Bft) 100,00 %
09.11.2015 21:36 15,8 C 74 % 1025,7 hPa 0,0 l/m 7,0 km/h (2 Bft) W-SW 256 0 min 0,000 mm 0,0 UV-I 0 W/m 11,2 C 15,5 C 12,9 km/h (3 Bft) 100,00 %
09.11.2015 21:37 15,8 C 74 % 1025,7 hPa 0,0 l/m 10,1 km/h (2 Bft) W 271 0 min 0,000 mm 0,0 UV-I 0 W/m 11,2 C 14,0 C 14,5 km/h (3 Bft) 100,00 %
09.11.2015 21:38 15,8 C 74 % 1025,7 hPa 0,0 l/m 9,3 km/h (2 Bft) W-SW 247 0 min 0,000 mm 0,0 UV-I 0 W/m 11,2 C 14,3 C 16,1 km/h (3 Bft) 100,00 %
09.11.2015 21:39 15,8 C 74 % 1025,7 hPa 0,0 l/m 7,1 km/h (2 Bft) W 271 0 min 0,000 mm 0,0 UV-I 0 W/m 11,2 C 15,4 C 12,9 km/h (3 Bft) 100,00 %
09.11.2015 21:40 15,8 C 74 % 1025,7 hPa 0,0 l/m 7,2 km/h (2 Bft) W-SW 250 0 min 0,000 mm 0,0 UV-I 0 W/m 11,2 C 15,4 C 11,3 km/h (2 Bft) 100,00 %
09.11.2015 21:41 15,8 C 74 % 1025,6 hPa 0,0 l/m 7,5 km/h (2 Bft) W-SW 258 0 min 0,000 mm 0,0 UV-I 0 W/m 11,2 C 15,2 C 12,9 km/h (3 Bft) 100,00 %
09.11.2015 21:42 15,8 C 74 % 1025,6 hPa 0,0 l/m 9,5 km/h (2 Bft) W-NW 296 0 min 0,000 mm 0,0 UV-I 0 W/m 11,2 C 14,2 C 16,1 km/h (3 Bft) 100,00 %
09.11.2015 21:43 15,8 C 73 % 1025,6 hPa 0,0 l/m 11,1 km/h (2 Bft) SW 228 0 min 0,000 mm 0,0 UV-I 0 W/m 11,0 C 13,5 C 17,7 km/h (3 Bft) 100,00 %
09.11.2015 21:44 15,8 C 73 % 1025,6 hPa 0,0 l/m 6,6 km/h (2 Bft) W-SW 245 0 min 0,000 mm 0,0 UV-I 0 W/m 11,0 C 15,7 C 12,9 km/h (3 Bft) 100,00 %
09.11.2015 21:45 15,8 C 73 % 1025,5 hPa 0,0 l/m 11,1 km/h (2 Bft) W-SW 258 0 min 0,000 mm 0,0 UV-I 0 W/m 11,0 C 13,5 C 20,9 km/h (4 Bft) 100,00 %
09.11.2015 21:46 15,8 C 73 % 1025,5 hPa 0,0 l/m 9,3 km/h (2 Bft) W-SW 237 0 min 0,000 mm 0,0 UV-I 0 W/m 11,0 C 14,3 C 17,7 km/h (3 Bft) 100,00 %
09.11.2015 21:47 15,8 C 73 % 1025,5 hPa 0,0 l/m 9,7 km/h (2 Bft) W-SW 248 0 min 0,000 mm 0,0 UV-I 0 W/m 11,0 C 14,1 C 16,1 km/h (3 Bft) 100,00 %
09.11.2015 21:48 15,8 C 73 % 1025,5 hPa 0,0 l/m 12,4 km/h (3 Bft) W-SW 243 0 min 0,000 mm 0,0 UV-I 0 W/m 11,0 C 13,0 C 17,7 km/h (3 Bft) 100,00 %
09.11.2015 21:49 15,8 C 73 % 1025,3 hPa 0,0 l/m 9,4 km/h (2 Bft) W-NW 287 0 min 0,000 mm 0,0 UV-I 0 W/m 11,0 C 14,3 C 16,1 km/h (3 Bft) 100,00 %
09.11.2015 21:50 15,8 C 73 % 1025,3 hPa 0,0 l/m 11,5 km/h (2 Bft) S-SW 211 0 min 0,000 mm 0,0 UV-I 0 W/m 11,0 C 13,4 C 17,7 km/h (3 Bft) 95,83 %
09.11.2015 21:51 15,8 C 72 % 1025,3 hPa 0,0 l/m 13,8 km/h (3 Bft) W 270 0 min 0,000 mm 0,0 UV-I 0 W/m 10,8 C 12,6 C 29,0 km/h (5 Bft) 100,00 %
09.11.2015 21:52 15,9 C 72 % 1025,4 hPa 0,0 l/m 13,1 km/h (3 Bft) W-NW 300 0 min 0,000 mm 0,0 UV-I 0 W/m 10,9 C 12,9 C 20,9 km/h (4 Bft) 100,00 %
09.11.2015 21:53 15,9 C 72 % 1025,4 hPa 0,0 l/m 11,1 km/h (2 Bft) W 281 0 min 0,000 mm 0,0 UV-I 0 W/m 10,9 C 13,7 C 17,7 km/h (3 Bft) 95,65 %
09.11.2015 21:54 15,8 C 72 % 1025,3 hPa 0,0 l/m 10,3 km/h (2 Bft) W-NW 287 0 min 0,000 mm 0,0 UV-I 0 W/m 10,8 C 13,9 C 14,5 km/h (3 Bft) 100,00 %
09.11.2015 21:55 15,8 C 72 % 1025,3 hPa 0,0 l/m 9,9 km/h (2 Bft) SW 227 0 min 0,000 mm 0,0 UV-I 0 W/m 10,8 C 14,0 C 19,3 km/h (3 Bft) 95,65 %
09.11.2015 21:56 15,8 C 72 % 1025,4 hPa 0,0 l/m 10,9 km/h (2 Bft) W-NW 286 0 min 0,000 mm 0,0 UV-I 0 W/m 10,8 C 13,6 C 17,7 km/h (3 Bft) 100,00 %
09.11.2015 21:57 15,8 C 72 % 1025,4 hPa 0,0 l/m 9,3 km/h (2 Bft) W-SW 240 0 min 0,000 mm 0,0 UV-I 0 W/m 10,8 C 14,3 C 16,1 km/h (3 Bft) 100,00 %
09.11.2015 21:58 15,8 C 72 % 1025,4 hPa 0,0 l/m 9,5 km/h (2 Bft) SW 223 0 min 0,000 mm 0,0 UV-I 0 W/m 10,8 C 14,2 C 16,1 km/h (3 Bft) 100,00 %
09.11.2015 21:59 15,8 C 72 % 1025,3 hPa 0,0 l/m 10,5 km/h (2 Bft) W-NW 291 0 min 0,000 mm 0,0 UV-I 0 W/m 10,8 C 13,8 C 16,1 km/h (3 Bft) 100,00 %
09.11.2015 22:00 15,8 C 71 % 1025,4 hPa 0,0 l/m 11,6 km/h (2 Bft) W 277 0 min 0,000 mm 0,0 UV-I 0 W/m 10,6 C 13,3 C 17,7 km/h (3 Bft) 100,00 %
09.11.2015 22:01 15,8 C 70 % 1025,4 hPa 0,0 l/m 12,3 km/h (3 Bft) SW 227 0 min 0,026 mm 0,0 UV-I 0 W/m 10,3 C 13,1 C 19,3 km/h (3 Bft) 100,00 %
09.11.2015 22:02 15,8 C 71 % 1025,4 hPa 0,0 l/m 9,1 km/h (2 Bft) W 269 0 min 0,000 mm 0,0 UV-I 0 W/m 10,6 C 14,4 C 19,3 km/h (3 Bft) 100,00 %
09.11.2015 22:03 15,8 C 71 % 1025,5 hPa 0,0 l/m 11,5 km/h (2 Bft) SW 232 0 min 0,000 mm 0,0 UV-I 0 W/m 10,6 C 13,4 C 16,1 km/h (3 Bft) 100,00 %
09.11.2015 22:04 15,8 C 71 % 1025,4 hPa 0,0 l/m 6,6 km/h (2 Bft) W-SW 256 0 min 0,000 mm 0,0 UV-I 0 W/m 10,6 C 15,7 C 12,9 km/h (3 Bft) 100,00 %
09.11.2015 22:05 15,8 C 71 % 1025,4 hPa 0,0 l/m 8,7 km/h (2 Bft) W-SW 252 0 min 0,000 mm 0,0 UV-I 0 W/m 10,6 C 14,6 C 12,9 km/h (3 Bft) 100,00 %
09.11.2015 22:06 15,8 C 70 % 1025,3 hPa 0,0 l/m 9,2 km/h (2 Bft) W 277 0 min 0,000 mm 0,0 UV-I 0 W/m 10,3 C 14,4 C 14,5 km/h (3 Bft) 100,00 %
09.11.2015 22:07 15,8 C 71 % 1025,4 hPa 0,0 l/m 10,1 km/h (2 Bft) W-NW 285 0 min 0,000 mm 0,0 UV-I 0 W/m 10,6 C 14,0 C 17,7 km/h (3 Bft) 95,83 %
09.11.2015 22:08 15,8 C 71 % 1025,4 hPa 0,0 l/m 10,7 km/h (2 Bft) W 269 0 min 0,000 mm 0,0 UV-I 0 W/m 10,6 C 13,7 C 14,5 km/h (3 Bft) 100,00 %
09.11.2015 22:09 15,7 C 71 % 1025,4 hPa 0,0 l/m 6,8 km/h (2 Bft) W 278 0 min 0,000 mm 0,0 UV-I 0 W/m 10,5 C 15,5 C 12,9 km/h (3 Bft) 100,00 %
09.11.2015 22:10 15,7 C 70 % 1025,4 hPa 0,0 l/m 6,5 km/h (2 Bft) W 269 0 min 0,000 mm 0,0 UV-I 0 W/m 10,2 C 15,7 C 11,3 km/h (2 Bft) 100,00 %
09.11.2015 22:11 15,7 C 70 % 1025,4 hPa 0,0 l/m 11,4 km/h (2 Bft) NW 305 0 min 0,000 mm 0,0 UV-I 0 W/m 10,2 C 13,3 C 17,7 km/h (3 Bft) 100,00 %
09.11.2015 22:12 15,7 C 71 % 1025,5 hPa 0,0 l/m 8,9 km/h (2 Bft) NW 311 0 min 0,000 mm 0,0 UV-I 0 W/m 10,5 C 14,4 C 16,1 km/h (3 Bft) 100,00 %
09.11.2015 22:13 15,7 C 70 % 1025,5 hPa 0,0 l/m 9,7 km/h (2 Bft) S-SW 213 0 min 0,000 mm 0,0 UV-I 0 W/m 10,2 C 14,0 C 14,5 km/h (3 Bft) 100,00 %
09.11.2015 22:14 15,7 C 70 % 1025,4 hPa 0,0 l/m 9,3 km/h (2 Bft) W 264 0 min 0,000 mm 0,0 UV-I 0 W/m 10,2 C 14,2 C 16,1 km/h (3 Bft) 100,00 %
09.11.2015 22:15 15,7 C 71 % 1025,4 hPa 0,0 l/m 9,3 km/h (2 Bft) W 263 0 min 0,000 mm 0,0 UV-I 0 W/m 10,5 C 14,2 C 14,5 km/h (3 Bft) 100,00 %
09.11.2015 22:16 15,7 C 71 % 1025,4 hPa 0,0 l/m 6,6 km/h (2 Bft) W-NW 294 0 min 0,000 mm 0,0 UV-I 0 W/m 10,5 C 15,6 C 11,3 km/h (2 Bft) 96,15 %
09.11.2015 22:17 15,7 C 71 % 1025,3 hPa 0,0 l/m 4,7 km/h (1 Bft) W-NW 292 0 min 0,000 mm 0,0 UV-I 0 W/m 10,5 C 15,7 C 8,0 km/h (2 Bft) 100,00 %
09.11.2015 22:18 15,7 C 72 % 1025,3 hPa 0,0 l/m 7,2 km/h (2 Bft) S-SW 211 0 min 0,000 mm 0,0 UV-I 0 W/m 10,7 C 15,3 C 14,5 km/h (3 Bft) 100,00 %
09.11.2015 22:19 15,6 C 71 % 1025,2 hPa 0,0 l/m 6,4 km/h (2 Bft) SW 221 0 min 0,000 mm 0,0 UV-I 0 W/m 10,4 C 15,6 C 16,1 km/h (3 Bft) 100,00 %
09.11.2015 22:20 15,6 C 72 % 1025,2 hPa 0,0 l/m 6,0 km/h (2 Bft) W-SW 254 0 min 0,000 mm 0,0 UV-I 0 W/m 10,6 C 15,6 C 9,7 km/h (2 Bft) 100,00 %
09.11.2015 22:21 15,6 C 72 % 1025,1 hPa 0,0 l/m 6,4 km/h (2 Bft) S-SW 213 0 min 0,000 mm 0,0 UV-I 0 W/m 10,6 C 15,6 C 9,7 km/h (2 Bft) 95,83 %
09.11.2015 22:22 15,6 C 72 % 1025,2 hPa 0,0 l/m 8,0 km/h (2 Bft) SW 232 0 min 0,000 mm 0,0 UV-I 0 W/m 10,6 C 14,7 C 12,9 km/h (3 Bft) 100,00 %
09.11.2015 22:23 15,5 C 72 % 1025,2 hPa 0,0 l/m 10,5 km/h (2 Bft) SW 221 0 min 0,000 mm 0,0 UV-I 0 W/m 10,5 C 13,5 C 17,7 km/h (3 Bft) 100,00 %
09.11.2015 22:24 15,5 C 73 % 1025,2 hPa 0,0 l/m 7,2 km/h (2 Bft) W-SW 240 0 min 0,000 mm 0,0 UV-I 0 W/m 10,7 C 15,1 C 11,3 km/h (2 Bft) 100,00 %
09.11.2015 22:25 15,4 C 73 % 1025,3 hPa 0,0 l/m 7,2 km/h (2 Bft) W 269 0 min 0,000 mm 0,0 UV-I 0 W/m 10,6 C 15,0 C 11,3 km/h (2 Bft) 100,00 %
09.11.2015 22:26 15,4 C 73 % 1025,3 hPa 0,0 l/m 4,6 km/h (1 Bft) W-SW 246 0 min 0,000 mm 0,0 UV-I 0 W/m 10,6 C 15,4 C 11,3 km/h (2 Bft) 100,00 %
09.11.2015 22:27 15,3 C 74 % 1025,3 hPa 0,0 l/m 4,0 km/h (1 Bft) W-SW 254 0 min 0,000 mm 0,0 UV-I 0 W/m 10,7 C 15,3 C 6,4 km/h (2 Bft) 100,00 %
09.11.2015 22:28 15,3 C 74 % 1025,3 hPa 0,0 l/m 3,2 km/h (1 Bft) SW 236 0 min 0,000 mm 0,0 UV-I 0 W/m 10,7 C 15,3 C 4,8 km/h (1 Bft) 100,00 %
09.11.2015 22:29 15,3 C 74 % 1025,4 hPa 0,0 l/m 3,5 km/h (1 Bft) W-SW 239 0 min 0,000 mm 0,0 UV-I 0 W/m 10,7 C 15,3 C 6,4 km/h (2 Bft) 100,00 %
09.11.2015 22:30 15,2 C 74 % 1025,4 hPa 0,0 l/m 7,1 km/h (2 Bft) SW 227 0 min 0,000 mm 0,0 UV-I 0 W/m 10,6 C 14,8 C 11,3 km/h (2 Bft) 100,00 %
09.11.2015 22:31 15,2 C 74 % 1025,4 hPa 0,0 l/m 10,0 km/h (2 Bft) W-SW 257 0 min 0,000 mm 0,0 UV-I 0 W/m 10,6 C 13,3 C 14,5 km/h (3 Bft) 100,00 %
09.11.2015 22:32 15,2 C 74 % 1025,4 hPa 0,0 l/m 4,0 km/h (1 Bft) W 259 0 min 0,000 mm 0,0 UV-I 0 W/m 10,6 C 15,2 C 8,0 km/h (2 Bft) 100,00 %
09.11.2015 22:33 15,2 C 74 % 1025,5 hPa 0,0 l/m 5,4 km/h (1 Bft) W-NW 290 0 min 0,000 mm 0,0 UV-I 0 W/m 10,6 C 15,2 C 14,5 km/h (3 Bft) 100,00 %
09.11.2015 22:34 15,3 C 74 % 1025,5 hPa 0,0 l/m 7,6 km/h (2 Bft) W 272 0 min 0,000 mm 0,0 UV-I 0 W/m 10,7 C 14,6 C 14,5 km/h (3 Bft) 100,00 %
09.11.2015 22:35 15,3 C 74 % 1025,5 hPa 0,0 l/m 6,4 km/h (2 Bft) W 269 0 min 0,000 mm 0,0 UV-I 0 W/m 10,7 C 15,3 C 9,7 km/h (2 Bft) 100,00 %
09.11.2015 22:36 15,3 C 74 % 1025,5 hPa 0,0 l/m 7,0 km/h (2 Bft) W-SW 255 0 min 0,000 mm 0,0 UV-I 0 W/m 10,7 C 15,0 C 11,3 km/h (2 Bft) 100,00 %
09.11.2015 22:37 15,3 C 74 % 1025,5 hPa 0,0 l/m 5,6 km/h (1 Bft) SW 225 0 min 0,000 mm 0,0 UV-I 0 W/m 10,7 C 15,3 C 8,0 km/h (2 Bft) 100,00 %
09.11.2015 22:38 15,3 C 74 % 1025,5 hPa 0,0 l/m 3,3 km/h (1 Bft) W 276 0 min 0,000 mm 0,0 UV-I 0 W/m 10,7 C 15,3 C 4,8 km/h (1 Bft) 100,00 %
09.11.2015 22:39 15,3 C 74 % 1025,5 hPa 0,0 l/m 5,3 km/h (1 Bft) W 275 0 min 0,000 mm 0,0 UV-I 0 W/m 10,7 C 15,3 C 9,7 km/h (2 Bft) 100,00 %
09.11.2015 22:40 15,3 C 74 % 1025,6 hPa 0,0 l/m 5,4 km/h (1 Bft) W 274 0 min 0,000 mm 0,0 UV-I 0 W/m 10,7 C 15,3 C 8,0 km/h (2 Bft) 100,00 %
09.11.2015 22:41 15,3 C 74 % 1025,5 hPa 0,0 l/m 4,2 km/h (1 Bft) W-SW 239 0 min 0,000 mm 0,0 UV-I 0 W/m 10,7 C 15,3 C 6,4 km/h (2 Bft) 100,00 %
09.11.2015 22:42 15,2 C 74 % 1025,6 hPa 0,0 l/m 5,2 km/h (1 Bft) W-NW 288 0 min 0,000 mm 0,0 UV-I 0 W/m 10,6 C 15,2 C 11,3 km/h (2 Bft) 91,67 %
09.11.2015 22:43 15,2 C 74 % 1025,6 hPa 0,0 l/m 4,6 km/h (1 Bft) W 271 0 min 0,000 mm 0,0 UV-I 0 W/m 10,6 C 15,2 C 8,0 km/h (2 Bft) 100,00 %
09.11.2015 22:44 15,2 C 74 % 1025,6 hPa 0,0 l/m 6,1 km/h (2 Bft) W 264 0 min 0,000 mm 0,0 UV-I 0 W/m 10,6 C 15,2 C 9,7 km/h (2 Bft) 95,65 %
09.11.2015 22:45 15,2 C 74 % 1025,6 hPa 0,0 l/m 4,0 km/h (1 Bft) W 277 0 min 0,000 mm 0,0 UV-I 0 W/m 10,6 C 15,2 C 6,4 km/h (2 Bft) 95,83 %
09.11.2015 22:46 15,2 C 74 % 1025,6 hPa 0,0 l/m 4,3 km/h (1 Bft) W 266 0 min 0,000 mm 0,0 UV-I 0 W/m 10,6 C 15,2 C 6,4 km/h (2 Bft) 100,00 %
09.11.2015 22:47 15,2 C 75 % 1025,6 hPa 0,0 l/m 4,1 km/h (1 Bft) W 277 0 min 0,000 mm 0,0 UV-I 0 W/m 10,8 C 15,2 C 6,4 km/h (2 Bft) 100,00 %
09.11.2015 22:48 15,2 C 75 % 1025,6 hPa 0,0 l/m 4,8 km/h (1 Bft) W-SW 252 0 min 0,000 mm 0,0 UV-I 0 W/m 10,8 C 15,2 C 8,0 km/h (2 Bft) 100,00 %
09.11.2015 22:49 15,1 C 75 % 1025,6 hPa 0,0 l/m 10,1 km/h (2 Bft) W 262 0 min 0,000 mm 0,0 UV-I 0 W/m 10,7 C 13,2 C 12,9 km/h (3 Bft) 100,00 %
09.11.2015 22:50 15,1 C 75 % 1025,6 hPa 0,0 l/m 9,4 km/h (2 Bft) W 266 0 min 0,000 mm 0,0 UV-I 0 W/m 10,7 C 13,5 C 14,5 km/h (3 Bft) 100,00 %
09.11.2015 22:51 15,1 C 75 % 1025,6 hPa 0,0 l/m 7,5 km/h (2 Bft) W-SW 254 0 min 0,000 mm 0,0 UV-I 0 W/m 10,7 C 14,5 C 12,9 km/h (3 Bft) 95,83 %
09.11.2015 22:52 15,2 C 75 % 1025,6 hPa 0,0 l/m 3,8 km/h (1 Bft) W 278 0 min 0,000 mm 0,0 UV-I 0 W/m 10,8 C 15,2 C 6,4 km/h (2 Bft) 100,00 %
09.11.2015 22:53 15,2 C 75 % 1025,6 hPa 0,0 l/m 4,1 km/h (1 Bft) W-SW 248 0 min 0,000 mm 0,0 UV-I 0 W/m 10,8 C 15,2 C 6,4 km/h (2 Bft) 91,67 %
09.11.2015 22:54 15,2 C 75 % 1025,6 hPa 0,0 l/m 4,1 km/h (1 Bft) W 269 0 min 0,000 mm 0,0 UV-I 0 W/m 10,8 C 15,2 C 6,4 km/h (2 Bft) 100,00 %
09.11.2015 22:55 15,2 C 75 % 1025,6 hPa 0,0 l/m 6,2 km/h (2 Bft) W-SW 257 0 min 0,000 mm 0,0 UV-I 0 W/m 10,8 C 15,2 C 9,7 km/h (2 Bft) 100,00 %
09.11.2015 22:56 15,2 C 75 % 1025,6 hPa 0,0 l/m 5,5 km/h (1 Bft) W 273 0 min 0,000 mm 0,0 UV-I 0 W/m 10,8 C 15,2 C 8,0 km/h (2 Bft) 100,00 %
09.11.2015 22:57 15,2 C 75 % 1025,6 hPa 0,0 l/m 5,9 km/h (2 Bft) SW 229 0 min 0,000 mm 0,0 UV-I 0 W/m 10,8 C 15,2 C 9,7 km/h (2 Bft) 100,00 %
09.11.2015 22:58 15,1 C 75 % 1025,6 hPa 0,0 l/m 4,8 km/h (1 Bft) SW 220 0 min 0,000 mm 0,0 UV-I 0 W/m 10,7 C 15,1 C 6,4 km/h (2 Bft) 100,00 %
09.11.2015 22:59 15,1 C 75 % 1025,5 hPa 0,0 l/m 6,2 km/h (2 Bft) SW 235 0 min 0,000 mm 0,0 UV-I 0 W/m 10,7 C 15,1 C 11,3 km/h (2 Bft) 100,00 %
09.11.2015 23:00 15,1 C 75 % 1025,5 hPa 0,0 l/m 6,1 km/h (2 Bft) W-SW 256 0 min 0,000 mm 0,0 UV-I 0 W/m 10,7 C 15,1 C 12,9 km/h (3 Bft) 100,00 %
09.11.2015 23:01 15,1 C 75 % 1025,5 hPa 0,0 l/m 9,8 km/h (2 Bft) S-SW 199 0 min 0,025 mm 0,0 UV-I 0 W/m 10,7 C 13,3 C 12,9 km/h (3 Bft) 100,00 %
09.11.2015 23:02 15,1 C 75 % 1025,5 hPa 0,0 l/m 5,8 km/h (2 Bft) W 259 0 min 0,000 mm 0,0 UV-I 0 W/m 10,7 C 15,1 C 11,3 km/h (2 Bft) 100,00 %
09.11.2015 23:03 15,1 C 76 % 1025,5 hPa 0,0 l/m 5,7 km/h (1 Bft) W 265 0 min 0,000 mm 0,0 UV-I 0 W/m 10,9 C 15,1 C 11,3 km/h (2 Bft) 100,00 %
09.11.2015 23:04 15,1 C 76 % 1025,5 hPa 0,0 l/m 5,5 km/h (1 Bft) W-SW 257 0 min 0,000 mm 0,0 UV-I 0 W/m 10,9 C 15,1 C 9,7 km/h (2 Bft) 100,00 %
09.11.2015 23:05 15,0 C 76 % 1025,5 hPa 0,0 l/m 5,9 km/h (2 Bft) W-NW 287 0 min 0,000 mm 0,0 UV-I 0 W/m 10,8 C 15,0 C 8,0 km/h (2 Bft) 100,00 %
09.11.2015 23:06 15,0 C 76 % 1025,5 hPa 0,0 l/m 6,4 km/h (2 Bft) W 272 0 min 0,000 mm 0,0 UV-I 0 W/m 10,8 C 15,0 C 12,9 km/h (3 Bft) 100,00 %
09.11.2015 23:07 14,9 C 76 % 1025,4 hPa 0,0 l/m 7,4 km/h (2 Bft) S-SW 207 0 min 0,000 mm 0,0 UV-I 0 W/m 10,7 C 14,3 C 11,3 km/h (2 Bft) 88,00 %
09.11.2015 23:08 14,9 C 76 % 1025,4 hPa 0,0 l/m 8,9 km/h (2 Bft) W-NW 283 0 min 0,000 mm 0,0 UV-I 0 W/m 10,7 C 13,5 C 16,1 km/h (3 Bft) 100,00 %
09.11.2015 23:09 14,9 C 76 % 1025,4 hPa 0,0 l/m 6,7 km/h (2 Bft) W 259 0 min 0,000 mm 0,0 UV-I 0 W/m 10,7 C 14,7 C 9,7 km/h (2 Bft) 95,65 %
09.11.2015 23:10 14,9 C 76 % 1025,4 hPa 0,0 l/m 8,2 km/h (2 Bft) W 263 0 min 0,000 mm 0,0 UV-I 0 W/m 10,7 C 13,9 C 11,3 km/h (2 Bft) 100,00 %
09.11.2015 23:11 14,9 C 76 % 1025,3 hPa 0,0 l/m 8,0 km/h (2 Bft) W 268 0 min 0,000 mm 0,0 UV-I 0 W/m 10,7 C 14,0 C 11,3 km/h (2 Bft) 100,00 %
09.11.2015 23:12 15,0 C 76 % 1025,3 hPa 0,0 l/m 7,1 km/h (2 Bft) W-SW 245 0 min 0,000 mm 0,0 UV-I 0 W/m 10,8 C 14,6 C 12,9 km/h (3 Bft) 100,00 %
09.11.2015 23:13 15,0 C 76 % 1025,3 hPa 0,0 l/m 9,7 km/h (2 Bft) W-NW 288 0 min 0,000 mm 0,0 UV-I 0 W/m 10,8 C 13,3 C 12,9 km/h (3 Bft) 100,00 %
09.11.2015 23:14 15,0 C 76 % 1025,3 hPa 0,0 l/m 6,9 km/h (2 Bft) W-SW 247 0 min 0,000 mm 0,0 UV-I 0 W/m 10,8 C 14,7 C 9,7 km/h (2 Bft) 95,83 %
09.11.2015 23:15 15,0 C 76 % 1025,3 hPa 0,0 l/m 8,0 km/h (2 Bft) NW 304 0 min 0,000 mm 0,0 UV-I 0 W/m 10,8 C 14,1 C 12,9 km/h (3 Bft) 100,00 %
09.11.2015 23:16 15,0 C 76 % 1025,3 hPa 0,0 l/m 8,7 km/h (2 Bft) W 279 0 min 0,000 mm 0,0 UV-I 0 W/m 10,8 C 13,7 C 17,7 km/h (3 Bft) 100,00 %
09.11.2015 23:17 15,0 C 76 % 1025,3 hPa 0,0 l/m 7,2 km/h (2 Bft) SW 217 0 min 0,000 mm 0,0 UV-I 0 W/m 10,8 C 14,5 C 12,9 km/h (3 Bft) 100,00 %
09.11.2015 23:18 15,0 C 76 % 1025,3 hPa 0,0 l/m 7,7 km/h (2 Bft) W-NW 296 0 min 0,000 mm 0,0 UV-I 0 W/m 10,8 C 14,3 C 12,9 km/h (3 Bft) 100,00 %
09.11.2015 23:19 15,0 C 76 % 1025,3 hPa 0,0 l/m 11,9 km/h (2 Bft) W 264 0 min 0,000 mm 0,0 UV-I 0 W/m 10,8 C 12,3 C 19,3 km/h (3 Bft) 100,00 %
09.11.2015 23:20 15,1 C 76 % 1025,4 hPa 0,0 l/m 8,5 km/h (2 Bft) W-NW 292 0 min 0,000 mm 0,0 UV-I 0 W/m 10,9 C 13,9 C 12,9 km/h (3 Bft) 100,00 %
09.11.2015 23:21 15,1 C 76 % 1025,3 hPa 0,0 l/m 7,8 km/h (2 Bft) W 265 0 min 0,000 mm 0,0 UV-I 0 W/m 10,9 C 14,3 C 11,3 km/h (2 Bft) 91,67 %
09.11.2015 23:22 15,1 C 75 % 1025,4 hPa 0,0 l/m 6,9 km/h (2 Bft) W-NW 292 0 min 0,000 mm 0,0 UV-I 0 W/m 10,7 C 14,8 C 11,3 km/h (2 Bft) 100,00 %
09.11.2015 23:23 15,1 C 75 % 1025,3 hPa 0,0 l/m 8,0 km/h (2 Bft) W-SW 257 0 min 0,000 mm 0,0 UV-I 0 W/m 10,7 C 14,2 C 14,5 km/h (3 Bft) 100,00 %
09.11.2015 23:24 15,1 C 75 % 1025,3 hPa 0,0 l/m 7,5 km/h (2 Bft) SW 223 0 min 0,000 mm 0,0 UV-I 0 W/m 10,7 C 14,5 C 14,5 km/h (3 Bft) 100,00 %
09.11.2015 23:25 15,1 C 75 % 1025,2 hPa 0,0 l/m 7,3 km/h (2 Bft) W 271 0 min 0,000 mm 0,0 UV-I 0 W/m 10,7 C 14,6 C 12,9 km/h (3 Bft) 100,00 %
09.11.2015 23:26 15,1 C 75 % 1025,2 hPa 0,0 l/m 10,8 km/h (2 Bft) W-SW 254 0 min 0,000 mm 0,0 UV-I 0 W/m 10,7 C 12,9 C 14,5 km/h (3 Bft) 100,00 %
09.11.2015 23:27 15,1 C 75 % 1025,2 hPa 0,0 l/m 6,4 km/h (2 Bft) W 265 0 min 0,000 mm 0,0 UV-I 0 W/m 10,7 C 15,1 C 11,3 km/h (2 Bft) 95,83 %
09.11.2015 23:28 15,1 C 75 % 1025,2 hPa 0,0 l/m 8,0 km/h (2 Bft) N-NW 329 0 min 0,000 mm 0,0 UV-I 0 W/m 10,7 C 14,2 C 14,5 km/h (3 Bft) 100,00 %
09.11.2015 23:29 15,1 C 75 % 1025,1 hPa 0,0 l/m 9,5 km/h (2 Bft) W 275 0 min 0,000 mm 0,0 UV-I 0 W/m 10,7 C 13,5 C 14,5 km/h (3 Bft) 100,00 %
09.11.2015 23:30 15,1 C 75 % 1025,1 hPa 0,0 l/m 7,2 km/h (2 Bft) W 260 0 min 0,000 mm 0,0 UV-I 0 W/m 10,7 C 14,6 C 11,3 km/h (2 Bft) 100,00 %
09.11.2015 23:31 15,1 C 76 % 1025,1 hPa 0,0 l/m 11,5 km/h (2 Bft) W-SW 245 0 min 0,000 mm 0,0 UV-I 0 W/m 10,9 C 12,6 C 24,1 km/h (4 Bft) 100,00 %
09.11.2015 23:32 15,1 C 75 % 1025,1 hPa 0,0 l/m 7,4 km/h (2 Bft) W-NW 284 0 min 0,000 mm 0,0 UV-I 0 W/m 10,7 C 14,5 C 11,3 km/h (2 Bft) 100,00 %
09.11.2015 23:33 15,1 C 76 % 1025,2 hPa 0,0 l/m 7,8 km/h (2 Bft) W-SW 248 0 min 0,000 mm 0,0 UV-I 0 W/m 10,9 C 14,3 C 11,3 km/h (2 Bft) 100,00 %
09.11.2015 23:34 15,1 C 76 % 1025,1 hPa 0,0 l/m 5,4 km/h (1 Bft) W-SW 257 0 min 0,000 mm 0,0 UV-I 0 W/m 10,9 C 15,1 C 9,7 km/h (2 Bft) 100,00 %
09.11.2015 23:35 15,1 C 76 % 1025,2 hPa 0,0 l/m 6,0 km/h (2 Bft) W 267 0 min 0,000 mm 0,0 UV-I 0 W/m 10,9 C 15,1 C 11,3 km/h (2 Bft) 100,00 %
09.11.2015 23:36 15,1 C 76 % 1025,1 hPa 0,0 l/m 9,1 km/h (2 Bft) W 263 0 min 0,000 mm 0,0 UV-I 0 W/m 10,9 C 13,6 C 17,7 km/h (3 Bft) 100,00 %
09.11.2015 23:37 15,1 C 75 % 1025,1 hPa 0,0 l/m 10,3 km/h (2 Bft) W-NW 297 0 min 0,000 mm 0,0 UV-I 0 W/m 10,7 C 13,1 C 17,7 km/h (3 Bft) 100,00 %
09.11.2015 23:38 15,1 C 76 % 1025,0 hPa 0,0 l/m 7,4 km/h (2 Bft) SW 218 0 min 0,000 mm 0,0 UV-I 0 W/m 10,9 C 14,5 C 11,3 km/h (2 Bft) 100,00 %
09.11.2015 23:39 15,1 C 76 % 1025,1 hPa 0,0 l/m 8,2 km/h (2 Bft) W-NW 286 0 min 0,000 mm 0,0 UV-I 0 W/m 10,9 C 14,1 C 12,9 km/h (3 Bft) 100,00 %
09.11.2015 23:40 15,1 C 75 % 1025,1 hPa 0,0 l/m 12,5 km/h (3 Bft) W-SW 255 0 min 0,000 mm 0,0 UV-I 0 W/m 10,7 C 12,2 C 19,3 km/h (3 Bft) 96,15 %
09.11.2015 23:41 15,1 C 75 % 1025,0 hPa 0,0 l/m 10,0 km/h (2 Bft) W 274 0 min 0,000 mm 0,0 UV-I 0 W/m 10,7 C 13,2 C 14,5 km/h (3 Bft) 100,00 %
09.11.2015 23:42 15,1 C 75 % 1025,1 hPa 0,0 l/m 6,1 km/h (2 Bft) SW 233 0 min 0,000 mm 0,0 UV-I 0 W/m 10,7 C 15,1 C 11,3 km/h (2 Bft) 100,00 %
09.11.2015 23:43 15,1 C 75 % 1025,0 hPa 0,0 l/m 13,7 km/h (3 Bft) W 275 0 min 0,000 mm 0,0 UV-I 0 W/m 10,7 C 11,8 C 20,9 km/h (4 Bft) 100,00 %
09.11.2015 23:44 15,2 C 75 % 1025,0 hPa 0,0 l/m 9,2 km/h (2 Bft) W 272 0 min 0,000 mm 0,0 UV-I 0 W/m 10,8 C 13,7 C 12,9 km/h (3 Bft) 100,00 %
09.11.2015 23:45 15,2 C 75 % 1025,1 hPa 0,0 l/m 10,0 km/h (2 Bft) W 271 0 min 0,000 mm 0,0 UV-I 0 W/m 10,8 C 13,3 C 14,5 km/h (3 Bft) 100,00 %
09.11.2015 23:46 15,2 C 75 % 1025,1 hPa 0,0 l/m 7,1 km/h (2 Bft) W 276 0 min 0,000 mm 0,0 UV-I 0 W/m 10,8 C 14,8 C 12,9 km/h (3 Bft) 100,00 %
09.11.2015 23:47 15,2 C 75 % 1025,0 hPa 0,0 l/m 11,8 km/h (2 Bft) W 272 0 min 0,000 mm 0,0 UV-I 0 W/m 10,8 C 12,6 C 20,9 km/h (4 Bft) 100,00 %
09.11.2015 23:48 15,2 C 75 % 1025,1 hPa 0,0 l/m 8,0 km/h (2 Bft) W-NW 283 0 min 0,000 mm 0,0 UV-I 0 W/m 10,8 C 14,3 C 12,9 km/h (3 Bft) 100,00 %
09.11.2015 23:49 15,2 C 75 % 1025,1 hPa 0,0 l/m 9,5 km/h (2 Bft) SW 225 0 min 0,000 mm 0,0 UV-I 0 W/m 10,8 C 13,6 C 12,9 km/h (3 Bft) 100,00 %
09.11.2015 23:50 15,2 C 75 % 1025,1 hPa 0,0 l/m 7,5 km/h (2 Bft) W 271 0 min 0,000 mm 0,0 UV-I 0 W/m 10,8 C 14,6 C 12,9 km/h (3 Bft) 100,00 %
09.11.2015 23:51 15,2 C 75 % 1025,1 hPa 0,0 l/m 14,7 km/h (3 Bft) W 277 0 min 0,000 mm 0,0 UV-I 0 W/m 10,8 C 11,5 C 22,5 km/h (4 Bft) 95,65 %
09.11.2015 23:52 15,2 C 75 % 1025,1 hPa 0,0 l/m 11,1 km/h (2 Bft) W-SW 253 0 min 0,000 mm 0,0 UV-I 0 W/m 10,8 C 12,9 C 16,1 km/h (3 Bft) 100,00 %
09.11.2015 23:53 15,2 C 75 % 1025,1 hPa 0,0 l/m 10,3 km/h (2 Bft) W-NW 284 0 min 0,000 mm 0,0 UV-I 0 W/m 10,8 C 13,2 C 17,7 km/h (3 Bft) 100,00 %
09.11.2015 23:54 15,2 C 75 % 1025,0 hPa 0,0 l/m 10,3 km/h (2 Bft) SW 221 0 min 0,000 mm 0,0 UV-I 0 W/m 10,8 C 13,2 C 16,1 km/h (3 Bft) 100,00 %
09.11.2015 23:55 15,3 C 75 % 1025,0 hPa 0,0 l/m 9,1 km/h (2 Bft) W 274 0 min 0,000 mm 0,0 UV-I 0 W/m 10,9 C 13,9 C 12,9 km/h (3 Bft) 100,00 %
09.11.2015 23:56 15,2 C 74 % 1025,0 hPa 0,0 l/m 14,6 km/h (3 Bft) W 278 0 min 0,000 mm 0,0 UV-I 0 W/m 10,6 C 11,6 C 22,5 km/h (4 Bft) 100,00 %
09.11.2015 23:57 15,3 C 74 % 1024,9 hPa 0,0 l/m 13,7 km/h (3 Bft) W-NW 301 0 min 0,000 mm 0,0 UV-I 0 W/m 10,7 C 12,0 C 20,9 km/h (4 Bft) 100,00 %
09.11.2015 23:58 15,3 C 74 % 1024,9 hPa 0,0 l/m 10,7 km/h (2 Bft) W 275 0 min 0,000 mm 0,0 UV-I 0 W/m 10,7 C 13,1 C 17,7 km/h (3 Bft) 100,00 %
09.11.2015 23:59 15,3 C 75 % 1024,9 hPa 0,0 l/m 8,2 km/h (2 Bft) W-NW 284 0 min 0,000 mm 0,0 UV-I 0 W/m 10,9 C 14,3 C 11,3 km/h (2 Bft) 95,83 %
_ Min-Zeit 08:18 22:01 04:08 - 00:09 - - - - - - 08:18 08:18 00:09 06:49
Minimum _ 9,2 C 70 % 1023,6 hPa - 0,0 km/h (0 Bft) - - - - - - 9,1 C 9,2 C 0,0 km/h (0 Bft) 86,96 %
_ Max-Zeit 18:39 00:00 21:14 11:31 18:34 - - 07:55 10:00 10:59 09:21 16:45 18:26 21:32 00:00
Maximum _ 16,9 C 99 % 1025,9 hPa 0,4 l/m 16,0 km/h
W-SW (3 Bft)
- - 1 min 0,077 mm 0,9 UV-I 287 W/m 13,3 C 16,8 C 29,0 km/h
W (5 Bft)
100,00 %
Durchschnitt _ 12,5 C 92 % 1024,6 hPa #2,6 l/m 3,5 km/h (1 Bft) W - #19 min. #0,457 mm 0,6 UV-I 78 W/m 11,1 C 12,3 C 5,9 km/h (2 Bft) 99,09 %